| time (UTC) | temp C | wind direction | speed KPH | gust KPH | rain 1hr cm | rain 24hr cm | rain mn cm | humidity % | barometer mb |
| 20260508195012 | 13 | 232 | 8.0 | 25.7 | 0.00 | 0.00 | 0.00 | 33 | 1007.8 |
| 20260508194912 | 13 | 233 | 11.3 | 25.7 | 0.00 | 0.00 | 0.00 | 33 | 1008.1 |
| 20260508194812 | 13 | 232 | 9.7 | 25.7 | 0.00 | 0.00 | 0.00 | 33 | 1007.9 |
| 20260508194711 | 13 | 234 | 11.3 | 32.2 | 0.00 | 0.00 | 0.00 | 33 | 1008.1 |
| 20260508194633 | 13 | 236 | 9.7 | 32.2 | 0.00 | 0.00 | 0.00 | 33 | 1008.1 |
| 20260508194533 | 13 | 243 | 9.7 | 32.2 | 0.00 | 0.00 | 0.00 | 34 | 1007.9 |
| 20260508194411 | 13 | 247 | 12.9 | 35.4 | 0.00 | 0.00 | 0.00 | 33 | 1008.1 |
| 20260508194333 | 13 | 251 | 12.9 | 35.4 | 0.00 | 0.00 | 0.00 | 34 | 1008.0 |
| 20260508194212 | 13 | 254 | 12.9 | 35.4 | 0.00 | 0.00 | 0.00 | 33 | 1008.0 |
| 20260508194133 | 13 | 258 | 12.9 | 35.4 | 0.00 | 0.00 | 0.00 | 33 | 1008.0 |
| 20260508194012 | 13 | 266 | 9.7 | 35.4 | 0.00 | 0.00 | 0.00 | 33 | 1007.9 |
| 20260508193912 | 13 | 263 | 12.9 | 35.4 | 0.00 | 0.00 | 0.00 | 33 | 1007.9 |
| 20260508193812 | 13 | 258 | 12.9 | 35.4 | 0.00 | 0.00 | 0.00 | 32 | 1008.0 |
| 20260508193733 | 13 | 256 | 12.9 | 35.4 | 0.00 | 0.00 | 0.00 | 32 | 1008.0 |
| 20260508193612 | 13 | 249 | 11.3 | 35.4 | 0.00 | 0.00 | 0.00 | 32 | 1007.9 |
| 20260508193512 | 13 | 248 | 8.0 | 35.4 | 0.00 | 0.00 | 0.00 | 33 | 1007.9 |
| 20260508193412 | 13 | 255 | 11.3 | 25.7 | 0.00 | 0.00 | 0.00 | 32 | 1007.8 |
| 20260508193312 | 13 | 253 | 8.0 | 25.7 | 0.00 | 0.00 | 0.00 | 33 | 1007.9 |
| 20260508193212 | 13 | 255 | 8.0 | 25.7 | 0.00 | 0.00 | 0.00 | 33 | 1007.9 |
| 20260508193112 | 13 | 252 | 9.7 | 25.7 | 0.00 | 0.00 | 0.00 | 33 | 1007.8 |
| 20260508193012 | 13 | 247 | 6.4 | 25.7 | 0.00 | 0.00 | 0.00 | 33 | 1007.9 |
| 20260508192911 | 13 | 250 | 11.3 | 25.7 | 0.00 | 0.00 | 0.00 | 33 | 1007.8 |
| 20260508192812 | 13 | 263 | 12.9 | 22.5 | 0.00 | 0.00 | 0.00 | 33 | 1007.9 |
| 20260508192711 | 13 | 261 | 9.7 | 22.5 | 0.00 | 0.00 | 0.00 | 34 | 1007.9 |
| 20260508192612 | 13 | 254 | 8.0 | 22.5 | 0.00 | 0.00 | 0.00 | 34 | 1008.0 |
| 20260508192511 | 13 | 254 | 9.7 | 22.5 | 0.00 | 0.00 | 0.00 | 34 | 1007.9 |
| 20260508192412 | 13 | 240 | 14.5 | 27.4 | 0.00 | 0.00 | 0.00 | 33 | 1007.9 |
| 20260508192312 | 13 | 226 | 8.0 | 29.0 | 0.00 | 0.00 | 0.00 | 34 | 1007.9 |
| 20260508192212 | 13 | 224 | 8.0 | 29.0 | 0.00 | 0.00 | 0.00 | 34 | 1008.0 |
| 20260508192133 | 13 | 227 | 8.0 | 29.0 | 0.00 | 0.00 | 0.00 | 34 | 1008.0 |
| 20260508192033 | 13 | 233 | 8.0 | 29.0 | 0.00 | 0.00 | 0.00 | 33 | 1007.9 |
| 20260508191911 | 13 | 236 | 9.7 | 29.0 | 0.00 | 0.00 | 0.00 | 33 | 1007.7 |
| 20260508191812 | 13 | 234 | 11.3 | 29.0 | 0.00 | 0.00 | 0.00 | 33 | 1007.8 |
| 20260508191733 | 13 | 236 | 11.3 | 29.0 | 0.00 | 0.00 | 0.00 | 33 | 1007.8 |
| 20260508191633 | 13 | 243 | 11.3 | 29.0 | 0.00 | 0.00 | 0.00 | 33 | 1008.1 |
| 20260508191512 | 13 | 249 | 9.7 | 29.0 | 0.00 | 0.00 | 0.00 | 33 | 1008.0 |
| 20260508191411 | 13 | 255 | 16.1 | 29.0 | 0.00 | 0.00 | 0.00 | 33 | 1007.9 |
| 20260508191312 | 13 | 263 | 12.9 | 27.4 | 0.00 | 0.00 | 0.00 | 33 | 1007.9 |
| 20260508191232 | 13 | 267 | 14.5 | 27.4 | 0.00 | 0.00 | 0.00 | 33 | 1007.8 |
| 20260508191133 | 14 | 266 | 14.5 | 27.4 | 0.00 | 0.00 | 0.00 | 34 | 1008.0 |
| 20260508191033 | 14 | 269 | 9.7 | 22.5 | 0.00 | 0.00 | 0.00 | 34 | 1008.1 |
| 20260508190911 | 13 | 266 | 9.7 | 22.5 | 0.00 | 0.00 | 0.00 | 34 | 1007.9 |
| 20260508190812 | 13 | 262 | 12.9 | 24.1 | 0.00 | 0.00 | 0.00 | 34 | 1008.0 |
| 20260508190712 | 13 | 264 | 8.0 | 29.0 | 0.00 | 0.00 | 0.00 | 34 | 1008.0 |
| 20260508190611 | 13 | 262 | 8.0 | 29.0 | 0.00 | 0.00 | 0.00 | 34 | 1008.0 |
| 20260508190512 | 13 | 261 | 6.4 | 29.0 | 0.00 | 0.00 | 0.00 | 34 | 1008.1 |
| 20260508190412 | 13 | 264 | 3.2 | 29.0 | 0.00 | 0.00 | 0.00 | 35 | 1008.0 |
| 20260508190312 | 13 | 265 | 8.0 | 29.0 | 0.00 | 0.00 | 0.00 | 34 | 1007.8 |
| 20260508190212 | 13 | 266 | 8.0 | 29.0 | 0.00 | 0.00 | 0.00 | 34 | 1007.9 |
| 20260508190134 | 13 | 265 | 8.0 | 29.0 | 0.00 | 0.00 | 0.00 | 34 | 1007.9 |
| 20260508190033 | 13 | 262 | 9.7 | 29.0 | 0.00 | 0.00 | 0.00 | 34 | 1008.1 |
| 20260508185933 | 13 | 263 | 12.9 | 29.0 | 0.00 | 0.00 | 0.00 | 34 | 1008.0 |
| 20260508185811 | 13 | 268 | 9.7 | 29.0 | 0.00 | 0.00 | 0.00 | 35 | 1008.0 |
| 20260508185733 | 13 | 268 | 9.7 | 29.0 | 0.00 | 0.00 | 0.00 | 35 | 1008.0 |
| 20260508185612 | 13 | 264 | 17.7 | 27.4 | 0.00 | 0.00 | 0.00 | 34 | 1008.1 |
| 20260508185532 | 13 | 267 | 14.5 | 25.7 | 0.00 | 0.00 | 0.00 | 34 | 1007.9 |
| 20260508185411 | 13 | 263 | 14.5 | 25.7 | 0.00 | 0.00 | 0.00 | 34 | 1008.1 |
| 20260508185312 | 13 | 259 | 12.9 | 25.7 | 0.00 | 0.00 | 0.00 | 34 | 1007.9 |
| 20260508185212 | 13 | 249 | 16.1 | 38.6 | 0.00 | 0.00 | 0.00 | 34 | 1007.8 |
| 20260508185112 | 14 | 247 | 16.1 | 38.6 | 0.00 | 0.00 | 0.00 | 34 | 1007.9 |
| 20260508185011 | 14 | 251 | 11.3 | 38.6 | 0.00 | 0.00 | 0.00 | 34 | 1008.2 |
| 20260508184911 | 13 | 254 | 12.9 | 38.6 | 0.00 | 0.00 | 0.00 | 34 | 1008.2 |
| 20260508184811 | 13 | 256 | 8.0 | 38.6 | 0.00 | 0.00 | 0.00 | 34 | 1008.3 |
| 20260508184712 | 13 | 255 | 12.9 | 38.6 | 0.00 | 0.00 | 0.00 | 35 | 1008.1 |
| 20260508184611 | 13 | 261 | 14.5 | 38.6 | 0.00 | 0.00 | 0.00 | 34 | 1008.1 |
| 20260508184512 | 13 | 262 | 12.9 | 38.6 | 0.00 | 0.00 | 0.00 | 34 | 1008.2 |
| 20260508184412 | 13 | 264 | 12.9 | 38.6 | 0.00 | 0.00 | 0.00 | 34 | 1008.2 |
| 20260508184312 | 13 | 265 | 14.5 | 38.6 | 0.00 | 0.00 | 0.00 | 34 | 1008.2 |
| 20260508184212 | 14 | 269 | 14.5 | 32.2 | 0.00 | 0.00 | 0.00 | 35 | 1008.2 |
| 20260508184112 | 14 | 270 | 12.9 | 32.2 | 0.00 | 0.00 | 0.00 | 36 | 1008.1 |
| 20260508184011 | 14 | 264 | 17.7 | 32.2 | 0.00 | 0.00 | 0.00 | 36 | 1008.3 |
| 20260508183912 | 14 | 267 | 9.7 | 32.2 | 0.00 | 0.00 | 0.00 | 36 | 1008.1 |
| 20260508183812 | 14 | 264 | 9.7 | 32.2 | 0.00 | 0.00 | 0.00 | 36 | 1008.2 |
| 20260508183711 | 14 | 264 | 14.5 | 32.2 | 0.00 | 0.00 | 0.00 | 35 | 1008.0 |
| 20260508183611 | 14 | 269 | 8.0 | 25.7 | 0.00 | 0.00 | 0.00 | 36 | 1008.1 |
| 20260508183512 | 14 | 264 | 14.5 | 25.7 | 0.00 | 0.00 | 0.00 | 35 | 1008.1 |
| 20260508183412 | 14 | 263 | 12.9 | 22.5 | 0.00 | 0.00 | 0.00 | 35 | 1008.2 |
| 20260508183333 | 14 | 262 | 12.9 | 25.7 | 0.00 | 0.00 | 0.00 | 35 | 1008.2 |
| 20260508183212 | 14 | 266 | 12.9 | 25.7 | 0.00 | 0.00 | 0.00 | 36 | 1008.1 |
| 20260508183112 | 14 | 271 | 9.7 | 25.7 | 0.00 | 0.00 | 0.00 | 36 | 1008.1 |
| 20260508183012 | 14 | 266 | 12.9 | 25.7 | 0.00 | 0.00 | 0.00 | 35 | 1008.1 |
| 20260508182912 | 14 | 258 | 11.3 | 25.7 | 0.00 | 0.00 | 0.00 | 35 | 1008.2 |
| 20260508182812 | 14 | 251 | 6.4 | 25.7 | 0.00 | 0.00 | 0.00 | 35 | 1008.2 |
| 20260508182711 | 14 | 248 | 11.3 | 25.7 | 0.00 | 0.00 | 0.00 | 35 | 1008.2 |
| 20260508182633 | 14 | 243 | 8.0 | 25.7 | 0.00 | 0.00 | 0.00 | 36 | 1008.2 |
| 20260508182512 | 14 | 239 | 8.0 | 25.7 | 0.00 | 0.00 | 0.00 | 35 | 1008.3 |
| 20260508182412 | 14 | 233 | 8.0 | 33.8 | 0.00 | 0.00 | 0.00 | 35 | 1008.3 |
| 20260508182312 | 14 | 234 | 12.9 | 33.8 | 0.00 | 0.00 | 0.00 | 34 | 1008.3 |
| 20260508182212 | 14 | 229 | 12.9 | 33.8 | 0.00 | 0.00 | 0.00 | 35 | 1008.1 |
| 20260508182112 | 14 | 227 | 9.7 | 33.8 | 0.00 | 0.00 | 0.00 | 36 | 1008.4 |
| 20260508182012 | 14 | 229 | 6.4 | 33.8 | 0.00 | 0.00 | 0.00 | 36 | 1008.4 |
| 20260508181912 | 14 | 227 | 9.7 | 33.8 | 0.00 | 0.00 | 0.00 | 36 | 1008.4 |
| 20260508181833 | 14 | 228 | 14.5 | 33.8 | 0.00 | 0.00 | 0.00 | 35 | 1008.3 |
| 20260508181713 | 14 | 232 | 9.7 | 33.8 | 0.00 | 0.00 | 0.00 | 36 | 1008.3 |
| 20260508181612 | 14 | 239 | 6.4 | 33.8 | 0.00 | 0.00 | 0.00 | 36 | 1008.3 |
| 20260508181533 | 14 | 237 | 16.1 | 33.8 | 0.00 | 0.00 | 0.00 | 35 | 1008.4 |
| 20260508181412 | 14 | 247 | 8.0 | 27.4 | 0.00 | 0.00 | 0.00 | 37 | 1008.4 |
| 20260508181313 | 14 | 246 | 8.0 | 27.4 | 0.00 | 0.00 | 0.00 | 37 | 1008.3 |
| 20260508181233 | 14 | 246 | 14.5 | 27.4 | 0.00 | 0.00 | 0.00 | 37 | 1008.3 |
| 20260508181112 | 14 | 236 | 14.5 | 29.0 | 0.00 | 0.00 | 0.00 | 37 | 1008.3 |
| 20260508181012 | 14 | 229 | 14.5 | 29.0 | 0.00 | 0.00 | 0.00 | 36 | 1008.5 |
| 20260508180912 | 14 | 230 | 17.7 | 29.0 | 0.00 | 0.00 | 0.00 | 36 | 1008.4 |
| 20260508180833 | 14 | 229 | 12.9 | 29.0 | 0.00 | 0.00 | 0.00 | 35 | 1008.3 |
| 20260508180733 | 14 | 223 | 11.3 | 29.0 | 0.00 | 0.00 | 0.00 | 36 | 1008.4 |
| 20260508180612 | 14 | 218 | 12.9 | 29.0 | 0.00 | 0.00 | 0.00 | 36 | 1008.4 |
| 20260508180533 | 14 | 216 | 12.9 | 29.0 | 0.00 | 0.00 | 0.00 | 36 | 1008.4 |
| 20260508180412 | 13 | 212 | 6.4 | 29.0 | 0.00 | 0.00 | 0.00 | 37 | 1008.4 |
| 20260508180312 | 13 | 214 | 9.7 | 35.4 | 0.00 | 0.00 | 0.00 | 36 | 1008.3 |
| 20260508180211 | 14 | 225 | 16.1 | 35.4 | 0.00 | 0.00 | 0.00 | 35 | 1008.3 |
| 20260508180112 | 14 | 231 | 12.9 | 35.4 | 0.00 | 0.00 | 0.00 | 35 | 1008.1 |
| 20260508180012 | 14 | 235 | 8.0 | 35.4 | 0.00 | 0.00 | 0.00 | 36 | 1008.4 |
| 20260508175912 | 14 | 243 | 14.5 | 35.4 | 0.00 | 0.00 | 0.00 | 35 | 1008.4 |
| 20260508175812 | 14 | 246 | 12.9 | 35.4 | 0.00 | 0.00 | 0.00 | 36 | 1008.4 |
| 20260508175712 | 13 | 249 | 12.9 | 35.4 | 0.00 | 0.00 | 0.00 | 37 | 1008.5 |
| 20260508175612 | 13 | 249 | 9.7 | 35.4 | 0.00 | 0.00 | 0.00 | 38 | 1008.5 |
| 20260508175512 | 13 | 253 | 11.3 | 35.4 | 0.00 | 0.00 | 0.00 | 38 | 1008.2 |
| 20260508175412 | 13 | 257 | 17.7 | 35.4 | 0.00 | 0.00 | 0.00 | 38 | 1008.4 |
| 20260508175312 | 13 | 254 | 19.3 | 35.4 | 0.00 | 0.00 | 0.00 | 38 | 1008.5 |
| 20260508175212 | 13 | 246 | 11.3 | 35.4 | 0.00 | 0.00 | 0.00 | 40 | 1008.3 |
| 20260508175112 | 13 | 240 | 14.5 | 35.4 | 0.00 | 0.00 | 0.00 | 39 | 1008.3 |
| 20260508175012 | 13 | 242 | 22.5 | 35.4 | 0.00 | 0.00 | 0.00 | 39 | 1008.3 |
| 20260508174933 | 13 | 239 | 22.5 | 35.4 | 0.00 | 0.00 | 0.00 | 39 | 1008.3 |
| 20260508174833 | 13 | 230 | 17.7 | 33.8 | 0.00 | 0.00 | 0.00 | 39 | 1008.3 |
| 20260508174733 | 13 | 230 | 16.1 | 27.4 | 0.00 | 0.00 | 0.00 | 39 | 1008.4 |
| 20260508174612 | 13 | 231 | 16.1 | 25.7 | 0.00 | 0.00 | 0.00 | 39 | 1008.3 |
| 20260508174512 | 13 | 234 | 12.9 | 25.7 | 0.00 | 0.00 | 0.00 | 40 | 1008.3 |
| 20260508174433 | 13 | 230 | 11.3 | 25.7 | 0.00 | 0.00 | 0.00 | 40 | 1008.4 |
| 20260508174333 | 13 | 229 | 12.9 | 25.7 | 0.00 | 0.00 | 0.00 | 40 | 1008.5 |
| 20260508174212 | 13 | 236 | 11.3 | 29.0 | 0.00 | 0.00 | 0.00 | 40 | 1008.5 |
| 20260508174133 | 13 | 239 | 11.3 | 32.2 | 0.00 | 0.00 | 0.00 | 40 | 1008.5 |
| 20260508174011 | 13 | 250 | 11.3 | 32.2 | 0.00 | 0.00 | 0.00 | 40 | 1008.3 |
| 20260508173911 | 13 | 254 | 9.7 | 32.2 | 0.00 | 0.00 | 0.00 | 40 | 1008.6 |
| 20260508173811 | 13 | 258 | 14.5 | 32.2 | 0.00 | 0.00 | 0.00 | 40 | 1008.5 |
| 20260508173711 | 13 | 255 | 12.9 | 32.2 | 0.00 | 0.00 | 0.00 | 40 | 1008.3 |
| 20260508173633 | 13 | 255 | 11.3 | 32.2 | 0.00 | 0.00 | 0.00 | 40 | 1008.4 |
| 20260508173511 | 13 | 261 | 6.4 | 32.2 | 0.00 | 0.00 | 0.00 | 41 | 1008.4 |
| 20260508173412 | 13 | 254 | 17.7 | 32.2 | 0.00 | 0.00 | 0.00 | 40 | 1008.4 |
| 20260508173312 | 13 | 256 | 16.1 | 32.2 | 0.00 | 0.00 | 0.00 | 40 | 1008.5 |
| 20260508173211 | 13 | 254 | 17.7 | 32.2 | 0.00 | 0.00 | 0.00 | 40 | 1008.3 |
| 20260508173112 | 13 | 259 | 12.9 | 32.2 | 0.00 | 0.00 | 0.00 | 40 | 1008.5 |
| 20260508173033 | 13 | 260 | 17.7 | 32.2 | 0.00 | 0.00 | 0.00 | 39 | 1008.3 |
| 20260508172933 | 13 | 257 | 6.4 | 32.2 | 0.00 | 0.00 | 0.00 | 41 | 1008.3 |
| 20260508172833 | 13 | 256 | 14.5 | 32.2 | 0.00 | 0.00 | 0.00 | 40 | 1008.4 |
| 20260508172733 | 13 | 262 | 12.9 | 32.2 | 0.00 | 0.00 | 0.00 | 40 | 1008.2 |
| 20260508172632 | 13 | 259 | 14.5 | 32.2 | 0.00 | 0.00 | 0.00 | 40 | 1008.3 |
| 20260508172512 | 13 | 248 | 12.9 | 32.2 | 0.00 | 0.00 | 0.00 | 40 | 1008.4 |
| 20260508172412 | 13 | 250 | 12.9 | 32.2 | 0.00 | 0.00 | 0.00 | 40 | 1008.2 |
| 20260508172311 | 13 | 250 | 12.9 | 32.2 | 0.00 | 0.00 | 0.00 | 41 | 1008.3 |
| 20260508172212 | 13 | 255 | 16.1 | 32.2 | 0.00 | 0.00 | 0.00 | 40 | 1008.4 |
| 20260508172112 | 13 | 252 | 16.1 | 32.2 | 0.00 | 0.00 | 0.00 | 40 | 1008.3 |
| 20260508172012 | 13 | 250 | 14.5 | 32.2 | 0.00 | 0.00 | 0.00 | 40 | 1008.4 |
| 20260508171912 | 13 | 249 | 14.5 | 32.2 | 0.00 | 0.00 | 0.00 | 40 | 1008.6 |
| 20260508171812 | 13 | 246 | 16.1 | 29.0 | 0.00 | 0.00 | 0.00 | 41 | 1008.4 |
| 20260508171732 | 13 | 243 | 16.1 | 29.0 | 0.00 | 0.00 | 0.00 | 41 | 1008.4 |
| 20260508171612 | 13 | 254 | 14.5 | 32.2 | 0.00 | 0.00 | 0.00 | 40 | 1008.5 |
| 20260508171533 | 13 | 259 | 11.3 | 32.2 | 0.00 | 0.00 | 0.00 | 41 | 1008.4 |
| 20260508171412 | 14 | 265 | 8.0 | 32.2 | 0.00 | 0.00 | 0.00 | 41 | 1008.6 |
| 20260508171332 | 14 | 266 | 8.0 | 32.2 | 0.00 | 0.00 | 0.00 | 41 | 1008.6 |
| 20260508171234 | 14 | 265 | 14.5 | 32.2 | 0.00 | 0.00 | 0.00 | 40 | 1008.7 |
| 20260508171111 | 14 | 262 | 8.0 | 32.2 | 0.00 | 0.00 | 0.00 | 41 | 1008.7 |
| 20260508171033 | 13 | 262 | 11.3 | 32.2 | 0.00 | 0.00 | 0.00 | 41 | 1008.5 |
| 20260508170911 | 13 | 259 | 9.7 | 32.2 | 0.00 | 0.00 | 0.00 | 41 | 1008.5 |
| 20260508170811 | 13 | 255 | 12.9 | 32.2 | 0.00 | 0.00 | 0.00 | 42 | 1008.4 |
| 20260508170711 | 13 | 260 | 9.7 | 32.2 | 0.00 | 0.00 | 0.00 | 41 | 1008.5 |
| 20260508170612 | 13 | 256 | 9.7 | 27.4 | 0.00 | 0.00 | 0.00 | 42 | 1008.6 |
| 20260508170512 | 13 | 257 | 9.7 | 27.4 | 0.00 | 0.00 | 0.00 | 42 | 1008.6 |
| 20260508170412 | 13 | 254 | 17.7 | 27.4 | 0.00 | 0.00 | 0.00 | 41 | 1008.6 |
| 20260508170312 | 13 | 253 | 11.3 | 32.2 | 0.00 | 0.00 | 0.00 | 42 | 1008.6 |
| 20260508170212 | 13 | 248 | 17.7 | 32.2 | 0.00 | 0.00 | 0.00 | 41 | 1008.7 |
| 20260508170112 | 13 | 247 | 11.3 | 32.2 | 0.00 | 0.00 | 0.00 | 42 | 1008.6 |
| 20260508170012 | 13 | 248 | 11.3 | 32.2 | 0.00 | 0.00 | 0.00 | 42 | 1008.6 |
| 20260508165911 | 13 | 242 | 12.9 | 32.2 | 0.00 | 0.00 | 0.00 | 42 | 1008.6 |
| 20260508165812 | 13 | 238 | 16.1 | 33.8 | 0.00 | 0.00 | 0.00 | 41 | 1008.6 |
| 20260508165712 | 13 | 230 | 16.1 | 33.8 | 0.00 | 0.00 | 0.00 | 41 | 1008.7 |
| 20260508165633 | 13 | 223 | 12.9 | 33.8 | 0.00 | 0.00 | 0.00 | 41 | 1008.8 |
| 20260508165512 | 13 | 215 | 12.9 | 33.8 | 0.00 | 0.00 | 0.00 | 41 | 1008.7 |
| 20260508165433 | 13 | 217 | 14.5 | 33.8 | 0.00 | 0.00 | 0.00 | 42 | 1008.6 |
| 20260508165311 | 13 | 211 | 14.5 | 38.6 | 0.00 | 0.00 | 0.00 | 41 | 1008.7 |
| 20260508165233 | 13 | 221 | 12.9 | 38.6 | 0.00 | 0.00 | 0.00 | 41 | 1008.8 |
| 20260508165111 | 13 | 230 | 6.4 | 38.6 | 0.00 | 0.00 | 0.00 | 41 | 1008.8 |
| 20260508165012 | 13 | 232 | 12.9 | 38.6 | 0.00 | 0.00 | 0.00 | 41 | 1008.6 |
| 20260508164933 | 13 | 238 | 12.9 | 38.6 | 0.00 | 0.00 | 0.00 | 41 | 1008.6 |
| 20260508164811 | 13 | 250 | 14.5 | 38.6 | 0.00 | 0.00 | 0.00 | 42 | 1009.0 |
| 20260508164712 | 13 | 255 | 8.0 | 38.6 | 0.00 | 0.00 | 0.00 | 43 | 1008.7 |
| 20260508164611 | 13 | 255 | 12.9 | 38.6 | 0.00 | 0.00 | 0.00 | 43 | 1008.9 |
| 20260508164511 | 13 | 255 | 12.9 | 38.6 | 0.00 | 0.00 | 0.00 | 43 | 1008.8 |
| 20260508164412 | 13 | 250 | 11.3 | 38.6 | 0.00 | 0.00 | 0.00 | 43 | 1009.0 |
| 20260508164312 | 13 | 249 | 20.9 | 38.6 | 0.00 | 0.00 | 0.00 | 43 | 1009.0 |
| 20260508164212 | 13 | 249 | 16.1 | 32.2 | 0.00 | 0.00 | 0.00 | 44 | 1008.9 |
| 20260508164111 | 13 | 243 | 12.9 | 32.2 | 0.00 | 0.00 | 0.00 | 43 | 1008.9 |
| 20260508164012 | 13 | 237 | 17.7 | 32.2 | 0.00 | 0.00 | 0.00 | 43 | 1009.0 |
| 20260508163911 | 13 | 221 | 17.7 | 33.8 | 0.00 | 0.00 | 0.00 | 43 | 1009.0 |
| 20260508163811 | 12 | 217 | 9.7 | 33.8 | 0.00 | 0.00 | 0.00 | 44 | 1009.0 |
| 20260508163711 | 12 | 210 | 6.4 | 33.8 | 0.00 | 0.00 | 0.00 | 44 | 1009.0 |
| 20260508163611 | 12 | 212 | 12.9 | 33.8 | 0.00 | 0.00 | 0.00 | 43 | 1009.0 |
| 20260508163511 | 12 | 218 | 17.7 | 33.8 | 0.00 | 0.00 | 0.00 | 43 | 1009.0 |
| 20260508163411 | 13 | 215 | 17.7 | 33.8 | 0.00 | 0.00 | 0.00 | 42 | 1009.1 |
| 20260508163312 | 13 | 223 | 9.7 | 33.8 | 0.00 | 0.00 | 0.00 | 43 | 1009.0 |
| 20260508163212 | 13 | 228 | 9.7 | 33.8 | 0.00 | 0.00 | 0.00 | 43 | 1009.0 |
| 20260508163111 | 13 | 235 | 6.4 | 33.8 | 0.00 | 0.00 | 0.00 | 43 | 1009.2 |
| 20260508163012 | 12 | 244 | 16.1 | 33.8 | 0.00 | 0.00 | 0.00 | 43 | 1009.2 |
| 20260508162911 | 12 | 259 | 8.0 | 29.0 | 0.00 | 0.00 | 0.00 | 44 | 1009.1 |
| 20260508162812 | 12 | 265 | 12.9 | 29.0 | 0.00 | 0.00 | 0.00 | 43 | 1009.0 |
| 20260508162711 | 12 | 262 | 12.9 | 29.0 | 0.00 | 0.00 | 0.00 | 44 | 1009.3 |
| 20260508162612 | 12 | 263 | 12.9 | 32.2 | 0.00 | 0.00 | 0.00 | 44 | 1009.1 |
| 20260508162511 | 12 | 264 | 11.3 | 32.2 | 0.00 | 0.00 | 0.00 | 44 | 1009.1 |
| 20260508162411 | 12 | 266 | 11.3 | 32.2 | 0.00 | 0.00 | 0.00 | 44 | 1009.0 |
| 20260508162333 | 12 | 270 | 12.9 | 32.2 | 0.00 | 0.00 | 0.00 | 44 | 1009.1 |
| 20260508162212 | 12 | 274 | 12.9 | 32.2 | 0.00 | 0.00 | 0.00 | 45 | 1009.0 |
| 20260508162112 | 12 | 275 | 16.1 | 32.2 | 0.00 | 0.00 | 0.00 | 44 | 1009.2 |
| 20260508162011 | 12 | 273 | 14.5 | 32.2 | 0.00 | 0.00 | 0.00 | 45 | 1009.3 |
| 20260508161912 | 12 | 270 | 12.9 | 32.2 | 0.00 | 0.00 | 0.00 | 45 | 1009.2 |
| 20260508161811 | 12 | 264 | 9.7 | 32.2 | 0.00 | 0.00 | 0.00 | 45 | 1009.1 |
| 20260508161711 | 12 | 268 | 12.9 | 32.2 | 0.00 | 0.00 | 0.00 | 45 | 1009.2 |
| 20260508161611 | 12 | 269 | 16.1 | 32.2 | 0.00 | 0.00 | 0.00 | 45 | 1009.3 |
| 20260508161512 | 12 | 259 | 17.7 | 32.2 | 0.00 | 0.00 | 0.00 | 44 | 1009.1 |
| 20260508161411 | 12 | 255 | 11.3 | 32.2 | 0.00 | 0.00 | 0.00 | 46 | 1009.1 |
| 20260508161312 | 12 | 250 | 11.3 | 32.2 | 0.00 | 0.00 | 0.00 | 46 | 1009.3 |
| 20260508161233 | 12 | 243 | 14.5 | 32.2 | 0.00 | 0.00 | 0.00 | 45 | 1009.2 |
| 20260508161112 | 12 | 237 | 12.9 | 32.2 | 0.00 | 0.00 | 0.00 | 46 | 1009.2 |
| 20260508161011 | 12 | 232 | 16.1 | 32.2 | 0.00 | 0.00 | 0.00 | 45 | 1009.4 |
| 20260508160911 | 12 | 226 | 12.9 | 32.2 | 0.00 | 0.00 | 0.00 | 45 | 1009.3 |
| 20260508160811 | 12 | 225 | 6.4 | 32.2 | 0.00 | 0.00 | 0.00 | 46 | 1009.3 |
| 20260508160711 | 12 | 212 | 20.9 | 32.2 | 0.00 | 0.00 | 0.00 | 45 | 1009.3 |
| 20260508160612 | 12 | 197 | 12.9 | 32.2 | 0.00 | 0.00 | 0.00 | 46 | 1009.1 |
| 20260508160511 | 12 | 201 | 9.7 | 37.0 | 0.00 | 0.00 | 0.00 | 46 | 1009.4 |
| 20260508160412 | 12 | 213 | 8.0 | 37.0 | 0.00 | 0.00 | 0.00 | 46 | 1009.3 |
| 20260508160311 | 12 | 219 | 9.7 | 37.0 | 0.00 | 0.00 | 0.00 | 46 | 1009.4 |
| 20260508160212 | 12 | 217 | 12.9 | 37.0 | 0.00 | 0.00 | 0.00 | 45 | 1009.3 |
| 20260508160132 | 12 | 214 | 12.9 | 37.0 | 0.00 | 0.00 | 0.00 | 45 | 1009.3 |
| 20260508160012 | 12 | 225 | 12.9 | 37.0 | 0.00 | 0.00 | 0.00 | 45 | 1009.4 |
| 20260508155911 | 12 | 227 | 14.5 | 37.0 | 0.00 | 0.00 | 0.00 | 46 | 1009.5 |
| 20260508155811 | 12 | 230 | 12.9 | 37.0 | 0.00 | 0.00 | 0.00 | 47 | 1009.3 |
| 20260508155712 | 12 | 232 | 12.9 | 37.0 | 0.00 | 0.00 | 0.00 | 47 | 1009.4 |
| 20260508155633 | 12 | 238 | 12.9 | 37.0 | 0.00 | 0.00 | 0.00 | 47 | 1009.4 |
| 20260508155511 | 12 | 247 | 16.1 | 37.0 | 0.00 | 0.00 | 0.00 | 47 | 1009.4 |
| 20260508155412 | 12 | 244 | 9.7 | 27.4 | 0.00 | 0.00 | 0.00 | 47 | 1009.5 |
| 20260508155312 | 12 | 237 | 16.1 | 27.4 | 0.00 | 0.00 | 0.00 | 46 | 1009.2 |
| 20260508155233 | 12 | 243 | 11.3 | 27.4 | 0.00 | 0.00 | 0.00 | 48 | 1009.5 |
| 20260508155132 | 12 | 250 | 9.7 | 27.4 | 0.00 | 0.00 | 0.00 | 48 | 1009.5 |
| 20260508155011 | 12 | 242 | 8.0 | 27.4 | 0.00 | 0.00 | 0.00 | 48 | 1009.4 |
| 20260508154911 | 12 | 240 | 8.0 | 27.4 | 0.00 | 0.00 | 0.00 | 47 | 1009.5 |
| 20260508154833 | 12 | 242 | 11.3 | 27.4 | 0.00 | 0.00 | 0.00 | 48 | 1009.5 |
| 20260508154733 | 12 | 244 | 9.7 | 27.4 | 0.00 | 0.00 | 0.00 | 47 | 1009.6 |
| 20260508154611 | 12 | 240 | 12.9 | 29.0 | 0.00 | 0.00 | 0.00 | 47 | 1009.6 |
| 20260508154511 | 12 | 230 | 12.9 | 32.2 | 0.00 | 0.00 | 0.00 | 46 | 1009.6 |
| 20260508154411 | 12 | 223 | 12.9 | 37.0 | 0.00 | 0.00 | 0.00 | 47 | 1009.7 |
| 20260508154311 | 12 | 222 | 12.9 | 37.0 | 0.00 | 0.00 | 0.00 | 47 | 1009.5 |
| 20260508154211 | 12 | 219 | 12.9 | 37.0 | 0.00 | 0.00 | 0.00 | 47 | 1009.5 |
| 20260508154111 | 12 | 216 | 11.3 | 37.0 | 0.00 | 0.00 | 0.00 | 47 | 1009.5 |
| 20260508154011 | 12 | 219 | 14.5 | 37.0 | 0.00 | 0.00 | 0.00 | 47 | 1009.5 |
| 20260508153911 | 12 | 225 | 6.4 | 37.0 | 0.00 | 0.00 | 0.00 | 48 | 1009.5 |
| 20260508153812 | 12 | 224 | 6.4 | 37.0 | 0.00 | 0.00 | 0.00 | 47 | 1009.6 |
| 20260508153732 | 12 | 223 | 6.4 | 37.0 | 0.00 | 0.00 | 0.00 | 47 | 1009.6 |
| 20260508153633 | 12 | 224 | 11.3 | 37.0 | 0.00 | 0.00 | 0.00 | 47 | 1009.6 |
| 20260508153511 | 12 | 237 | 12.9 | 37.0 | 0.00 | 0.00 | 0.00 | 47 | 1009.6 |
| 20260508153412 | 12 | 240 | 14.5 | 32.2 | 0.00 | 0.00 | 0.00 | 46 | 1009.6 |
| 20260508153311 | 12 | 245 | 14.5 | 32.2 | 0.00 | 0.00 | 0.00 | 46 | 1009.6 |
| 20260508153211 | 12 | 254 | 12.9 | 29.0 | 0.00 | 0.00 | 0.00 | 46 | 1009.6 |
| 20260508153112 | 12 | 255 | 12.9 | 29.0 | 0.00 | 0.00 | 0.00 | 47 | 1009.8 |
| 20260508153012 | 12 | 254 | 14.5 | 29.0 | 0.00 | 0.00 | 0.00 | 47 | 1009.7 |
| 20260508152933 | 12 | 256 | 14.5 | 29.0 | 0.00 | 0.00 | 0.00 | 47 | 1009.7 |
| 20260508152812 | 12 | 263 | 17.7 | 29.0 | 0.00 | 0.00 | 0.00 | 46 | 1009.5 |
| 20260508152711 | 12 | 273 | 11.3 | 29.0 | 0.00 | 0.00 | 0.00 | 47 | 1009.6 |
| 20260508152611 | 12 | 266 | 8.0 | 29.0 | 0.00 | 0.00 | 0.00 | 47 | 1009.8 |
| 20260508152512 | 12 | 261 | 16.1 | 29.0 | 0.00 | 0.00 | 0.00 | 47 | 1009.7 |
| 20260508152411 | 12 | 261 | 14.5 | 29.0 | 0.00 | 0.00 | 0.00 | 47 | 1009.6 |
| 20260508152311 | 12 | 260 | 9.7 | 29.0 | 0.00 | 0.00 | 0.00 | 48 | 1009.6 |
| 20260508152233 | 12 | 261 | 11.3 | 29.0 | 0.00 | 0.00 | 0.00 | 49 | 1009.8 |
| 20260508152112 | 11 | 258 | 11.3 | 29.0 | 0.00 | 0.00 | 0.00 | 49 | 1009.8 |
| 20260508152011 | 11 | 261 | 12.9 | 29.0 | 0.00 | 0.00 | 0.00 | 49 | 1009.7 |
| 20260508151911 | 11 | 263 | 17.7 | 29.0 | 0.00 | 0.00 | 0.00 | 49 | 1009.7 |
| 20260508151811 | 12 | 259 | 17.7 | 29.0 | 0.00 | 0.00 | 0.00 | 49 | 1009.6 |
| 20260508151712 | 12 | 249 | 12.9 | 29.0 | 0.00 | 0.00 | 0.00 | 48 | 1009.8 |
| 20260508151611 | 12 | 247 | 12.9 | 29.0 | 0.00 | 0.00 | 0.00 | 48 | 1009.9 |
| 20260508151511 | 11 | 248 | 12.9 | 29.0 | 0.00 | 0.00 | 0.00 | 49 | 1009.8 |
| 20260508151411 | 11 | 247 | 12.9 | 29.0 | 0.00 | 0.00 | 0.00 | 49 | 1009.9 |
| 20260508151311 | 11 | 250 | 11.3 | 29.0 | 0.00 | 0.00 | 0.00 | 50 | 1009.8 |
| 20260508151232 | 11 | 249 | 9.7 | 29.0 | 0.00 | 0.00 | 0.00 | 50 | 1009.8 |
| 20260508151133 | 11 | 251 | 16.1 | 29.0 | 0.00 | 0.00 | 0.00 | 50 | 1010.0 |
| 20260508151011 | 11 | 244 | 11.3 | 29.0 | 0.00 | 0.00 | 0.00 | 51 | 1009.7 |
| 20260508150911 | 11 | 239 | 16.1 | 29.0 | 0.00 | 0.00 | 0.00 | 50 | 1009.9 |
| 20260508150811 | 11 | 234 | 16.1 | 29.0 | 0.00 | 0.00 | 0.00 | 49 | 1009.7 |
| 20260508150711 | 11 | 234 | 14.5 | 29.0 | 0.00 | 0.00 | 0.00 | 49 | 1009.8 |
| 20260508150633 | 11 | 236 | 12.9 | 29.0 | 0.00 | 0.00 | 0.00 | 50 | 1009.9 |
| 20260508150533 | 11 | 239 | 8.0 | 29.0 | 0.00 | 0.00 | 0.00 | 50 | 1009.8 |
| 20260508150411 | 11 | 241 | 17.7 | 29.0 | 0.00 | 0.00 | 0.00 | 50 | 1009.8 |
| 20260508150311 | 11 | 243 | 9.7 | 32.2 | 0.00 | 0.00 | 0.00 | 50 | 1009.6 |
| 20260508150211 | 11 | 248 | 16.1 | 32.2 | 0.00 | 0.00 | 0.00 | 49 | 1009.8 |
| 20260508150111 | 11 | 255 | 12.9 | 32.2 | 0.00 | 0.00 | 0.00 | 50 | 1009.8 |
| 20260508150012 | 11 | 259 | 11.3 | 32.2 | 0.00 | 0.00 | 0.00 | 50 | 1009.7 |
| 20260508145911 | 11 | 260 | 9.7 | 32.2 | 0.00 | 0.00 | 0.00 | 50 | 1009.6 |
| 20260508145833 | 11 | 256 | 12.9 | 32.2 | 0.00 | 0.00 | 0.00 | 50 | 1009.6 |
| 20260508145711 | 11 | 264 | 11.3 | 32.2 | 0.00 | 0.00 | 0.00 | 50 | 1009.8 |
| 20260508145611 | 11 | 261 | 14.5 | 32.2 | 0.00 | 0.00 | 0.00 | 50 | 1010.0 |
| 20260508145511 | 11 | 256 | 12.9 | 32.2 | 0.00 | 0.00 | 0.00 | 50 | 1009.8 |
| 20260508145411 | 11 | 242 | 17.7 | 32.2 | 0.00 | 0.00 | 0.00 | 50 | 1009.8 |
| 20260508145311 | 11 | 241 | 16.1 | 32.2 | 0.00 | 0.00 | 0.00 | 50 | 1009.9 |
| 20260508145211 | 11 | 237 | 16.1 | 32.2 | 0.00 | 0.00 | 0.00 | 50 | 1009.8 |
| 20260508145111 | 11 | 223 | 11.3 | 32.2 | 0.00 | 0.00 | 0.00 | 50 | 1009.9 |
| 20260508145011 | 11 | 217 | 19.3 | 32.2 | 0.00 | 0.00 | 0.00 | 50 | 1009.9 |
| 20260508144911 | 11 | 211 | 12.9 | 32.2 | 0.00 | 0.00 | 0.00 | 50 | 1010.0 |
| 20260508144811 | 11 | 220 | 9.7 | 32.2 | 0.00 | 0.00 | 0.00 | 51 | 1009.8 |
| 20260508144711 | 11 | 217 | 8.0 | 32.2 | 0.00 | 0.00 | 0.00 | 51 | 1009.8 |
| 20260508144633 | 11 | 221 | 12.9 | 32.2 | 0.00 | 0.00 | 0.00 | 51 | 1009.9 |
| 20260508144511 | 11 | 224 | 16.1 | 32.2 | 0.00 | 0.00 | 0.00 | 50 | 1009.9 |
| 20260508144432 | 11 | 220 | 9.7 | 32.2 | 0.00 | 0.00 | 0.00 | 52 | 1009.9 |
| 20260508144311 | 11 | 223 | 17.7 | 32.2 | 0.00 | 0.00 | 0.00 | 51 | 1009.9 |
| 20260508144211 | 11 | 222 | 14.5 | 32.2 | 0.00 | 0.00 | 0.00 | 51 | 1009.9 |
| 20260508144111 | 11 | 228 | 17.7 | 32.2 | 0.00 | 0.00 | 0.00 | 51 | 1009.8 |
| 20260508144011 | 11 | 236 | 11.3 | 32.2 | 0.00 | 0.00 | 0.00 | 52 | 1010.1 |
| 20260508143932 | 11 | 241 | 12.9 | 32.2 | 0.00 | 0.00 | 0.00 | 52 | 1010.0 |
| 20260508143811 | 11 | 227 | 12.9 | 32.2 | 0.00 | 0.00 | 0.00 | 52 | 1009.7 |
| 20260508143711 | 11 | 228 | 12.9 | 32.2 | 0.00 | 0.00 | 0.00 | 52 | 1009.8 |
| 20260508143632 | 11 | 225 | 16.1 | 33.8 | 0.00 | 0.00 | 0.00 | 52 | 1010.2 |
| 20260508143511 | 11 | 235 | 12.9 | 33.8 | 0.00 | 0.00 | 0.00 | 52 | 1010.0 |
| 20260508143411 | 11 | 244 | 12.9 | 33.8 | 0.00 | 0.00 | 0.00 | 52 | 1010.0 |
| 20260508143311 | 11 | 245 | 12.9 | 33.8 | 0.00 | 0.00 | 0.00 | 52 | 1009.9 |
| 20260508143211 | 11 | 240 | 12.9 | 33.8 | 0.00 | 0.00 | 0.00 | 51 | 1010.0 |
| 20260508143111 | 11 | 232 | 14.5 | 33.8 | 0.00 | 0.00 | 0.00 | 52 | 1010.2 |
| 20260508143033 | 11 | 229 | 11.3 | 33.8 | 0.00 | 0.00 | 0.00 | 53 | 1010.1 |
| 20260508142911 | 11 | 232 | 14.5 | 33.8 | 0.00 | 0.00 | 0.00 | 52 | 1010.0 |
| 20260508142811 | 11 | 242 | 16.1 | 33.8 | 0.00 | 0.00 | 0.00 | 52 | 1010.0 |
| 20260508142711 | 11 | 247 | 19.3 | 33.8 | 0.00 | 0.00 | 0.00 | 52 | 1010.0 |
| 20260508142611 | 11 | 246 | 6.4 | 33.8 | 0.00 | 0.00 | 0.00 | 53 | 1010.0 |
| 20260508142511 | 11 | 240 | 6.4 | 33.8 | 0.00 | 0.00 | 0.00 | 53 | 1010.1 |
| 20260508142411 | 11 | 233 | 8.0 | 33.8 | 0.00 | 0.00 | 0.00 | 52 | 1010.1 |
| 20260508142311 | 10 | 233 | 11.3 | 33.8 | 0.00 | 0.00 | 0.00 | 52 | 1009.8 |
| 20260508142233 | 10 | 234 | 11.3 | 33.8 | 0.00 | 0.00 | 0.00 | 52 | 1010.1 |
| 20260508142111 | 10 | 231 | 17.7 | 33.8 | 0.00 | 0.00 | 0.00 | 52 | 1010.1 |
| 20260508142011 | 10 | 226 | 14.5 | 33.8 | 0.00 | 0.00 | 0.00 | 52 | 1010.1 |
| 20260508141911 | 10 | 219 | 12.9 | 32.2 | 0.00 | 0.00 | 0.00 | 53 | 1010.1 |
| 20260508141832 | 10 | 218 | 6.4 | 32.2 | 0.00 | 0.00 | 0.00 | 54 | 1010.2 |
| 20260508141711 | 10 | 219 | 8.0 | 35.4 | 0.00 | 0.00 | 0.00 | 54 | 1010.1 |
| 20260508141611 | 10 | 220 | 11.3 | 35.4 | 0.00 | 0.00 | 0.00 | 53 | 1010.2 |
| 20260508141511 | 10 | 226 | 11.3 | 35.4 | 0.00 | 0.00 | 0.00 | 53 | 1010.2 |
| 20260508141411 | 10 | 230 | 14.5 | 35.4 | 0.00 | 0.00 | 0.00 | 53 | 1010.2 |
| 20260508141332 | 10 | 232 | 14.5 | 35.4 | 0.00 | 0.00 | 0.00 | 53 | 1010.2 |
| 20260508141211 | 10 | 233 | 11.3 | 35.4 | 0.00 | 0.00 | 0.00 | 53 | 1010.0 |
| 20260508141111 | 10 | 239 | 16.1 | 35.4 | 0.00 | 0.00 | 0.00 | 53 | 1010.1 |
| 20260508141011 | 10 | 249 | 12.9 | 35.4 | 0.00 | 0.00 | 0.00 | 53 | 1010.2 |
| 20260508140911 | 10 | 251 | 12.9 | 35.4 | 0.00 | 0.00 | 0.00 | 53 | 1010.0 |
| 20260508140811 | 10 | 249 | 12.9 | 35.4 | 0.00 | 0.00 | 0.00 | 54 | 1010.2 |
| 20260508140711 | 10 | 250 | 17.7 | 35.4 | 0.00 | 0.00 | 0.00 | 53 | 1010.0 |
| 20260508140633 | 10 | 250 | 11.3 | 35.4 | 0.00 | 0.00 | 0.00 | 54 | 1010.2 |
| 20260508140511 | 10 | 240 | 6.4 | 35.4 | 0.00 | 0.00 | 0.00 | 55 | 1010.0 |
| 20260508140411 | 10 | 237 | 6.4 | 35.4 | 0.00 | 0.00 | 0.00 | 55 | 1010.1 |
| 20260508140311 | 10 | 230 | 11.3 | 38.6 | 0.00 | 0.00 | 0.00 | 55 | 1010.2 |
| 20260508140211 | 10 | 225 | 8.0 | 38.6 | 0.00 | 0.00 | 0.00 | 55 | 1010.0 |
| 20260508140111 | 10 | 224 | 11.3 | 38.6 | 0.00 | 0.00 | 0.00 | 54 | 1010.1 |
| 20260508140012 | 10 | 223 | 12.9 | 38.6 | 0.00 | 0.00 | 0.00 | 54 | 1010.0 |
| 20260508135932 | 10 | 226 | 20.9 | 38.6 | 0.00 | 0.00 | 0.00 | 54 | 1009.9 |
| 20260508135833 | 10 | 226 | 14.5 | 38.6 | 0.00 | 0.00 | 0.00 | 54 | 1010.1 |
| 20260508135732 | 10 | 230 | 9.7 | 38.6 | 0.00 | 0.00 | 0.00 | 55 | 1010.1 |
| 20260508135611 | 10 | 226 | 19.3 | 38.6 | 0.00 | 0.00 | 0.00 | 54 | 1010.0 |
| 20260508135511 | 10 | 233 | 12.9 | 38.6 | 0.00 | 0.00 | 0.00 | 54 | 1010.0 |
| 20260508135411 | 10 | 234 | 9.7 | 38.6 | 0.00 | 0.00 | 0.00 | 54 | 1010.1 |
| 20260508135311 | 10 | 230 | 17.7 | 38.6 | 0.00 | 0.00 | 0.00 | 54 | 1010.0 |
| 20260508135211 | 10 | 236 | 8.0 | 32.2 | 0.00 | 0.00 | 0.00 | 54 | 1010.1 |
| 20260508135111 | 10 | 237 | 8.0 | 32.2 | 0.00 | 0.00 | 0.00 | 54 | 1009.9 |
| 20260508135011 | 11 | 237 | 12.9 | 32.2 | 0.00 | 0.00 | 0.00 | 54 | 1009.9 |
| 20260508134911 | 11 | 236 | 12.9 | 32.2 | 0.00 | 0.00 | 0.00 | 53 | 1010.0 |
| 20260508134832 | 11 | 240 | 12.9 | 32.2 | 0.00 | 0.00 | 0.00 | 54 | 1009.9 |
| 20260508134711 | 11 | 238 | 6.4 | 37.0 | 0.00 | 0.00 | 0.00 | 54 | 1010.0 |
| 20260508134611 | 11 | 242 | 9.7 | 37.0 | 0.00 | 0.00 | 0.00 | 55 | 1010.0 |
| 20260508134511 | 10 | 245 | 6.4 | 40.2 | 0.00 | 0.00 | 0.00 | 55 | 1009.8 |
| 20260508134411 | 10 | 245 | 6.4 | 40.2 | 0.00 | 0.00 | 0.00 | 55 | 1009.9 |
| 20260508134311 | 10 | 247 | 17.7 | 40.2 | 0.00 | 0.00 | 0.00 | 55 | 1010.0 |
| 20260508134211 | 10 | 250 | 14.5 | 40.2 | 0.00 | 0.00 | 0.00 | 54 | 1009.9 |
| 20260508134111 | 10 | 249 | 16.1 | 40.2 | 0.00 | 0.00 | 0.00 | 54 | 1009.9 |
| 20260508134011 | 10 | 241 | 16.1 | 40.2 | 0.00 | 0.00 | 0.00 | 54 | 1009.9 |
| 20260508133933 | 10 | 241 | 14.5 | 40.2 | 0.00 | 0.00 | 0.00 | 54 | 1009.8 |
| 20260508133811 | 10 | 239 | 17.7 | 40.2 | 0.00 | 0.00 | 0.00 | 54 | 1010.0 |
| 20260508133712 | 10 | 239 | 14.5 | 40.2 | 0.00 | 0.00 | 0.00 | 54 | 1010.0 |
| 20260508133611 | 10 | 233 | 17.7 | 40.2 | 0.00 | 0.00 | 0.00 | 54 | 1009.9 |
| 20260508133512 | 10 | 225 | 17.7 | 40.2 | 0.00 | 0.00 | 0.00 | 54 | 1009.9 |
| 20260508133411 | 10 | 225 | 12.9 | 33.8 | 0.00 | 0.00 | 0.00 | 54 | 1009.6 |
| 20260508133311 | 10 | 224 | 16.1 | 33.8 | 0.00 | 0.00 | 0.00 | 54 | 1009.7 |
| 20260508133212 | 11 | 227 | 17.7 | 33.8 | 0.00 | 0.00 | 0.00 | 55 | 1010.0 |
| 20260508133111 | 11 | 225 | 14.5 | 33.8 | 0.00 | 0.00 | 0.00 | 55 | 1010.0 |
| 20260508133013 | 10 | 233 | 8.0 | 33.8 | 0.00 | 0.00 | 0.00 | 56 | 1010.0 |
| 20260508132912 | 10 | 231 | 6.4 | 33.8 | 0.00 | 0.00 | 0.00 | 56 | 1009.9 |
| 20260508132811 | 10 | 229 | 11.3 | 33.8 | 0.00 | 0.00 | 0.00 | 56 | 1009.8 |
| 20260508132711 | 10 | 229 | 9.7 | 33.8 | 0.00 | 0.00 | 0.00 | 57 | 1009.7 |
| 20260508132611 | 10 | 228 | 14.5 | 33.8 | 0.00 | 0.00 | 0.00 | 56 | 1009.8 |
| 20260508132511 | 10 | 231 | 12.9 | 32.2 | 0.00 | 0.00 | 0.00 | 56 | 1009.8 |
| 20260508132411 | 10 | 222 | 12.9 | 27.4 | 0.00 | 0.00 | 0.00 | 57 | 1009.7 |
| 20260508132311 | 10 | 222 | 12.9 | 27.4 | 0.00 | 0.00 | 0.00 | 57 | 1009.9 |
| 20260508132211 | 10 | 216 | 11.3 | 27.4 | 0.00 | 0.00 | 0.00 | 57 | 1009.7 |
| 20260508132111 | 10 | 218 | 12.9 | 27.4 | 0.00 | 0.00 | 0.00 | 57 | 1009.7 |
| 20260508132011 | 10 | 224 | 11.3 | 27.4 | 0.00 | 0.00 | 0.00 | 57 | 1009.6 |
| 20260508131911 | 10 | 224 | 6.4 | 27.4 | 0.00 | 0.00 | 0.00 | 58 | 1009.7 |
| 20260508131811 | 10 | 223 | 9.7 | 27.4 | 0.00 | 0.00 | 0.00 | 58 | 1009.7 |
| 20260508131711 | 10 | 221 | 9.7 | 27.4 | 0.00 | 0.00 | 0.00 | 58 | 1009.6 |
| 20260508131611 | 10 | 220 | 12.9 | 27.4 | 0.00 | 0.00 | 0.00 | 57 | 1009.6 |
| 20260508131511 | 10 | 223 | 12.9 | 27.4 | 0.00 | 0.00 | 0.00 | 58 | 1009.6 |
| 20260508131411 | 10 | 230 | 12.9 | 27.4 | 0.00 | 0.00 | 0.00 | 58 | 1009.7 |
| 20260508131311 | 10 | 235 | 12.9 | 27.4 | 0.00 | 0.00 | 0.00 | 58 | 1009.7 |
| 20260508131211 | 10 | 238 | 12.9 | 27.4 | 0.00 | 0.00 | 0.00 | 58 | 1009.6 |
| 20260508131111 | 10 | 234 | 12.9 | 27.4 | 0.00 | 0.00 | 0.00 | 58 | 1009.8 |
| 20260508131011 | 10 | 233 | 12.9 | 27.4 | 0.00 | 0.00 | 0.00 | 58 | 1009.7 |
| 20260508130911 | 10 | 230 | 6.4 | 27.4 | 0.00 | 0.00 | 0.00 | 59 | 1009.5 |
| 20260508130811 | 10 | 227 | 6.4 | 27.4 | 0.00 | 0.00 | 0.00 | 58 | 1009.5 |
| 20260508130711 | 10 | 232 | 6.4 | 27.4 | 0.00 | 0.00 | 0.00 | 58 | 1009.4 |
| 20260508130611 | 10 | 237 | 8.0 | 27.4 | 0.00 | 0.00 | 0.00 | 58 | 1009.3 |
| 20260508130511 | 10 | 242 | 11.3 | 32.2 | 0.00 | 0.00 | 0.00 | 58 | 1009.4 |
| 20260508130411 | 10 | 247 | 8.0 | 32.2 | 0.00 | 0.00 | 0.00 | 59 | 1009.6 |
| 20260508130311 | 10 | 244 | 16.1 | 32.2 | 0.00 | 0.00 | 0.00 | 58 | 1009.4 |
| 20260508130211 | 10 | 239 | 14.5 | 32.2 | 0.00 | 0.00 | 0.00 | 59 | 1009.6 |
| 20260508130111 | 10 | 239 | 12.9 | 32.2 | 0.00 | 0.00 | 0.00 | 59 | 1009.5 |
| 20260508130012 | 10 | 242 | 11.3 | 32.2 | 0.00 | 0.00 | 0.00 | 59 | 1009.3 |
| 20260508125911 | 9 | 240 | 12.9 | 32.2 | 0.00 | 0.00 | 0.00 | 59 | 1009.4 |
| 20260508125811 | 9 | 243 | 16.1 | 32.2 | 0.00 | 0.00 | 0.00 | 59 | 1009.3 |
| 20260508125711 | 9 | 243 | 16.1 | 32.2 | 0.00 | 0.00 | 0.00 | 59 | 1009.2 |
| 20260508125611 | 9 | 241 | 14.5 | 32.2 | 0.00 | 0.00 | 0.00 | 59 | 1009.1 |
| 20260508125511 | 9 | 239 | 16.1 | 32.2 | 0.00 | 0.00 | 0.00 | 59 | 1009.1 |
| 20260508125411 | 9 | 234 | 12.9 | 32.2 | 0.00 | 0.00 | 0.00 | 59 | 1009.0 |
| 20260508125332 | 9 | 239 | 12.9 | 32.2 | 0.00 | 0.00 | 0.00 | 59 | 1009.0 |
| 20260508125211 | 9 | 245 | 6.4 | 32.2 | 0.00 | 0.00 | 0.00 | 60 | 1009.0 |
| 20260508125111 | 9 | 245 | 12.9 | 32.2 | 0.00 | 0.00 | 0.00 | 60 | 1009.2 |
| 20260508125032 | 9 | 241 | 12.9 | 32.2 | 0.00 | 0.00 | 0.00 | 60 | 1009.1 |
| 20260508124911 | 9 | 229 | 12.9 | 32.2 | 0.00 | 0.00 | 0.00 | 60 | 1009.1 |
| 20260508124811 | 9 | 221 | 14.5 | 32.2 | 0.00 | 0.00 | 0.00 | 60 | 1009.0 |
| 20260508124711 | 9 | 210 | 11.3 | 29.0 | 0.00 | 0.00 | 0.00 | 60 | 1009.1 |
| 20260508124611 | 9 | 205 | 9.7 | 29.0 | 0.00 | 0.00 | 0.00 | 60 | 1009.0 |
| 20260508124511 | 9 | 202 | 8.0 | 29.0 | 0.00 | 0.00 | 0.00 | 61 | 1009.1 |
| 20260508124432 | 9 | 203 | 12.9 | 29.0 | 0.00 | 0.00 | 0.00 | 61 | 1009.1 |
| 20260508124311 | 9 | 196 | 14.5 | 29.0 | 0.00 | 0.00 | 0.00 | 60 | 1008.8 |
| 20260508124211 | 9 | 196 | 6.4 | 29.0 | 0.00 | 0.00 | 0.00 | 61 | 1009.0 |
| 20260508124111 | 9 | 199 | 11.3 | 29.0 | 0.00 | 0.00 | 0.00 | 61 | 1008.9 |
| 20260508124011 | 9 | 208 | 11.3 | 29.0 | 0.00 | 0.00 | 0.00 | 61 | 1009.0 |
| 20260508123911 | 9 | 211 | 16.1 | 29.0 | 0.00 | 0.00 | 0.00 | 61 | 1009.0 |
| 20260508123811 | 8 | 210 | 11.3 | 29.0 | 0.00 | 0.00 | 0.00 | 61 | 1008.8 |
| 20260508123711 | 8 | 214 | 9.7 | 25.7 | 0.00 | 0.00 | 0.00 | 61 | 1008.9 |
| 20260508123611 | 8 | 215 | 11.3 | 25.7 | 0.00 | 0.00 | 0.00 | 61 | 1008.9 |
| 20260508123532 | 8 | 215 | 12.9 | 25.7 | 0.00 | 0.00 | 0.00 | 61 | 1009.0 |
| 20260508123411 | 8 | 216 | 12.9 | 25.7 | 0.00 | 0.00 | 0.00 | 61 | 1008.8 |
| 20260508123312 | 8 | 216 | 6.4 | 25.7 | 0.00 | 0.00 | 0.00 | 62 | 1008.9 |
| 20260508123211 | 8 | 205 | 12.9 | 25.7 | 0.00 | 0.00 | 0.00 | 61 | 1009.0 |
| 20260508123111 | 8 | 203 | 12.9 | 25.7 | 0.00 | 0.00 | 0.00 | 61 | 1008.8 |
| 20260508123012 | 8 | 200 | 9.7 | 25.7 | 0.00 | 0.00 | 0.00 | 62 | 1009.0 |
| 20260508122911 | 8 | 204 | 12.9 | 25.7 | 0.00 | 0.00 | 0.00 | 62 | 1008.9 |
| 20260508122811 | 8 | 209 | 12.9 | 25.7 | 0.00 | 0.00 | 0.00 | 62 | 1008.9 |
| 20260508122711 | 8 | 206 | 12.9 | 27.4 | 0.00 | 0.00 | 0.00 | 62 | 1008.8 |
| 20260508122611 | 8 | 215 | 9.7 | 27.4 | 0.00 | 0.00 | 0.00 | 62 | 1008.9 |
| 20260508122511 | 8 | 221 | 11.3 | 27.4 | 0.00 | 0.00 | 0.00 | 62 | 1008.9 |
| 20260508122432 | 8 | 230 | 14.5 | 33.8 | 0.00 | 0.00 | 0.00 | 62 | 1009.0 |
| 20260508122311 | 8 | 230 | 12.9 | 37.0 | 0.00 | 0.00 | 0.00 | 62 | 1009.1 |
| 20260508122211 | 8 | 235 | 9.7 | 37.0 | 0.00 | 0.00 | 0.00 | 62 | 1008.9 |
| 20260508122111 | 8 | 236 | 6.4 | 37.0 | 0.00 | 0.00 | 0.00 | 62 | 1009.1 |
| 20260508122011 | 8 | 238 | 12.9 | 37.0 | 0.00 | 0.00 | 0.00 | 62 | 1009.0 |
| 20260508121933 | 8 | 234 | 11.3 | 37.0 | 0.00 | 0.00 | 0.00 | 62 | 1008.8 |
| 20260508121811 | 8 | 236 | 12.9 | 37.0 | 0.00 | 0.00 | 0.00 | 62 | 1008.9 |
| 20260508121711 | 8 | 239 | 16.1 | 37.0 | 0.00 | 0.00 | 0.00 | 62 | 1008.9 |
| 20260508121611 | 8 | 234 | 11.3 | 37.0 | 0.00 | 0.00 | 0.00 | 62 | 1009.1 |
| 20260508121532 | 8 | 234 | 9.7 | 37.0 | 0.00 | 0.00 | 0.00 | 62 | 1008.8 |
| 20260508121411 | 8 | 224 | 12.9 | 37.0 | 0.00 | 0.00 | 0.00 | 62 | 1008.8 |
| 20260508121311 | 8 | 229 | 12.9 | 27.4 | 0.00 | 0.00 | 0.00 | 62 | 1008.7 |
| 20260508121211 | 8 | 233 | 12.9 | 27.4 | 0.00 | 0.00 | 0.00 | 62 | 1008.7 |
| 20260508121111 | 8 | 230 | 12.9 | 27.4 | 0.00 | 0.00 | 0.00 | 62 | 1008.7 |
| 20260508121011 | 8 | 229 | 6.4 | 27.4 | 0.00 | 0.00 | 0.00 | 63 | 1008.8 |
| 20260508120911 | 8 | 229 | 9.7 | 32.2 | 0.00 | 0.00 | 0.00 | 63 | 1008.8 |
| 20260508120811 | 8 | 225 | 11.3 | 32.2 | 0.00 | 0.00 | 0.00 | 62 | 1008.8 |
| 20260508120711 | 8 | 225 | 16.1 | 32.2 | 0.00 | 0.00 | 0.00 | 62 | 1008.7 |
| 20260508120611 | 8 | 228 | 11.3 | 32.2 | 0.00 | 0.00 | 0.00 | 63 | 1008.8 |
| 20260508120532 | 8 | 226 | 11.3 | 32.2 | 0.00 | 0.00 | 0.00 | 63 | 1008.8 |
| 20260508120411 | 8 | 226 | 6.4 | 32.2 | 0.00 | 0.00 | 0.00 | 63 | 1008.7 |
| 20260508120311 | 8 | 229 | 6.4 | 32.2 | 0.00 | 0.00 | 0.00 | 63 | 1008.6 |
| 20260508120211 | 8 | 234 | 9.7 | 32.2 | 0.00 | 0.00 | 0.00 | 63 | 1008.5 |
| 20260508120111 | 7 | 240 | 6.4 | 32.2 | 0.00 | 0.00 | 0.00 | 63 | 1008.6 |
| 20260508120012 | 7 | 240 | 9.7 | 32.2 | 0.00 | 0.00 | 0.00 | 63 | 1008.5 |
| 20260508115911 | 7 | 237 | 12.9 | 32.2 | 0.00 | 0.00 | 0.00 | 63 | 1008.6 |
| 20260508115811 | 7 | 240 | 9.7 | 29.0 | 0.00 | 0.00 | 0.00 | 64 | 1008.8 |
| 20260508115711 | 7 | 246 | 6.4 | 29.0 | 0.00 | 0.00 | 0.00 | 64 | 1008.5 |
| 20260508115611 | 7 | 248 | 9.7 | 29.0 | 0.00 | 0.00 | 0.00 | 64 | 1008.6 |
| 20260508115511 | 7 | 252 | 12.9 | 29.0 | 0.00 | 0.00 | 0.00 | 63 | 1008.5 |
| 20260508115411 | 7 | 255 | 11.3 | 22.5 | 0.00 | 0.00 | 0.00 | 64 | 1008.7 |
| 20260508115311 | 7 | 258 | 11.3 | 22.5 | 0.00 | 0.00 | 0.00 | 64 | 1008.4 |
| 20260508115211 | 7 | 251 | 11.3 | 22.5 | 0.00 | 0.00 | 0.00 | 64 | 1008.6 |
| 20260508115111 | 7 | 252 | 11.3 | 22.5 | 0.00 | 0.00 | 0.00 | 64 | 1008.7 |
| 20260508115033 | 7 | 252 | 11.3 | 22.5 | 0.00 | 0.00 | 0.00 | 64 | 1008.5 |
| 20260508114911 | 7 | 260 | 11.3 | 22.5 | 0.00 | 0.00 | 0.00 | 64 | 1008.6 |
| 20260508114811 | 7 | 266 | 9.7 | 22.5 | 0.00 | 0.00 | 0.00 | 64 | 1008.6 |
| 20260508114711 | 7 | 268 | 9.7 | 27.4 | 0.00 | 0.00 | 0.00 | 64 | 1008.5 |
| 20260508114611 | 7 | 262 | 8.0 | 27.4 | 0.00 | 0.00 | 0.00 | 64 | 1008.7 |
| 20260508114511 | 7 | 261 | 6.4 | 27.4 | 0.00 | 0.00 | 0.00 | 64 | 1008.7 |
| 20260508114411 | 7 | 258 | 8.0 | 27.4 | 0.00 | 0.00 | 0.00 | 64 | 1008.7 |
| 20260508114311 | 7 | 258 | 8.0 | 27.4 | 0.00 | 0.00 | 0.00 | 64 | 1008.6 |
| 20260508114211 | 7 | 256 | 11.3 | 27.4 | 0.00 | 0.00 | 0.00 | 64 | 1008.6 |
| 20260508114112 | 7 | 248 | 9.7 | 27.4 | 0.00 | 0.00 | 0.00 | 64 | 1008.7 |
| 20260508114011 | 7 | 245 | 6.4 | 27.4 | 0.00 | 0.00 | 0.00 | 64 | 1008.5 |
| 20260508113911 | 7 | 240 | 8.0 | 27.4 | 0.00 | 0.00 | 0.00 | 64 | 1008.7 |
| 20260508113832 | 7 | 239 | 8.0 | 27.4 | 0.00 | 0.00 | 0.00 | 64 | 1008.7 |
| 20260508113711 | 7 | 231 | 16.1 | 25.7 | 0.00 | 0.00 | 0.00 | 64 | 1008.6 |
| 20260508113611 | 7 | 239 | 8.0 | 25.7 | 0.00 | 0.00 | 0.00 | 65 | 1008.6 |
| 20260508113511 | 7 | 240 | 12.9 | 27.4 | 0.00 | 0.00 | 0.00 | 64 | 1008.5 |
| 20260508113412 | 7 | 247 | 6.4 | 27.4 | 0.00 | 0.00 | 0.00 | 64 | 1008.6 |
| 20260508113311 | 7 | 245 | 9.7 | 27.4 | 0.00 | 0.00 | 0.00 | 64 | 1008.7 |
| 20260508113211 | 7 | 245 | 9.7 | 27.4 | 0.00 | 0.00 | 0.00 | 64 | 1008.6 |
| 20260508113111 | 7 | 250 | 6.4 | 27.4 | 0.00 | 0.00 | 0.00 | 64 | 1008.6 |
| 20260508113012 | 7 | 252 | 9.7 | 27.4 | 0.00 | 0.00 | 0.00 | 64 | 1008.5 |
| 20260508112911 | 7 | 256 | 16.1 | 27.4 | 0.00 | 0.00 | 0.00 | 64 | 1008.6 |
| 20260508112811 | 7 | 258 | 9.7 | 27.4 | 0.00 | 0.00 | 0.00 | 65 | 1008.5 |
| 20260508112711 | 7 | 258 | 6.4 | 27.4 | 0.00 | 0.00 | 0.00 | 65 | 1008.6 |
| 20260508112632 | 7 | 256 | 9.7 | 27.4 | 0.00 | 0.00 | 0.00 | 65 | 1008.4 |
| 20260508112511 | 7 | 255 | 9.7 | 24.1 | 0.00 | 0.00 | 0.00 | 65 | 1008.5 |
| 20260508112411 | 7 | 255 | 14.5 | 24.1 | 0.00 | 0.00 | 0.00 | 65 | 1008.5 |
| 20260508112333 | 7 | 251 | 8.0 | 22.5 | 0.00 | 0.00 | 0.00 | 65 | 1008.6 |
| 20260508112232 | 7 | 248 | 12.9 | 22.5 | 0.00 | 0.00 | 0.00 | 65 | 1008.5 |
| 20260508112111 | 7 | 247 | 6.4 | 22.5 | 0.00 | 0.00 | 0.00 | 66 | 1008.6 |
| 20260508112012 | 7 | 248 | 6.4 | 22.5 | 0.00 | 0.00 | 0.00 | 66 | 1008.5 |
| 20260508111911 | 7 | 245 | 6.4 | 22.5 | 0.00 | 0.00 | 0.00 | 66 | 1008.5 |
| 20260508111811 | 7 | 246 | 9.7 | 22.5 | 0.00 | 0.00 | 0.00 | 66 | 1008.5 |
| 20260508111711 | 6 | 245 | 11.3 | 25.7 | 0.00 | 0.00 | 0.00 | 66 | 1008.6 |
| 20260508111611 | 6 | 247 | 11.3 | 25.7 | 0.00 | 0.00 | 0.00 | 66 | 1008.5 |
| 20260508111511 | 6 | 244 | 8.0 | 25.7 | 0.00 | 0.00 | 0.00 | 66 | 1008.4 |
| 20260508111411 | 6 | 237 | 8.0 | 25.7 | 0.00 | 0.00 | 0.00 | 66 | 1008.4 |
| 20260508111311 | 6 | 237 | 11.3 | 25.7 | 0.00 | 0.00 | 0.00 | 67 | 1008.4 |
| 20260508111211 | 6 | 238 | 12.9 | 25.7 | 0.00 | 0.00 | 0.00 | 67 | 1008.4 |
| 20260508111133 | 6 | 236 | 11.3 | 25.7 | 0.00 | 0.00 | 0.00 | 67 | 1008.4 |
| 20260508111011 | 6 | 238 | 6.4 | 25.7 | 0.00 | 0.00 | 0.00 | 67 | 1008.3 |
| 20260508110911 | 6 | 241 | 11.3 | 25.7 | 0.00 | 0.00 | 0.00 | 67 | 1008.5 |
| 20260508110811 | 6 | 241 | 9.7 | 25.7 | 0.00 | 0.00 | 0.00 | 67 | 1008.3 |
| 20260508110711 | 6 | 236 | 11.3 | 25.7 | 0.00 | 0.00 | 0.00 | 67 | 1008.4 |
| 20260508110611 | 6 | 233 | 9.7 | 25.7 | 0.00 | 0.00 | 0.00 | 67 | 1008.5 |
| 20260508110511 | 6 | 230 | 8.0 | 25.7 | 0.00 | 0.00 | 0.00 | 67 | 1008.5 |
| 20260508110411 | 6 | 235 | 8.0 | 25.7 | 0.00 | 0.00 | 0.00 | 67 | 1008.5 |
| 20260508110333 | 6 | 238 | 6.4 | 25.7 | 0.00 | 0.00 | 0.00 | 67 | 1008.3 |
| 20260508110211 | 6 | 244 | 9.7 | 25.7 | 0.00 | 0.00 | 0.00 | 67 | 1008.4 |
| 20260508110111 | 6 | 250 | 6.4 | 25.7 | 0.00 | 0.00 | 0.00 | 67 | 1008.3 |
| 20260508110012 | 6 | 245 | 9.7 | 25.7 | 0.00 | 0.00 | 0.00 | 67 | 1008.2 |
| 20260508105911 | 6 | 239 | 9.7 | 25.7 | 0.00 | 0.00 | 0.00 | 67 | 1008.3 |
| 20260508105811 | 6 | 245 | 12.9 | 25.7 | 0.00 | 0.00 | 0.00 | 67 | 1008.3 |
| 20260508105712 | 6 | 255 | 6.4 | 22.5 | 0.00 | 0.00 | 0.00 | 67 | 1008.2 |
| 20260508105611 | 6 | 257 | 11.3 | 22.5 | 0.00 | 0.00 | 0.00 | 67 | 1008.1 |
| 20260508105511 | 6 | 261 | 11.3 | 22.5 | 0.00 | 0.00 | 0.00 | 67 | 1008.2 |
| 20260508105411 | 6 | 255 | 6.4 | 22.5 | 0.00 | 0.00 | 0.00 | 67 | 1008.1 |
| 20260508105311 | 6 | 249 | 6.4 | 22.5 | 0.00 | 0.00 | 0.00 | 67 | 1008.1 |
| 20260508105211 | 6 | 246 | 8.0 | 22.5 | 0.00 | 0.00 | 0.00 | 67 | 1008.3 |
| 20260508105111 | 6 | 239 | 8.0 | 22.5 | 0.00 | 0.00 | 0.00 | 67 | 1008.1 |
| 20260508105011 | 6 | 245 | 8.0 | 22.5 | 0.00 | 0.00 | 0.00 | 67 | 1008.1 |
| 20260508104911 | 6 | 251 | 9.7 | 24.1 | 0.00 | 0.00 | 0.00 | 67 | 1008.2 |
| 20260508104811 | 6 | 240 | 9.7 | 24.1 | 0.00 | 0.00 | 0.00 | 67 | 1008.1 |
| 20260508104711 | 6 | 237 | 9.7 | 29.0 | 0.00 | 0.00 | 0.00 | 67 | 1008.1 |
| 20260508104633 | 6 | 240 | 6.4 | 29.0 | 0.00 | 0.00 | 0.00 | 67 | 1008.1 |
| 20260508104511 | 6 | 227 | 8.0 | 29.0 | 0.00 | 0.00 | 0.00 | 67 | 1008.1 |
| 20260508104411 | 6 | 228 | 9.7 | 29.0 | 0.00 | 0.00 | 0.00 | 67 | 1008.0 |
| 20260508104311 | 6 | 238 | 8.0 | 29.0 | 0.00 | 0.00 | 0.00 | 68 | 1008.0 |
| 20260508104232 | 6 | 241 | 9.7 | 29.0 | 0.00 | 0.00 | 0.00 | 68 | 1008.0 |
| 20260508104111 | 6 | 231 | 8.0 | 29.0 | 0.00 | 0.00 | 0.00 | 68 | 1008.1 |
| 20260508104011 | 6 | 240 | 9.7 | 29.0 | 0.00 | 0.00 | 0.00 | 67 | 1007.9 |
| 20260508103932 | 6 | 234 | 12.9 | 29.0 | 0.00 | 0.00 | 0.00 | 68 | 1007.9 |
| 20260508103811 | 6 | 239 | 9.7 | 29.0 | 0.00 | 0.00 | 0.00 | 68 | 1008.0 |
| 20260508103711 | 6 | 243 | 12.9 | 29.0 | 0.00 | 0.00 | 0.00 | 68 | 1008.0 |
| 20260508103611 | 6 | 249 | 8.0 | 29.0 | 0.00 | 0.00 | 0.00 | 68 | 1008.0 |
| 20260508103511 | 6 | 270 | 8.0 | 29.0 | 0.00 | 0.00 | 0.00 | 68 | 1008.0 |
| 20260508103432 | 6 | 272 | 12.9 | 29.0 | 0.00 | 0.00 | 0.00 | 68 | 1008.0 |
| 20260508103311 | 6 | 262 | 6.4 | 24.1 | 0.00 | 0.00 | 0.00 | 68 | 1008.0 |
| 20260508103211 | 6 | 252 | 9.7 | 24.1 | 0.00 | 0.00 | 0.00 | 68 | 1008.0 |
| 20260508103132 | 6 | 258 | 9.7 | 24.1 | 0.00 | 0.00 | 0.00 | 68 | 1007.9 |
| 20260508103033 | 6 | 271 | 11.3 | 24.1 | 0.00 | 0.00 | 0.00 | 68 | 1008.0 |
| 20260508102911 | 6 | 267 | 6.4 | 22.5 | 0.00 | 0.00 | 0.00 | 68 | 1008.0 |
| 20260508102811 | 6 | 272 | 6.4 | 24.1 | 0.00 | 0.00 | 0.00 | 68 | 1007.8 |
| 20260508102732 | 6 | 254 | 6.4 | 24.1 | 0.00 | 0.00 | 0.00 | 68 | 1007.9 |
| 20260508102611 | 6 | 248 | 8.0 | 24.1 | 0.00 | 0.00 | 0.00 | 68 | 1008.0 |
| 20260508102532 | 6 | 247 | 8.0 | 24.1 | 0.00 | 0.00 | 0.00 | 68 | 1008.0 |
| 20260508102411 | 6 | 249 | 8.0 | 24.1 | 0.00 | 0.00 | 0.00 | 68 | 1007.9 |
| 20260508102311 | 6 | 253 | 6.4 | 24.1 | 0.00 | 0.00 | 0.00 | 68 | 1007.8 |
| 20260508102211 | 6 | 253 | 8.0 | 24.1 | 0.00 | 0.00 | 0.00 | 68 | 1007.9 |
| 20260508102111 | 6 | 251 | 12.9 | 24.1 | 0.00 | 0.00 | 0.00 | 68 | 1007.8 |
| 20260508102011 | 6 | 243 | 6.4 | 24.1 | 0.00 | 0.00 | 0.00 | 68 | 1008.0 |
| 20260508101911 | 6 | 244 | 6.4 | 38.6 | 0.00 | 0.00 | 0.00 | 68 | 1007.9 |
| 20260508101812 | 6 | 247 | 9.7 | 38.6 | 0.00 | 0.00 | 0.00 | 68 | 1007.8 |
| 20260508101711 | 6 | 254 | 6.4 | 38.6 | 0.00 | 0.00 | 0.00 | 68 | 1008.0 |
| 20260508101611 | 6 | 249 | 9.7 | 38.6 | 0.00 | 0.00 | 0.00 | 68 | 1007.8 |
| 20260508101511 | 6 | 244 | 11.3 | 38.6 | 0.00 | 0.00 | 0.00 | 68 | 1008.0 |
| 20260508101411 | 6 | 240 | 8.0 | 38.6 | 0.00 | 0.00 | 0.00 | 68 | 1007.8 |
| 20260508101311 | 6 | 235 | 6.4 | 38.6 | 0.00 | 0.00 | 0.00 | 67 | 1007.8 |
| 20260508101211 | 6 | 241 | 6.4 | 38.6 | 0.00 | 0.00 | 0.00 | 67 | 1007.9 |
| 20260508101111 | 6 | 245 | 11.3 | 38.6 | 0.00 | 0.00 | 0.00 | 67 | 1007.7 |
| 20260508101011 | 6 | 250 | 11.3 | 38.6 | 0.00 | 0.00 | 0.00 | 67 | 1007.8 |
| 20260508100911 | 6 | 248 | 14.5 | 38.6 | 0.00 | 0.00 | 0.00 | 67 | 1007.7 |
| 20260508100811 | 6 | 238 | 9.7 | 25.7 | 0.00 | 0.00 | 0.00 | 67 | 1007.7 |
| 20260508100711 | 6 | 236 | 12.9 | 25.7 | 0.00 | 0.00 | 0.00 | 67 | 1007.6 |
| 20260508100632 | 6 | 237 | 9.7 | 25.7 | 0.00 | 0.00 | 0.00 | 67 | 1007.5 |
| 20260508100532 | 6 | 246 | 8.0 | 25.7 | 0.00 | 0.00 | 0.00 | 67 | 1007.7 |
| 20260508100411 | 6 | 248 | 9.7 | 25.7 | 0.00 | 0.00 | 0.00 | 67 | 1007.7 |
| 20260508100311 | 6 | 255 | 6.4 | 24.1 | 0.00 | 0.00 | 0.00 | 67 | 1007.6 |
| 20260508100211 | 6 | 255 | 8.0 | 24.1 | 0.00 | 0.00 | 0.00 | 67 | 1007.7 |
| 20260508100111 | 6 | 255 | 14.5 | 32.2 | 0.00 | 0.00 | 0.00 | 67 | 1007.6 |
| 20260508100012 | 6 | 246 | 9.7 | 32.2 | 0.00 | 0.00 | 0.00 | 67 | 1007.8 |
| 20260508095911 | 6 | 241 | 8.0 | 32.2 | 0.00 | 0.00 | 0.00 | 67 | 1007.6 |
| 20260508095811 | 6 | 244 | 6.4 | 32.2 | 0.00 | 0.00 | 0.00 | 67 | 1007.7 |
| 20260508095711 | 6 | 242 | 6.4 | 32.2 | 0.00 | 0.00 | 0.00 | 67 | 1007.6 |
| 20260508095611 | 6 | 241 | 9.7 | 32.2 | 0.00 | 0.00 | 0.00 | 67 | 1007.7 |
| 20260508095511 | 6 | 235 | 11.3 | 32.2 | 0.00 | 0.00 | 0.00 | 67 | 1007.8 |
| 20260508095411 | 6 | 236 | 12.9 | 32.2 | 0.00 | 0.00 | 0.00 | 67 | 1007.7 |
| 20260508095311 | 6 | 231 | 9.7 | 32.2 | 0.00 | 0.00 | 0.00 | 67 | 1007.7 |
| 20260508095233 | 6 | 233 | 6.4 | 32.2 | 0.00 | 0.00 | 0.00 | 67 | 1007.8 |
| 20260508095111 | 6 | 224 | 12.9 | 32.2 | 0.00 | 0.00 | 0.00 | 67 | 1007.9 |
| 20260508095032 | 6 | 222 | 11.3 | 24.1 | 0.00 | 0.00 | 0.00 | 67 | 1007.9 |
| 20260508094911 | 6 | 232 | 6.4 | 22.5 | 0.00 | 0.00 | 0.00 | 67 | 1007.9 |
| 20260508094811 | 6 | 228 | 6.4 | 22.5 | 0.00 | 0.00 | 0.00 | 67 | 1007.9 |
| 20260508094711 | 6 | 227 | 11.3 | 22.5 | 0.00 | 0.00 | 0.00 | 67 | 1007.8 |
| 20260508094632 | 6 | 225 | 9.7 | 22.5 | 0.00 | 0.00 | 0.00 | 67 | 1007.7 |
| 20260508094511 | 6 | 226 | 8.0 | 22.5 | 0.00 | 0.00 | 0.00 | 67 | 1007.8 |
| 20260508094411 | 6 | 223 | 8.0 | 22.5 | 0.00 | 0.00 | 0.00 | 67 | 1007.7 |
| 20260508094311 | 6 | 225 | 9.7 | 22.5 | 0.00 | 0.00 | 0.00 | 67 | 1007.7 |
| 20260508094211 | 6 | 227 | 8.0 | 22.5 | 0.00 | 0.00 | 0.00 | 67 | 1007.7 |
| 20260508094133 | 6 | 233 | 8.0 | 22.5 | 0.00 | 0.00 | 0.00 | 67 | 1007.7 |
| 20260508094011 | 6 | 239 | 6.4 | 22.5 | 0.00 | 0.00 | 0.00 | 67 | 1007.8 |
| 20260508093911 | 6 | 239 | 9.7 | 22.5 | 0.00 | 0.00 | 0.00 | 67 | 1007.8 |
| 20260508093811 | 6 | 241 | 9.7 | 22.5 | 0.00 | 0.00 | 0.00 | 67 | 1007.7 |
| 20260508093711 | 6 | 246 | 11.3 | 22.5 | 0.00 | 0.00 | 0.00 | 67 | 1007.9 |
| 20260508093612 | 7 | 256 | 11.3 | 22.5 | 0.00 | 0.00 | 0.00 | 67 | 1007.8 |
| 20260508093511 | 7 | 260 | 11.3 | 22.5 | 0.00 | 0.00 | 0.00 | 67 | 1007.7 |
| 20260508093411 | 7 | 260 | 8.0 | 22.5 | 0.00 | 0.00 | 0.00 | 66 | 1007.7 |
| 20260508093314 | 7 | 262 | 12.9 | 22.5 | 0.00 | 0.00 | 0.00 | 67 | 1007.6 |
| 20260508093211 | 7 | 260 | 11.3 | 22.5 | 0.00 | 0.00 | 0.00 | 67 | 1007.6 |
| 20260508093111 | 7 | 257 | 9.7 | 22.5 | 0.00 | 0.00 | 0.00 | 67 | 1007.7 |
| 20260508093011 | 7 | 258 | 11.3 | 22.5 | 0.00 | 0.00 | 0.00 | 67 | 1007.9 |
| 20260508092911 | 7 | 263 | 6.4 | 22.5 | 0.00 | 0.00 | 0.00 | 67 | 1007.8 |
| 20260508092811 | 7 | 260 | 9.7 | 22.5 | 0.00 | 0.00 | 0.00 | 67 | 1007.7 |
| 20260508092711 | 7 | 259 | 9.7 | 22.5 | 0.00 | 0.00 | 0.00 | 67 | 1007.7 |
| 20260508092611 | 7 | 251 | 9.7 | 22.5 | 0.00 | 0.00 | 0.00 | 67 | 1007.9 |
| 20260508092511 | 7 | 249 | 6.4 | 22.5 | 0.00 | 0.00 | 0.00 | 67 | 1007.7 |
| 20260508092411 | 7 | 251 | 8.0 | 22.5 | 0.00 | 0.00 | 0.00 | 67 | 1007.8 |
| 20260508092313 | 7 | 247 | 6.4 | 27.4 | 0.00 | 0.00 | 0.00 | 67 | 1007.8 |
| 20260508092211 | 7 | 242 | 9.7 | 27.4 | 0.00 | 0.00 | 0.00 | 67 | 1007.8 |
| 20260508092111 | 7 | 236 | 8.0 | 27.4 | 0.00 | 0.00 | 0.00 | 67 | 1007.8 |
| 20260508092011 | 7 | 236 | 11.3 | 27.4 | 0.00 | 0.00 | 0.00 | 67 | 1007.7 |
| 20260508091911 | 7 | 238 | 9.7 | 27.4 | 0.00 | 0.00 | 0.00 | 67 | 1007.6 |
| 20260508091832 | 7 | 240 | 12.9 | 27.4 | 0.00 | 0.00 | 0.00 | 67 | 1007.7 |
| 20260508091711 | 7 | 242 | 9.7 | 27.4 | 0.00 | 0.00 | 0.00 | 67 | 1007.6 |
| 20260508091611 | 7 | 239 | 12.9 | 32.2 | 0.00 | 0.00 | 0.00 | 67 | 1007.6 |
| 20260508091511 | 7 | 241 | 8.0 | 32.2 | 0.00 | 0.00 | 0.00 | 67 | 1007.6 |
| 20260508091411 | 7 | 236 | 12.9 | 32.2 | 0.00 | 0.00 | 0.00 | 67 | 1007.4 |
| 20260508091332 | 7 | 234 | 12.9 | 32.2 | 0.00 | 0.00 | 0.00 | 67 | 1007.4 |
| 20260508091211 | 6 | 238 | 12.9 | 32.2 | 0.00 | 0.00 | 0.00 | 68 | 1007.4 |
| 20260508091133 | 6 | 244 | 12.9 | 32.2 | 0.00 | 0.00 | 0.00 | 68 | 1007.5 |
| 20260508091011 | 6 | 242 | 8.0 | 32.2 | 0.00 | 0.00 | 0.00 | 68 | 1007.6 |
| 20260508090911 | 6 | 242 | 9.7 | 32.2 | 0.00 | 0.00 | 0.00 | 68 | 1007.2 |
| 20260508090833 | 6 | 238 | 11.3 | 32.2 | 0.00 | 0.00 | 0.00 | 68 | 1007.4 |
| 20260508090711 | 6 | 231 | 12.9 | 32.2 | 0.00 | 0.00 | 0.00 | 68 | 1007.3 |
| 20260508090612 | 6 | 231 | 14.5 | 22.5 | 0.00 | 0.00 | 0.00 | 69 | 1007.3 |
| 20260508090511 | 6 | 226 | 12.9 | 22.5 | 0.00 | 0.00 | 0.00 | 69 | 1007.4 |
| 20260508090411 | 6 | 229 | 6.4 | 17.7 | 0.00 | 0.00 | 0.00 | 69 | 1007.4 |
| 20260508090311 | 6 | 238 | 8.0 | 20.9 | 0.00 | 0.00 | 0.00 | 69 | 1007.2 |
| 20260508090211 | 6 | 239 | 11.3 | 25.7 | 0.00 | 0.00 | 0.00 | 70 | 1007.1 |
| 20260508090111 | 6 | 238 | 9.7 | 25.7 | 0.00 | 0.00 | 0.00 | 70 | 1007.5 |
| 20260508090012 | 6 | 240 | 12.9 | 25.7 | 0.00 | 0.00 | 0.00 | 70 | 1007.3 |
| 20260508085911 | 6 | 245 | 11.3 | 25.7 | 0.00 | 0.00 | 0.00 | 70 | 1007.3 |
| 20260508085811 | 6 | 247 | 6.4 | 25.7 | 0.00 | 0.00 | 0.00 | 70 | 1007.4 |
| 20260508085711 | 6 | 246 | 12.9 | 25.7 | 0.00 | 0.00 | 0.00 | 70 | 1007.1 |
| 20260508085611 | 6 | 246 | 9.7 | 25.7 | 0.00 | 0.00 | 0.00 | 70 | 1007.2 |
| 20260508085533 | 6 | 247 | 11.3 | 25.7 | 0.00 | 0.00 | 0.00 | 71 | 1007.1 |
| 20260508085411 | 6 | 250 | 9.7 | 25.7 | 0.00 | 0.00 | 0.00 | 71 | 1007.1 |
| 20260508085311 | 6 | 247 | 9.7 | 25.7 | 0.00 | 0.00 | 0.00 | 71 | 1007.3 |
| 20260508085211 | 6 | 251 | 11.3 | 25.7 | 0.00 | 0.00 | 0.00 | 71 | 1007.1 |
| 20260508085111 | 6 | 250 | 12.9 | 24.1 | 0.00 | 0.00 | 0.00 | 71 | 1007.2 |
| 20260508085011 | 6 | 252 | 12.9 | 22.5 | 0.00 | 0.00 | 0.00 | 71 | 1007.1 |
| 20260508084911 | 6 | 243 | 12.9 | 22.5 | 0.00 | 0.00 | 0.00 | 71 | 1007.2 |
| 20260508084832 | 6 | 238 | 9.7 | 22.5 | 0.00 | 0.00 | 0.00 | 71 | 1007.2 |
| 20260508084711 | 6 | 246 | 12.9 | 22.5 | 0.00 | 0.00 | 0.00 | 72 | 1007.2 |
| 20260508084611 | 6 | 245 | 8.0 | 22.5 | 0.00 | 0.00 | 0.00 | 72 | 1007.3 |
| 20260508084511 | 6 | 247 | 4.8 | 22.5 | 0.00 | 0.00 | 0.00 | 71 | 1007.2 |
| 20260508084411 | 6 | 254 | 6.4 | 22.5 | 0.00 | 0.00 | 0.00 | 71 | 1007.1 |
| 20260508084311 | 6 | 252 | 6.4 | 22.5 | 0.00 | 0.00 | 0.00 | 71 | 1007.3 |
| 20260508084211 | 6 | 251 | 6.4 | 22.5 | 0.00 | 0.00 | 0.00 | 71 | 1007.2 |
| 20260508084111 | 6 | 249 | 11.3 | 24.1 | 0.00 | 0.00 | 0.00 | 71 | 1007.2 |
| 20260508084033 | 6 | 245 | 11.3 | 25.7 | 0.00 | 0.00 | 0.00 | 71 | 1007.2 |
| 20260508083911 | 6 | 245 | 11.3 | 25.7 | 0.00 | 0.00 | 0.00 | 71 | 1007.3 |
| 20260508083811 | 6 | 246 | 11.3 | 25.7 | 0.00 | 0.00 | 0.00 | 71 | 1007.2 |
| 20260508083711 | 6 | 246 | 11.3 | 25.7 | 0.00 | 0.00 | 0.00 | 70 | 1007.1 |
| 20260508083611 | 6 | 249 | 11.3 | 25.7 | 0.00 | 0.00 | 0.00 | 70 | 1007.2 |
| 20260508083532 | 6 | 252 | 9.7 | 25.7 | 0.00 | 0.00 | 0.00 | 70 | 1007.2 |
| 20260508083411 | 6 | 244 | 14.5 | 25.7 | 0.00 | 0.00 | 0.00 | 70 | 1007.1 |
| 20260508083311 | 6 | 248 | 12.9 | 25.7 | 0.00 | 0.00 | 0.00 | 70 | 1007.1 |
| 20260508083211 | 7 | 249 | 8.0 | 25.7 | 0.00 | 0.00 | 0.00 | 70 | 1007.2 |
| 20260508083132 | 7 | 252 | 14.5 | 25.7 | 0.00 | 0.00 | 0.00 | 70 | 1007.0 |
| 20260508083012 | 7 | 257 | 11.3 | 27.4 | 0.00 | 0.00 | 0.00 | 70 | 1007.2 |
| 20260508082933 | 7 | 257 | 11.3 | 27.4 | 0.00 | 0.00 | 0.00 | 70 | 1007.2 |
| 20260508082811 | 7 | 265 | 9.7 | 27.4 | 0.00 | 0.00 | 0.00 | 70 | 1007.0 |
| 20260508082732 | 7 | 261 | 12.9 | 27.4 | 0.00 | 0.00 | 0.00 | 70 | 1007.1 |
| 20260508082611 | 7 | 251 | 6.4 | 27.4 | 0.00 | 0.00 | 0.00 | 70 | 1007.0 |
| 20260508082511 | 7 | 252 | 9.7 | 27.4 | 0.00 | 0.00 | 0.00 | 70 | 1007.1 |
| 20260508082411 | 7 | 260 | 12.9 | 27.4 | 0.00 | 0.00 | 0.00 | 70 | 1007.1 |
| 20260508082332 | 7 | 259 | 11.3 | 27.4 | 0.00 | 0.00 | 0.00 | 71 | 1007.0 |
| 20260508082211 | 7 | 258 | 12.9 | 27.4 | 0.00 | 0.00 | 0.00 | 71 | 1007.1 |
| 20260508082111 | 7 | 251 | 11.3 | 33.8 | 0.00 | 0.00 | 0.00 | 71 | 1007.2 |
| 20260508082011 | 7 | 252 | 12.9 | 33.8 | 0.00 | 0.00 | 0.00 | 71 | 1007.1 |
| 20260508081911 | 6 | 256 | 12.9 | 33.8 | 0.00 | 0.00 | 0.00 | 71 | 1007.0 |
| 20260508081811 | 6 | 246 | 12.9 | 33.8 | 0.00 | 0.00 | 0.00 | 71 | 1007.2 |
| 20260508081711 | 6 | 253 | 11.3 | 33.8 | 0.00 | 0.00 | 0.00 | 72 | 1007.2 |
| 20260508081611 | 6 | 263 | 6.4 | 33.8 | 0.00 | 0.00 | 0.00 | 72 | 1007.2 |
| 20260508081511 | 6 | 261 | 11.3 | 33.8 | 0.00 | 0.00 | 0.00 | 72 | 1007.0 |
| 20260508081411 | 6 | 260 | 6.4 | 33.8 | 0.00 | 0.00 | 0.00 | 72 | 1007.3 |
| 20260508081311 | 6 | 259 | 8.0 | 33.8 | 0.00 | 0.00 | 0.00 | 72 | 1007.2 |
| 20260508081211 | 6 | 258 | 12.9 | 33.8 | 0.00 | 0.00 | 0.00 | 72 | 1007.2 |
| 20260508081111 | 6 | 261 | 12.9 | 33.8 | 0.00 | 0.00 | 0.00 | 72 | 1007.1 |
| 20260508081033 | 6 | 263 | 9.7 | 29.0 | 0.00 | 0.00 | 0.00 | 72 | 1007.1 |
| 20260508080911 | 6 | 265 | 6.4 | 29.0 | 0.00 | 0.00 | 0.00 | 72 | 1007.2 |
| 20260508080811 | 6 | 262 | 12.9 | 29.0 | 0.00 | 0.00 | 0.00 | 72 | 1007.3 |
| 20260508080711 | 6 | 267 | 11.3 | 29.0 | 0.00 | 0.00 | 0.00 | 72 | 1007.2 |
| 20260508080611 | 7 | 266 | 9.7 | 29.0 | 0.00 | 0.00 | 0.00 | 72 | 1007.1 |
| 20260508080533 | 7 | 266 | 9.7 | 29.0 | 0.00 | 0.00 | 0.00 | 72 | 1007.1 |
| 20260508080411 | 7 | 265 | 12.9 | 29.0 | 0.00 | 0.00 | 0.00 | 72 | 1007.1 |
| 20260508080311 | 7 | 261 | 12.9 | 24.1 | 0.00 | 0.00 | 0.00 | 72 | 1007.0 |
| 20260508080211 | 7 | 260 | 6.4 | 22.5 | 0.00 | 0.00 | 0.00 | 71 | 1007.1 |
| 20260508080133 | 7 | 262 | 6.4 | 22.5 | 0.00 | 0.00 | 0.00 | 71 | 1007.1 |
| 20260508080012 | 7 | 264 | 9.7 | 22.5 | 0.00 | 0.00 | 0.00 | 71 | 1007.1 |
| 20260508075911 | 7 | 262 | 12.9 | 22.5 | 0.00 | 0.00 | 0.00 | 70 | 1007.0 |
| 20260508075811 | 7 | 263 | 9.7 | 17.7 | 0.00 | 0.00 | 0.00 | 70 | 1007.0 |
| 20260508075711 | 7 | 258 | 6.4 | 17.7 | 0.00 | 0.00 | 0.00 | 69 | 1007.1 |
| 20260508075611 | 7 | 255 | 8.0 | 17.7 | 0.00 | 0.00 | 0.00 | 69 | 1007.0 |
| 20260508075511 | 7 | 259 | 12.9 | 25.7 | 0.00 | 0.00 | 0.00 | 69 | 1007.2 |
| 20260508075411 | 7 | 269 | 11.3 | 25.7 | 0.00 | 0.00 | 0.00 | 69 | 1007.0 |
| 20260508075311 | 7 | 272 | 6.4 | 25.7 | 0.00 | 0.00 | 0.00 | 69 | 1007.0 |
| 20260508075211 | 7 | 268 | 9.7 | 25.7 | 0.00 | 0.00 | 0.00 | 68 | 1006.9 |
| 20260508075111 | 7 | 263 | 8.0 | 25.7 | 0.00 | 0.00 | 0.00 | 68 | 1007.1 |
| 20260508075011 | 7 | 256 | 8.0 | 25.7 | 0.00 | 0.00 | 0.00 | 68 | 1007.0 |
| 20260508074911 | 7 | 256 | 6.4 | 25.7 | 0.00 | 0.00 | 0.00 | 68 | 1007.0 |
| 20260508074811 | 7 | 261 | 9.7 | 25.7 | 0.00 | 0.00 | 0.00 | 68 | 1007.1 |
| 20260508074732 | 7 | 264 | 9.7 | 25.7 | 0.00 | 0.00 | 0.00 | 68 | 1006.9 |
| 20260508074611 | 7 | 268 | 11.3 | 25.7 | 0.00 | 0.00 | 0.00 | 69 | 1006.9 |
| 20260508074511 | 7 | 261 | 12.9 | 24.1 | 0.00 | 0.00 | 0.00 | 69 | 1007.0 |
| 20260508074411 | 7 | 256 | 8.0 | 24.1 | 0.00 | 0.00 | 0.00 | 70 | 1007.0 |
| 20260508074311 | 7 | 251 | 6.4 | 24.1 | 0.00 | 0.00 | 0.00 | 70 | 1006.9 |
| 20260508074211 | 7 | 252 | 8.0 | 24.1 | 0.00 | 0.00 | 0.00 | 71 | 1007.0 |
| 20260508074111 | 7 | 255 | 8.0 | 24.1 | 0.00 | 0.00 | 0.00 | 71 | 1006.9 |
| 20260508074011 | 7 | 260 | 8.0 | 24.1 | 0.00 | 0.00 | 0.00 | 71 | 1007.0 |
| 20260508073932 | 7 | 260 | 12.9 | 24.1 | 0.00 | 0.00 | 0.00 | 72 | 1007.0 |
| 20260508073811 | 7 | 255 | 6.4 | 24.1 | 0.00 | 0.00 | 0.00 | 72 | 1007.1 |
| 20260508073711 | 7 | 255 | 9.7 | 24.1 | 0.00 | 0.00 | 0.00 | 72 | 1007.1 |
| 20260508073632 | 7 | 253 | 12.9 | 24.1 | 0.00 | 0.00 | 0.00 | 72 | 1007.1 |
| 20260508073511 | 7 | 261 | 8.0 | 17.7 | 0.00 | 0.00 | 0.00 | 72 | 1007.2 |
| 20260508073411 | 7 | 260 | 11.3 | 17.7 | 0.00 | 0.00 | 0.00 | 72 | 1007.2 |
| 20260508073332 | 7 | 263 | 11.3 | 17.7 | 0.00 | 0.00 | 0.00 | 72 | 1007.2 |
| 20260508073211 | 7 | 268 | 6.4 | 17.7 | 0.00 | 0.00 | 0.00 | 73 | 1007.2 |
| 20260508073111 | 7 | 269 | 6.4 | 17.7 | 0.00 | 0.00 | 0.00 | 73 | 1007.2 |
| 20260508073012 | 7 | 267 | 6.4 | 17.7 | 0.00 | 0.00 | 0.00 | 73 | 1007.4 |
| 20260508072911 | 7 | 262 | 6.4 | 20.9 | 0.00 | 0.00 | 0.00 | 73 | 1007.3 |
| 20260508072833 | 7 | 257 | 8.0 | 20.9 | 0.00 | 0.00 | 0.00 | 73 | 1007.2 |
| 20260508072732 | 7 | 253 | 8.0 | 20.9 | 0.00 | 0.00 | 0.00 | 73 | 1007.3 |
| 20260508072611 | 7 | 249 | 9.7 | 20.9 | 0.00 | 0.00 | 0.00 | 73 | 1007.4 |
| 20260508072511 | 7 | 246 | 8.0 | 20.9 | 0.00 | 0.00 | 0.00 | 73 | 1007.4 |
| 20260508072411 | 7 | 248 | 8.0 | 20.9 | 0.00 | 0.00 | 0.00 | 73 | 1007.2 |
| 20260508072332 | 7 | 251 | 8.0 | 20.9 | 0.00 | 0.00 | 0.00 | 73 | 1007.4 |
| 20260508072211 | 7 | 250 | 11.3 | 20.9 | 0.00 | 0.00 | 0.00 | 73 | 1007.4 |
| 20260508072111 | 7 | 251 | 4.8 | 20.9 | 0.00 | 0.00 | 0.00 | 73 | 1007.4 |
| 20260508072011 | 7 | 255 | 8.0 | 20.9 | 0.00 | 0.00 | 0.00 | 73 | 1007.5 |
| 20260508071911 | 7 | 266 | 9.7 | 22.5 | 0.00 | 0.00 | 0.00 | 73 | 1007.3 |
| 20260508071811 | 7 | 273 | 9.7 | 22.5 | 0.00 | 0.00 | 0.00 | 73 | 1007.4 |
| 20260508071732 | 7 | 275 | 9.7 | 22.5 | 0.00 | 0.00 | 0.00 | 73 | 1007.4 |
| 20260508071611 | 7 | 280 | 8.0 | 22.5 | 0.00 | 0.00 | 0.00 | 73 | 1007.4 |
| 20260508071532 | 7 | 281 | 4.8 | 22.5 | 0.00 | 0.00 | 0.00 | 73 | 1007.4 |
| 20260508071411 | 7 | 281 | 9.7 | 22.5 | 0.00 | 0.00 | 0.00 | 73 | 1007.6 |
| 20260508071311 | 7 | 280 | 9.7 | 22.5 | 0.00 | 0.00 | 0.00 | 73 | 1007.7 |
| 20260508071211 | 7 | 280 | 6.4 | 22.5 | 0.00 | 0.00 | 0.00 | 73 | 1007.6 |
| 20260508071111 | 7 | 280 | 8.0 | 22.5 | 0.00 | 0.00 | 0.00 | 73 | 1007.7 |
| 20260508071011 | 7 | 279 | 8.0 | 22.5 | 0.00 | 0.00 | 0.00 | 73 | 1007.6 |
| 20260508070911 | 7 | 275 | 8.0 | 17.7 | 0.00 | 0.00 | 0.00 | 73 | 1007.5 |
| 20260508070811 | 7 | 272 | 6.4 | 17.7 | 0.00 | 0.00 | 0.00 | 73 | 1007.5 |
| 20260508070732 | 7 | 270 | 8.0 | 17.7 | 0.00 | 0.00 | 0.00 | 73 | 1007.7 |
| 20260508070611 | 7 | 267 | 8.0 | 17.7 | 0.00 | 0.00 | 0.00 | 73 | 1007.5 |
| 20260508070511 | 7 | 263 | 9.7 | 17.7 | 0.00 | 0.00 | 0.00 | 73 | 1007.8 |
| 20260508070433 | 7 | 260 | 6.4 | 20.9 | 0.00 | 0.00 | 0.00 | 73 | 1007.6 |
| 20260508070311 | 7 | 258 | 6.4 | 20.9 | 0.00 | 0.00 | 0.00 | 73 | 1007.6 |
| 20260508070211 | 7 | 257 | 4.8 | 20.9 | 0.00 | 0.00 | 0.00 | 73 | 1007.6 |
| 20260508070132 | 7 | 256 | 4.8 | 20.9 | 0.00 | 0.00 | 0.00 | 73 | 1007.6 |
| 20260508070011 | 7 | 258 | 6.4 | 20.9 | 0.00 | 0.00 | 0.00 | 74 | 1007.7 |
| 20260508065911 | 7 | 258 | 6.4 | 20.9 | 0.00 | 0.00 | 0.00 | 74 | 1007.6 |
| 20260508065811 | 7 | 266 | 6.4 | 20.9 | 0.00 | 0.00 | 0.00 | 74 | 1007.6 |
| 20260508065711 | 7 | 267 | 4.8 | 20.9 | 0.00 | 0.00 | 0.00 | 74 | 1007.7 |
| 20260508065632 | 7 | 267 | 6.4 | 20.9 | 0.00 | 0.00 | 0.00 | 73 | 1007.7 |
| 20260508065511 | 7 | 268 | 6.4 | 20.9 | 0.00 | 0.00 | 0.00 | 73 | 1007.8 |
| 20260508065411 | 7 | 264 | 6.4 | 17.7 | 0.00 | 0.00 | 0.00 | 74 | 1007.8 |
| 20260508065311 | 7 | 267 | 6.4 | 17.7 | 0.00 | 0.00 | 0.00 | 73 | 1007.7 |
| 20260508065233 | 7 | 265 | 6.4 | 17.7 | 0.00 | 0.00 | 0.00 | 74 | 1007.9 |
| 20260508065111 | 7 | 258 | 6.4 | 17.7 | 0.00 | 0.00 | 0.00 | 74 | 1007.7 |
| 20260508065011 | 7 | 255 | 4.8 | 17.7 | 0.00 | 0.00 | 0.00 | 74 | 1007.8 |
| 20260508064911 | 7 | 258 | 8.0 | 17.7 | 0.00 | 0.00 | 0.00 | 74 | 1007.7 |
| 20260508064811 | 7 | 255 | 6.4 | 17.7 | 0.00 | 0.00 | 0.00 | 74 | 1007.8 |
| 20260508064711 | 7 | 251 | 8.0 | 17.7 | 0.00 | 0.00 | 0.00 | 74 | 1007.8 |
| 20260508064632 | 7 | 249 | 6.4 | 17.7 | 0.00 | 0.00 | 0.00 | 74 | 1007.9 |
| 20260508064511 | 7 | 248 | 9.7 | 17.7 | 0.00 | 0.00 | 0.00 | 74 | 1007.9 |
| 20260508064411 | 7 | 247 | 4.8 | 17.7 | 0.00 | 0.00 | 0.00 | 74 | 1007.8 |
| 20260508064311 | 8 | 246 | 6.4 | 17.7 | 0.00 | 0.00 | 0.00 | 74 | 1007.8 |
| 20260508064211 | 8 | 249 | 6.4 | 17.7 | 0.00 | 0.00 | 0.00 | 74 | 1007.8 |
| 20260508064111 | 8 | 250 | 4.8 | 17.7 | 0.00 | 0.00 | 0.00 | 74 | 1007.9 |
| 20260508064011 | 8 | 249 | 6.4 | 17.7 | 0.00 | 0.00 | 0.00 | 73 | 1007.9 |
| 20260508063911 | 8 | 242 | 6.4 | 17.7 | 0.00 | 0.00 | 0.00 | 73 | 1007.8 |
| 20260508063832 | 8 | 238 | 8.0 | 17.7 | 0.00 | 0.00 | 0.00 | 73 | 1007.9 |
| 20260508063711 | 8 | 235 | 9.7 | 17.7 | 0.00 | 0.00 | 0.00 | 73 | 1007.7 |
| 20260508063611 | 8 | 234 | 8.0 | 17.7 | 0.00 | 0.00 | 0.00 | 73 | 1007.8 |
| 20260508063532 | 8 | 232 | 6.4 | 17.7 | 0.00 | 0.00 | 0.00 | 73 | 1008.0 |
| 20260508063411 | 8 | 229 | 6.4 | 17.7 | 0.00 | 0.00 | 0.00 | 73 | 1007.8 |
| 20260508063311 | 8 | 229 | 6.4 | 17.7 | 0.00 | 0.00 | 0.00 | 73 | 1007.8 |
| 20260508063211 | 8 | 223 | 6.4 | 17.7 | 0.00 | 0.00 | 0.00 | 73 | 1007.8 |
| 20260508063111 | 8 | 226 | 8.0 | 17.7 | 0.00 | 0.00 | 0.00 | 73 | 1007.8 |
| 20260508063033 | 8 | 229 | 6.4 | 17.7 | 0.00 | 0.00 | 0.00 | 73 | 1007.7 |
| 20260508062911 | 8 | 231 | 6.4 | 17.7 | 0.00 | 0.00 | 0.00 | 73 | 1007.8 |
| 20260508062811 | 8 | 232 | 9.7 | 17.7 | 0.00 | 0.00 | 0.00 | 73 | 1007.8 |
| 20260508062711 | 8 | 231 | 6.4 | 17.7 | 0.00 | 0.00 | 0.00 | 73 | 1007.9 |
| 20260508062611 | 8 | 228 | 6.4 | 17.7 | 0.00 | 0.00 | 0.00 | 73 | 1007.8 |
| 20260508062511 | 8 | 226 | 6.4 | 17.7 | 0.00 | 0.00 | 0.00 | 73 | 1007.8 |
| 20260508062411 | 8 | 226 | 4.8 | 17.7 | 0.00 | 0.00 | 0.00 | 73 | 1007.9 |
| 20260508062332 | 8 | 222 | 6.4 | 17.7 | 0.00 | 0.00 | 0.00 | 73 | 1008.0 |
| 20260508062211 | 8 | 225 | 8.0 | 17.7 | 0.00 | 0.00 | 0.00 | 72 | 1008.0 |
| 20260508062111 | 8 | 222 | 6.4 | 17.7 | 0.00 | 0.00 | 0.00 | 72 | 1007.8 |
| 20260508062011 | 8 | 217 | 6.4 | 17.7 | 0.00 | 0.00 | 0.00 | 72 | 1007.8 |
| 20260508061911 | 8 | 220 | 9.7 | 17.7 | 0.00 | 0.00 | 0.00 | 72 | 1007.9 |
| 20260508061811 | 8 | 227 | 6.4 | 17.7 | 0.00 | 0.00 | 0.00 | 72 | 1007.8 |
| 20260508061711 | 8 | 225 | 8.0 | 17.7 | 0.00 | 0.00 | 0.00 | 72 | 1007.8 |
| 20260508061611 | 8 | 234 | 8.0 | 17.7 | 0.00 | 0.00 | 0.00 | 72 | 1007.8 |
| 20260508061511 | 8 | 237 | 6.4 | 17.7 | 0.00 | 0.00 | 0.00 | 72 | 1007.6 |
| 20260508061432 | 8 | 242 | 8.0 | 17.7 | 0.00 | 0.00 | 0.00 | 72 | 1007.8 |
| 20260508061311 | 8 | 253 | 6.4 | 17.7 | 0.00 | 0.00 | 0.00 | 72 | 1007.8 |
| 20260508061232 | 8 | 253 | 6.4 | 17.7 | 0.00 | 0.00 | 0.00 | 71 | 1007.6 |
| 20260508061111 | 8 | 252 | 6.4 | 17.7 | 0.00 | 0.00 | 0.00 | 71 | 1007.9 |
| 20260508061011 | 8 | 253 | 8.0 | 17.7 | 0.00 | 0.00 | 0.00 | 71 | 1007.5 |
| 20260508060911 | 8 | 250 | 9.7 | 17.7 | 0.00 | 0.00 | 0.00 | 71 | 1007.8 |
| 20260508060811 | 8 | 250 | 9.7 | 17.7 | 0.00 | 0.00 | 0.00 | 71 | 1007.7 |
| 20260508060711 | 8 | 248 | 11.3 | 17.7 | 0.00 | 0.00 | 0.00 | 71 | 1007.8 |
| 20260508060611 | 8 | 248 | 11.3 | 17.7 | 0.00 | 0.00 | 0.00 | 71 | 1007.8 |
| 20260508060511 | 8 | 249 | 9.7 | 24.1 | 0.00 | 0.00 | 0.00 | 71 | 1007.7 |
| 20260508060411 | 8 | 234 | 8.0 | 24.1 | 0.00 | 0.00 | 0.00 | 72 | 1007.7 |
| 20260508060332 | 8 | 234 | 11.3 | 24.1 | 0.00 | 0.00 | 0.00 | 72 | 1007.7 |
| 20260508060211 | 8 | 234 | 8.0 | 24.1 | 0.00 | 0.00 | 0.00 | 72 | 1007.8 |
| 20260508060111 | 8 | 235 | 6.4 | 24.1 | 0.00 | 0.00 | 0.00 | 72 | 1007.7 |
| 20260508060033 | 8 | 236 | 6.4 | 24.1 | 0.00 | 0.00 | 0.00 | 72 | 1007.9 |
| 20260508055911 | 8 | 245 | 9.7 | 24.1 | 0.00 | 0.00 | 0.00 | 72 | 1007.8 |
| 20260508055811 | 8 | 231 | 4.8 | 24.1 | 0.00 | 0.00 | 0.00 | 72 | 1007.7 |
| 20260508055733 | 8 | 231 | 4.8 | 24.1 | 0.00 | 0.00 | 0.00 | 72 | 1007.7 |
| 20260508055611 | 8 | 233 | 8.0 | 24.1 | 0.00 | 0.00 | 0.00 | 71 | 1007.8 |
| 20260508055511 | 8 | 224 | 11.3 | 24.1 | 0.00 | 0.00 | 0.00 | 71 | 1007.9 |
| 20260508055411 | 8 | 233 | 6.4 | 22.5 | 0.00 | 0.00 | 0.00 | 71 | 1007.7 |
| 20260508055311 | 8 | 224 | 6.4 | 22.5 | 0.00 | 0.00 | 0.00 | 71 | 1007.6 |
| 20260508055211 | 8 | 243 | 9.7 | 27.4 | 0.00 | 0.00 | 0.00 | 71 | 1007.7 |
| 20260508055111 | 8 | 254 | 12.9 | 27.4 | 0.00 | 0.00 | 0.00 | 71 | 1007.7 |
| 20260508055011 | 9 | 242 | 8.0 | 27.4 | 0.00 | 0.00 | 0.00 | 71 | 1007.8 |
| 20260508054911 | 9 | 233 | 8.0 | 27.4 | 0.00 | 0.00 | 0.00 | 71 | 1007.9 |
| 20260508054811 | 9 | 256 | 4.8 | 27.4 | 0.00 | 0.00 | 0.00 | 71 | 1007.7 |
| 20260508054711 | 9 | 273 | 6.4 | 27.4 | 0.00 | 0.00 | 0.00 | 71 | 1007.9 |
| 20260508054611 | 9 | 266 | 12.9 | 27.4 | 0.00 | 0.00 | 0.00 | 70 | 1007.7 |
| 20260508054511 | 9 | 263 | 11.3 | 27.4 | 0.00 | 0.00 | 0.00 | 71 | 1007.8 |
| 20260508054411 | 9 | 268 | 6.4 | 27.4 | 0.00 | 0.00 | 0.00 | 71 | 1007.9 |
| 20260508054311 | 9 | 266 | 12.9 | 27.4 | 0.00 | 0.00 | 0.00 | 71 | 1007.8 |
| 20260508054211 | 9 | 259 | 11.3 | 24.1 | 0.00 | 0.00 | 0.00 | 71 | 1007.7 |
| 20260508054111 | 9 | 258 | 6.4 | 24.1 | 0.00 | 0.00 | 0.00 | 71 | 1007.8 |
| 20260508054011 | 9 | 263 | 9.7 | 24.1 | 0.00 | 0.00 | 0.00 | 71 | 1007.9 |
| 20260508053911 | 9 | 267 | 9.7 | 24.1 | 0.00 | 0.00 | 0.00 | 71 | 1007.7 |
| 20260508053811 | 9 | 258 | 9.7 | 24.1 | 0.00 | 0.00 | 0.00 | 71 | 1007.8 |
| 20260508053732 | 9 | 252 | 9.7 | 24.1 | 0.00 | 0.00 | 0.00 | 71 | 1007.8 |
| 20260508053611 | 9 | 247 | 6.4 | 22.5 | 0.00 | 0.00 | 0.00 | 72 | 1008.0 |
| 20260508053533 | 9 | 253 | 12.9 | 22.5 | 0.00 | 0.00 | 0.00 | 72 | 1007.7 |
| 20260508053411 | 9 | 245 | 12.9 | 22.5 | 0.00 | 0.00 | 0.00 | 72 | 1007.7 |
| 20260508053311 | 9 | 247 | 11.3 | 17.7 | 0.00 | 0.00 | 0.00 | 73 | 1007.8 |
| 20260508053211 | 9 | 247 | 8.0 | 17.7 | 0.00 | 0.00 | 0.00 | 73 | 1007.7 |
| 20260508053111 | 9 | 242 | 8.0 | 17.7 | 0.00 | 0.00 | 0.00 | 73 | 1007.8 |
| 20260508053033 | 9 | 241 | 6.4 | 17.7 | 0.00 | 0.00 | 0.00 | 73 | 1007.8 |
| 20260508052911 | 9 | 232 | 6.4 | 17.7 | 0.00 | 0.00 | 0.00 | 73 | 1007.9 |
| 20260508052833 | 9 | 238 | 6.4 | 17.7 | 0.00 | 0.00 | 0.00 | 73 | 1007.7 |
| 20260508052711 | 9 | 241 | 11.3 | 17.7 | 0.00 | 0.00 | 0.00 | 73 | 1007.8 |
| 20260508052611 | 9 | 247 | 8.0 | 17.7 | 0.00 | 0.00 | 0.00 | 73 | 1007.9 |
| 20260508052511 | 9 | 241 | 12.9 | 17.7 | 0.00 | 0.00 | 0.00 | 73 | 1007.7 |
| 20260508052411 | 9 | 245 | 11.3 | 17.7 | 0.00 | 0.00 | 0.00 | 74 | 1007.7 |
| 20260508052311 | 9 | 248 | 6.4 | 17.7 | 0.00 | 0.00 | 0.00 | 74 | 1007.9 |
| 20260508052211 | 9 | 250 | 9.7 | 17.7 | 0.00 | 0.00 | 0.00 | 74 | 1007.8 |
| 20260508052111 | 9 | 250 | 12.9 | 17.7 | 0.00 | 0.00 | 0.00 | 74 | 1007.8 |
| 20260508052032 | 9 | 249 | 6.4 | 17.7 | 0.00 | 0.00 | 0.00 | 74 | 1007.9 |
| 20260508051932 | 9 | 246 | 6.4 | 17.7 | 0.00 | 0.00 | 0.00 | 74 | 1007.7 |
| 20260508051832 | 9 | 247 | 6.4 | 20.9 | 0.00 | 0.00 | 0.00 | 74 | 1008.0 |
| 20260508051711 | 9 | 248 | 9.7 | 20.9 | 0.00 | 0.00 | 0.00 | 74 | 1007.7 |
| 20260508051611 | 9 | 241 | 8.0 | 20.9 | 0.00 | 0.00 | 0.00 | 75 | 1007.7 |
| 20260508051511 | 9 | 243 | 4.8 | 20.9 | 0.00 | 0.00 | 0.00 | 75 | 1007.8 |
| 20260508051411 | 9 | 238 | 6.4 | 20.9 | 0.00 | 0.00 | 0.00 | 75 | 1007.6 |
| 20260508051332 | 9 | 235 | 6.4 | 20.9 | 0.00 | 0.00 | 0.00 | 75 | 1007.6 |
| 20260508051211 | 9 | 234 | 6.4 | 20.9 | 0.00 | 0.00 | 0.00 | 75 | 1007.8 |
| 20260508051111 | 9 | 234 | 6.4 | 20.9 | 0.00 | 0.00 | 0.00 | 75 | 1007.8 |
| 20260508051011 | 9 | 238 | 9.7 | 20.9 | 0.00 | 0.00 | 0.00 | 76 | 1007.8 |
| 20260508050932 | 9 | 245 | 9.7 | 22.5 | 0.00 | 0.00 | 0.00 | 76 | 1007.8 |
| 20260508050811 | 9 | 249 | 11.3 | 22.5 | 0.00 | 0.00 | 0.00 | 76 | 1007.9 |
| 20260508050711 | 9 | 250 | 6.4 | 24.1 | 0.00 | 0.00 | 0.00 | 76 | 1007.7 |
| 20260508050632 | 9 | 252 | 6.4 | 24.1 | 0.00 | 0.00 | 0.00 | 76 | 1007.5 |
| 20260508050511 | 9 | 256 | 4.8 | 24.1 | 0.00 | 0.00 | 0.00 | 76 | 1007.6 |
| 20260508050411 | 9 | 259 | 6.4 | 24.1 | 0.00 | 0.00 | 0.00 | 76 | 1007.7 |
| 20260508050311 | 9 | 261 | 8.0 | 24.1 | 0.00 | 0.00 | 0.00 | 76 | 1007.6 |
| 20260508050211 | 9 | 261 | 6.4 | 24.1 | 0.00 | 0.00 | 0.00 | 76 | 1007.7 |
| 20260508050111 | 9 | 264 | 8.0 | 24.1 | 0.00 | 0.00 | 0.00 | 76 | 1007.7 |
| 20260508050012 | 9 | 263 | 6.4 | 24.1 | 0.00 | 0.00 | 0.00 | 77 | 1007.6 |
| 20260508045911 | 9 | 254 | 12.9 | 24.1 | 0.00 | 0.00 | 0.00 | 77 | 1007.5 |
| 20260508045811 | 9 | 248 | 9.7 | 24.1 | 0.00 | 0.03 | 0.00 | 77 | 1007.4 |
| 20260508045711 | 9 | 247 | 12.9 | 24.1 | 0.00 | 0.03 | 0.00 | 77 | 1007.5 |
| 20260508045611 | 9 | 245 | 4.8 | 17.7 | 0.00 | 0.03 | 0.00 | 77 | 1007.6 |
| 20260508045532 | 9 | 242 | 8.0 | 20.9 | 0.00 | 0.03 | 0.00 | 78 | 1007.7 |
| 20260508045411 | 9 | 234 | 6.4 | 20.9 | 0.00 | 0.03 | 0.00 | 77 | 1007.7 |
| 20260508045311 | 9 | 230 | 6.4 | 20.9 | 0.00 | 0.03 | 0.00 | 77 | 1007.7 |
| 20260508045211 | 9 | 236 | 6.4 | 22.5 | 0.00 | 0.03 | 0.00 | 77 | 1007.7 |
| 20260508045111 | 9 | 237 | 8.0 | 22.5 | 0.00 | 0.03 | 0.00 | 77 | 1007.5 |
| 20260508045011 | 9 | 235 | 8.0 | 22.5 | 0.00 | 0.03 | 0.00 | 77 | 1007.6 |
| 20260508044911 | 9 | 240 | 8.0 | 22.5 | 0.00 | 0.03 | 0.00 | 78 | 1007.7 |
| 20260508044811 | 9 | 243 | 8.0 | 22.5 | 0.00 | 0.03 | 0.00 | 78 | 1007.6 |
| 20260508044711 | 9 | 244 | 6.4 | 22.5 | 0.00 | 0.03 | 0.00 | 78 | 1007.6 |
| 20260508044611 | 9 | 246 | 8.0 | 22.5 | 0.00 | 0.03 | 0.00 | 78 | 1007.6 |
| 20260508044532 | 9 | 248 | 8.0 | 22.5 | 0.00 | 0.03 | 0.00 | 78 | 1007.6 |
| 20260508044411 | 9 | 251 | 8.0 | 22.5 | 0.00 | 0.03 | 0.00 | 78 | 1007.7 |
| 20260508044311 | 9 | 256 | 8.0 | 22.5 | 0.00 | 0.03 | 0.00 | 78 | 1007.7 |
| 20260508044211 | 9 | 253 | 6.4 | 20.9 | 0.00 | 0.03 | 0.00 | 78 | 1007.6 |
| 20260508044132 | 9 | 252 | 6.4 | 20.9 | 0.00 | 0.03 | 0.00 | 78 | 1007.6 |
| 20260508044011 | 8 | 256 | 8.0 | 20.9 | 0.00 | 0.03 | 0.00 | 78 | 1007.6 |
| 20260508043911 | 8 | 254 | 6.4 | 20.9 | 0.00 | 0.03 | 0.00 | 79 | 1007.6 |
| 20260508043811 | 8 | 253 | 8.0 | 20.9 | 0.00 | 0.03 | 0.00 | 79 | 1007.6 |
| 20260508043711 | 8 | 255 | 11.3 | 20.9 | 0.00 | 0.03 | 0.00 | 79 | 1007.7 |
| 20260508043611 | 8 | 257 | 11.3 | 20.9 | 0.00 | 0.03 | 0.00 | 79 | 1007.6 |
| 20260508043511 | 8 | 257 | 8.0 | 22.5 | 0.00 | 0.03 | 0.00 | 79 | 1007.6 |
| 20260508043411 | 8 | 254 | 6.4 | 22.5 | 0.00 | 0.03 | 0.00 | 79 | 1007.6 |
| 20260508043311 | 8 | 254 | 11.3 | 22.5 | 0.00 | 0.03 | 0.00 | 79 | 1007.7 |
| 20260508043232 | 8 | 256 | 6.4 | 22.5 | 0.00 | 0.03 | 0.00 | 79 | 1007.8 |
| 20260508043111 | 9 | 258 | 6.4 | 22.5 | 0.00 | 0.03 | 0.00 | 79 | 1007.8 |
| 20260508043012 | 9 | 259 | 8.0 | 22.5 | 0.00 | 0.03 | 0.00 | 79 | 1007.8 |
| 20260508042911 | 9 | 259 | 11.3 | 22.5 | 0.00 | 0.03 | 0.00 | 79 | 1007.8 |
| 20260508042832 | 9 | 261 | 6.4 | 22.5 | 0.00 | 0.03 | 0.00 | 79 | 1007.6 |
| 20260508042711 | 9 | 262 | 6.4 | 22.5 | 0.00 | 0.03 | 0.00 | 79 | 1007.8 |
| 20260508042611 | 9 | 264 | 6.4 | 22.5 | 0.00 | 0.03 | 0.00 | 79 | 1007.8 |
| 20260508042511 | 9 | 266 | 14.5 | 22.5 | 0.00 | 0.03 | 0.00 | 79 | 1007.7 |
| 20260508042411 | 9 | 270 | 11.3 | 22.5 | 0.00 | 0.05 | 0.00 | 79 | 1007.8 |
| 20260508042311 | 9 | 267 | 8.0 | 22.5 | 0.00 | 0.05 | 0.00 | 79 | 1007.7 |
| 20260508042211 | 9 | 267 | 12.9 | 22.5 | 0.00 | 0.20 | 0.00 | 79 | 1007.7 |
| 20260508042111 | 9 | 268 | 9.7 | 22.5 | 0.00 | 0.30 | 0.00 | 80 | 1008.0 |
| 20260508042011 | 9 | 269 | 11.3 | 22.5 | 0.00 | 0.43 | 0.00 | 80 | 1007.7 |
| 20260508041911 | 9 | 273 | 12.9 | 22.5 | 0.00 | 0.56 | 0.00 | 80 | 1007.9 |
| 20260508041811 | 9 | 270 | 8.0 | 20.9 | 0.00 | 0.86 | 0.00 | 80 | 1007.7 |
| 20260508041711 | 9 | 270 | 6.4 | 20.9 | 0.00 | 0.97 | 0.00 | 80 | 1007.7 |
| 20260508041611 | 9 | 265 | 8.0 | 22.5 | 0.00 | 1.09 | 0.00 | 80 | 1007.8 |
| 20260508041532 | 9 | 261 | 8.0 | 22.5 | 0.00 | 1.19 | 0.00 | 80 | 1007.9 |
| 20260508041432 | 9 | 264 | 11.3 | 22.5 | 0.00 | 1.37 | 0.00 | 80 | 1007.7 |
| 20260508041311 | 9 | 274 | 6.4 | 22.5 | 0.00 | 1.45 | 0.00 | 80 | 1007.7 |
| 20260508041211 | 9 | 272 | 9.7 | 22.5 | 0.00 | 1.55 | 0.00 | 80 | 1007.8 |
| 20260508041111 | 9 | 266 | 6.4 | 24.1 | 0.00 | 1.65 | 0.00 | 80 | 1007.8 |
| 20260508041018 | 9 | 264 | 6.4 | 24.1 | 0.00 | 1.80 | 0.00 | 80 | 1007.8 |
| 20260508040911 | 9 | 261 | 11.3 | 24.1 | 0.00 | 1.85 | 0.00 | 80 | 1007.7 |
| 20260508040811 | 9 | 262 | 6.4 | 24.1 | 0.00 | 1.88 | 0.00 | 80 | 1007.7 |
| 20260508040711 | 9 | 262 | 6.4 | 24.1 | 0.00 | 2.01 | 0.00 | 80 | 1007.7 |
| 20260508040611 | 9 | 261 | 12.9 | 24.1 | 0.00 | 2.13 | 0.00 | 80 | 1007.9 |
| 20260508040511 | 9 | 260 | 9.7 | 24.1 | 0.00 | 2.21 | 0.00 | 80 | 1007.8 |
| 20260508040432 | 9 | 253 | 6.4 | 24.1 | 0.00 | 2.31 | 0.00 | 80 | 1007.7 |
| 20260508040311 | 9 | 249 | 8.0 | 24.1 | 0.00 | 2.31 | 0.00 | 80 | 1007.8 |
| 20260508040211 | 9 | 248 | 12.9 | 24.1 | 0.00 | 2.36 | 0.00 | 80 | 1007.6 |
| 20260508040111 | 9 | 250 | 6.4 | 17.7 | 0.00 | 2.44 | 0.00 | 80 | 1007.6 |
| 20260508040012 | 9 | 252 | 3.2 | 17.7 | 0.00 | 2.46 | 0.00 | 80 | 1007.6 |
| 20260508035933 | 9 | 254 | 6.4 | 17.7 | 0.00 | 2.49 | 0.00 | 80 | 1007.6 |
| 20260508035811 | 9 | 251 | 8.0 | 17.7 | 0.00 | 2.54 | 0.00 | 80 | 1007.7 |
| 20260508035711 | 9 | 248 | 6.4 | 17.7 | 0.00 | 2.59 | 0.00 | 80 | 1007.8 |
| 20260508035611 | 9 | 249 | 6.4 | 17.7 | 0.00 | 2.62 | 0.00 | 80 | 1007.6 |
| 20260508035511 | 9 | 252 | 9.7 | 17.7 | 0.00 | 2.64 | 0.00 | 80 | 1007.6 |
| 20260508035411 | 9 | 249 | 6.4 | 17.7 | 0.00 | 2.64 | 0.00 | 80 | 1007.6 |
| 20260508035311 | 9 | 245 | 6.4 | 17.7 | 0.00 | 2.67 | 0.00 | 80 | 1007.6 |
| 20260508035232 | 9 | 241 | 6.4 | 17.7 | 0.00 | 2.67 | 0.00 | 80 | 1007.6 |
| 20260508035111 | 9 | 237 | 6.4 | 17.7 | 0.00 | 2.67 | 0.00 | 80 | 1007.6 |
| 20260508035011 | 10 | 237 | 6.4 | 17.7 | 0.00 | 2.67 | 0.00 | 80 | 1007.5 |
| 20260508034911 | 10 | 235 | 6.4 | 17.7 | 0.00 | 2.67 | 0.00 | 80 | 1007.5 |
| 20260508034811 | 10 | 236 | 6.4 | 17.7 | 0.00 | 2.67 | 0.00 | 80 | 1007.5 |
| 20260508034711 | 10 | 241 | 6.4 | 17.7 | 0.00 | 2.67 | 0.00 | 80 | 1007.4 |
| 20260508034611 | 10 | 242 | 8.0 | 17.7 | 0.00 | 2.67 | 0.00 | 79 | 1007.5 |
| 20260508034532 | 10 | 243 | 8.0 | 17.7 | 0.00 | 2.67 | 0.00 | 79 | 1007.5 |
| 20260508034411 | 10 | 249 | 4.8 | 17.7 | 0.00 | 2.69 | 0.00 | 79 | 1007.6 |
| 20260508034311 | 10 | 252 | 8.0 | 17.7 | 0.00 | 2.69 | 0.00 | 79 | 1007.3 |
| 20260508034211 | 10 | 256 | 6.4 | 17.7 | 0.00 | 2.69 | 0.00 | 79 | 1007.5 |
| 20260508034111 | 10 | 260 | 4.8 | 17.7 | 0.00 | 2.69 | 0.00 | 79 | 1007.4 |
| 20260508034011 | 10 | 259 | 4.8 | 17.7 | 0.00 | 2.69 | 0.00 | 79 | 1007.4 |
| 20260508033911 | 10 | 265 | 6.4 | 17.7 | 0.00 | 2.69 | 0.00 | 79 | 1007.5 |
| 20260508033832 | 10 | 267 | 6.4 | 17.7 | 0.00 | 2.69 | 0.00 | 79 | 1007.4 |
| 20260508033711 | 10 | 268 | 6.4 | 17.7 | 0.00 | 2.69 | 0.00 | 79 | 1007.5 |
| 20260508033611 | 10 | 269 | 9.7 | 17.7 | 0.00 | 2.69 | 0.00 | 79 | 1007.5 |
| 20260508033511 | 10 | 265 | 8.0 | 17.7 | 0.00 | 2.69 | 0.00 | 79 | 1007.2 |
| 20260508033411 | 10 | 266 | 6.4 | 17.7 | 0.00 | 2.69 | 0.00 | 79 | 1007.4 |
| 20260508033311 | 10 | 264 | 6.4 | 17.7 | 0.00 | 2.69 | 0.00 | 79 | 1007.4 |
| 20260508033232 | 10 | 268 | 6.4 | 17.7 | 0.00 | 2.69 | 0.00 | 79 | 1007.5 |
| 20260508033111 | 10 | 263 | 4.8 | 17.7 | 0.00 | 2.69 | 0.00 | 79 | 1007.4 |
| 20260508033011 | 10 | 264 | 9.7 | 17.7 | 0.00 | 2.69 | 0.00 | 79 | 1007.1 |
| 20260508032911 | 10 | 260 | 6.4 | 17.7 | 0.00 | 2.69 | 0.00 | 79 | 1007.4 |
| 20260508032811 | 10 | 255 | 8.0 | 14.5 | 0.00 | 2.69 | 0.00 | 79 | 1007.2 |
| 20260508032711 | 10 | 254 | 6.4 | 14.5 | 0.00 | 2.69 | 0.00 | 79 | 1007.3 |
| 20260508032632 | 10 | 254 | 3.2 | 14.5 | 0.00 | 2.69 | 0.00 | 79 | 1007.3 |
| 20260508032511 | 10 | 252 | 4.8 | 14.5 | 0.00 | 2.69 | 0.00 | 79 | 1007.3 |
| 20260508032411 | 10 | 252 | 4.8 | 14.5 | 0.00 | 2.69 | 0.00 | 79 | 1007.3 |
| 20260508032311 | 10 | 256 | 6.4 | 14.5 | 0.00 | 2.69 | 0.00 | 79 | 1007.2 |
| 20260508032232 | 10 | 256 | 8.0 | 14.5 | 0.00 | 2.69 | 0.00 | 79 | 1007.4 |
| 20260508032111 | 10 | 260 | 6.4 | 14.5 | 0.00 | 2.69 | 0.00 | 79 | 1007.2 |
| 20260508032011 | 10 | 261 | 6.4 | 14.5 | 0.00 | 2.69 | 0.00 | 79 | 1007.3 |
| 20260508031932 | 10 | 257 | 4.8 | 12.9 | 0.00 | 2.69 | 0.00 | 79 | 1007.2 |
| 20260508031811 | 10 | 260 | 6.4 | 12.9 | 0.00 | 2.69 | 0.00 | 79 | 1007.3 |
| 20260508031711 | 10 | 256 | 3.2 | 12.9 | 0.00 | 2.69 | 0.00 | 79 | 1007.2 |
| 20260508031611 | 10 | 258 | 3.2 | 12.9 | 0.00 | 2.69 | 0.00 | 79 | 1007.3 |
| 20260508031511 | 10 | 261 | 6.4 | 12.9 | 0.00 | 2.69 | 0.00 | 79 | 1007.1 |
| 20260508031432 | 10 | 259 | 3.2 | 12.9 | 0.00 | 2.69 | 0.00 | 79 | 1007.3 |
| 20260508031311 | 10 | 257 | 6.4 | 12.9 | 0.00 | 2.69 | 0.00 | 79 | 1007.2 |
| 20260508031211 | 10 | 260 | 4.8 | 12.9 | 0.00 | 2.69 | 0.00 | 78 | 1007.2 |
| 20260508031111 | 10 | 261 | 6.4 | 12.9 | 0.00 | 2.69 | 0.00 | 78 | 1007.1 |
| 20260508031011 | 11 | 258 | 6.4 | 12.9 | 0.00 | 2.69 | 0.00 | 78 | 1007.1 |
| 20260508030911 | 11 | 263 | 6.4 | 11.3 | 0.00 | 2.69 | 0.00 | 78 | 1007.2 |
| 20260508030811 | 11 | 258 | 3.2 | 11.3 | 0.00 | 2.69 | 0.00 | 78 | 1007.0 |
| 20260508030711 | 11 | 256 | 4.8 | 17.7 | 0.00 | 2.69 | 0.00 | 78 | 1007.0 |
| 20260508030611 | 11 | 254 | 6.4 | 17.7 | 0.00 | 2.69 | 0.00 | 78 | 1007.1 |
| 20260508030511 | 11 | 255 | 6.4 | 17.7 | 0.00 | 2.69 | 0.00 | 77 | 1007.1 |
| 20260508030411 | 11 | 261 | 4.8 | 17.7 | 0.00 | 2.69 | 0.00 | 77 | 1007.1 |
| 20260508030332 | 11 | 262 | 3.2 | 17.7 | 0.00 | 2.69 | 0.00 | 77 | 1007.3 |
| 20260508030232 | 11 | 263 | 4.8 | 17.7 | 0.00 | 2.69 | 0.00 | 77 | 1007.1 |
| 20260508030132 | 11 | 258 | 6.4 | 17.7 | 0.00 | 2.69 | 0.00 | 77 | 1007.0 |
| 20260508030011 | 11 | 252 | 4.8 | 17.7 | 0.00 | 2.69 | 0.00 | 76 | 1006.9 |
| 20260508025911 | 11 | 251 | 6.4 | 17.7 | 0.00 | 2.69 | 2.69 | 76 | 1007.0 |
| 20260508025811 | 11 | 254 | 6.4 | 17.7 | 0.00 | 2.69 | 2.69 | 76 | 1007.0 |
| 20260508025711 | 11 | 258 | 4.8 | 14.5 | 0.00 | 2.69 | 2.69 | 76 | 1006.9 |
| 20260508025612 | 11 | 260 | 4.8 | 14.5 | 0.00 | 2.69 | 2.69 | 76 | 1006.9 |
| 20260508025532 | 11 | 252 | 4.8 | 14.5 | 0.00 | 2.69 | 2.69 | 75 | 1006.8 |
| 20260508025411 | 11 | 243 | 4.8 | 14.5 | 0.00 | 2.69 | 2.69 | 75 | 1006.9 |
| 20260508025311 | 11 | 237 | 6.4 | 14.5 | 0.00 | 2.69 | 2.69 | 75 | 1007.0 |
| 20260508025211 | 11 | 234 | 4.8 | 14.5 | 0.00 | 2.69 | 2.69 | 75 | 1006.8 |
| 20260508025111 | 11 | 236 | 6.4 | 14.5 | 0.00 | 2.69 | 2.69 | 75 | 1006.8 |
| 20260508025011 | 11 | 236 | 8.0 | 14.5 | 0.00 | 2.69 | 2.69 | 74 | 1006.9 |
| 20260508024811 | 11 | 229 | 6.4 | 17.7 | 0.00 | 2.69 | 2.69 | 75 | 1006.7 |
| 20260508024711 | 11 | 226 | 6.4 | 17.7 | 0.00 | 2.69 | 2.69 | 74 | 1006.8 |
| 20260508024611 | 11 | 231 | 8.0 | 20.9 | 0.00 | 2.69 | 2.69 | 75 | 1006.8 |
| 20260508024511 | 11 | 236 | 6.4 | 20.9 | 0.00 | 2.69 | 2.69 | 74 | 1006.7 |
| 20260508024411 | 11 | 233 | 8.0 | 20.9 | 0.00 | 2.69 | 2.69 | 75 | 1006.9 |
| 20260508024311 | 11 | 237 | 8.0 | 20.9 | 0.00 | 2.69 | 2.69 | 75 | 1006.9 |
| 20260508024211 | 11 | 239 | 3.2 | 20.9 | 0.00 | 2.69 | 2.69 | 75 | 1006.7 |
| 20260508024132 | 11 | 239 | 3.2 | 20.9 | 0.00 | 2.69 | 2.69 | 75 | 1006.7 |
| 20260508024011 | 11 | 236 | 8.0 | 20.9 | 0.00 | 2.69 | 2.69 | 75 | 1006.9 |
| 20260508023911 | 11 | 233 | 4.8 | 20.9 | 0.00 | 2.69 | 2.69 | 75 | 1006.7 |
| 20260508023832 | 11 | 235 | 8.0 | 20.9 | 0.00 | 2.69 | 2.69 | 74 | 1006.8 |
| 20260508023711 | 11 | 229 | 6.4 | 20.9 | 0.00 | 2.69 | 2.69 | 74 | 1006.8 |
| 20260508023611 | 11 | 224 | 9.7 | 20.9 | 0.00 | 2.69 | 2.69 | 74 | 1006.7 |
| 20260508023511 | 11 | 225 | 4.8 | 20.9 | 0.00 | 2.69 | 2.69 | 74 | 1006.6 |
| 20260508023411 | 11 | 229 | 4.8 | 20.9 | 0.00 | 2.69 | 2.69 | 74 | 1006.7 |
| 20260508023311 | 11 | 229 | 6.4 | 20.9 | 0.00 | 2.69 | 2.69 | 74 | 1006.7 |
| 20260508023211 | 11 | 223 | 3.2 | 20.9 | 0.00 | 2.69 | 2.69 | 74 | 1006.5 |
| 20260508023111 | 11 | 221 | 6.4 | 20.9 | 0.00 | 2.69 | 2.69 | 74 | 1006.6 |
| 20260508023011 | 11 | 225 | 8.0 | 20.9 | 0.00 | 2.69 | 2.69 | 75 | 1006.9 |
| 20260508022932 | 11 | 230 | 8.0 | 20.9 | 0.00 | 2.69 | 2.69 | 75 | 1006.9 |
| 20260508022811 | 11 | 229 | 11.3 | 20.9 | 0.00 | 2.69 | 2.69 | 75 | 1006.7 |
| 20260508022711 | 11 | 232 | 3.2 | 14.5 | 0.00 | 2.69 | 2.69 | 75 | 1006.5 |
| 20260508022611 | 11 | 229 | 6.4 | 14.5 | 0.00 | 2.69 | 2.69 | 75 | 1006.6 |
| 20260508022511 | 11 | 220 | 6.4 | 14.5 | 0.00 | 2.69 | 2.69 | 75 | 1006.6 |
| 20260508022411 | 11 | 216 | 4.8 | 17.7 | 0.00 | 2.69 | 2.69 | 75 | 1006.8 |
| 20260508022311 | 11 | 207 | 6.4 | 17.7 | 0.00 | 2.69 | 2.69 | 75 | 1006.6 |
| 20260508022232 | 11 | 202 | 6.4 | 17.7 | 0.00 | 2.69 | 2.69 | 75 | 1006.8 |
| 20260508022111 | 12 | 199 | 4.8 | 17.7 | 0.00 | 2.69 | 2.69 | 75 | 1006.7 |
| 20260508022032 | 12 | 198 | 8.0 | 17.7 | 0.00 | 2.69 | 2.69 | 75 | 1006.7 |
| 20260508021932 | 12 | 202 | 6.4 | 17.7 | 0.00 | 2.69 | 2.69 | 75 | 1006.7 |
| 20260508021811 | 12 | 203 | 9.7 | 17.7 | 0.00 | 2.69 | 2.69 | 75 | 1006.6 |
| 20260508021711 | 12 | 204 | 4.8 | 17.7 | 0.00 | 2.69 | 2.69 | 75 | 1006.8 |
| 20260508021611 | 12 | 208 | 6.4 | 17.7 | 0.00 | 2.69 | 2.69 | 74 | 1006.6 |
| 20260508021511 | 12 | 214 | 6.4 | 17.7 | 0.00 | 2.69 | 2.69 | 74 | 1006.6 |
| 20260508021411 | 12 | 219 | 6.4 | 17.7 | 0.00 | 2.69 | 2.69 | 75 | 1006.7 |
| 20260508021311 | 12 | 227 | 6.4 | 17.7 | 0.00 | 2.69 | 2.69 | 75 | 1006.5 |
| 20260508021211 | 12 | 234 | 8.0 | 17.7 | 0.00 | 2.69 | 2.69 | 75 | 1006.7 |
| 20260508021111 | 12 | 239 | 8.0 | 17.7 | 0.00 | 2.69 | 2.69 | 75 | 1006.7 |
| 20260508021032 | 12 | 242 | 8.0 | 17.7 | 0.00 | 2.69 | 2.69 | 75 | 1006.6 |
| 20260508020911 | 12 | 240 | 4.8 | 17.7 | 0.00 | 2.69 | 2.69 | 74 | 1006.7 |
| 20260508020811 | 12 | 246 | 4.8 | 17.7 | 0.00 | 2.69 | 2.69 | 74 | 1006.7 |
| 20260508020732 | 12 | 246 | 6.4 | 17.7 | 0.00 | 2.69 | 2.69 | 74 | 1006.6 |
| 20260508020632 | 12 | 246 | 8.0 | 17.7 | 0.00 | 2.69 | 2.69 | 74 | 1006.6 |
| 20260508020511 | 12 | 243 | 6.4 | 17.7 | 0.00 | 2.69 | 2.69 | 74 | 1006.7 |
| 20260508020432 | 12 | 241 | 4.8 | 17.7 | 0.00 | 2.69 | 2.69 | 74 | 1006.5 |
| 20260508020311 | 12 | 237 | 8.0 | 17.7 | 0.00 | 2.69 | 2.69 | 74 | 1006.6 |
| 20260508020211 | 12 | 240 | 4.8 | 17.7 | 0.00 | 2.69 | 2.69 | 75 | 1006.5 |
| 20260508020111 | 12 | 244 | 9.7 | 17.7 | 0.00 | 2.69 | 2.69 | 75 | 1006.6 |
| 20260508020011 | 12 | 242 | 6.4 | 12.9 | 0.00 | 2.69 | 2.69 | 75 | 1006.4 |
| 20260508015911 | 12 | 241 | 6.4 | 12.9 | 0.00 | 2.69 | 2.69 | 75 | 1006.5 |
| 20260508015832 | 12 | 238 | 6.4 | 12.9 | 0.00 | 2.69 | 2.69 | 75 | 1006.5 |
| 20260508015711 | 12 | 235 | 6.4 | 12.9 | 0.00 | 2.69 | 2.69 | 75 | 1006.4 |
| 20260508015632 | 12 | 239 | 4.8 | 12.9 | 0.00 | 2.69 | 2.69 | 75 | 1006.6 |
| 20260508015532 | 12 | 247 | 4.8 | 12.9 | 0.00 | 2.69 | 2.69 | 75 | 1006.5 |
| 20260508015411 | 12 | 257 | 6.4 | 17.7 | 0.00 | 2.69 | 2.69 | 75 | 1006.5 |
| 20260508015311 | 12 | 265 | 6.4 | 17.7 | 0.00 | 2.69 | 2.69 | 75 | 1006.6 |
| 20260508015211 | 12 | 265 | 6.4 | 17.7 | 0.00 | 2.69 | 2.69 | 75 | 1006.5 |
| 20260508015111 | 12 | 269 | 6.4 | 17.7 | 0.00 | 2.69 | 2.69 | 75 | 1006.5 |
| 20260508015011 | 12 | 260 | 6.4 | 17.7 | 0.00 | 2.69 | 2.69 | 75 | 1006.4 |
| 20260508014911 | 12 | 258 | 3.2 | 17.7 | 0.00 | 2.69 | 2.69 | 75 | 1006.5 |
| 20260508014811 | 12 | 258 | 3.2 | 17.7 | 0.00 | 2.69 | 2.69 | 74 | 1006.5 |
| 20260508014711 | 12 | 251 | 4.8 | 17.7 | 0.00 | 2.69 | 2.69 | 74 | 1006.6 |
| 20260508014611 | 12 | 235 | 3.2 | 17.7 | 0.00 | 2.69 | 2.69 | 74 | 1006.6 |
| 20260508014511 | 12 | 227 | 3.2 | 17.7 | 0.00 | 2.69 | 2.69 | 74 | 1006.4 |
| 20260508014411 | 12 | 217 | 8.0 | 17.7 | 0.00 | 2.69 | 2.69 | 74 | 1006.5 |
| 20260508014332 | 12 | 214 | 4.8 | 17.7 | 0.00 | 2.69 | 2.69 | 74 | 1006.5 |
| 20260508014211 | 12 | 214 | 8.0 | 17.7 | 0.00 | 2.69 | 2.69 | 73 | 1006.3 |
| 20260508014111 | 12 | 209 | 6.4 | 17.7 | 0.00 | 2.69 | 2.69 | 73 | 1006.3 |
| 20260508014011 | 12 | 206 | 6.4 | 17.7 | 0.00 | 2.69 | 2.69 | 73 | 1006.3 |
| 20260508013911 | 12 | 195 | 8.0 | 17.7 | 0.00 | 2.69 | 2.69 | 73 | 1006.3 |
| 20260508013811 | 12 | 192 | 4.8 | 17.7 | 0.00 | 2.69 | 2.69 | 73 | 1006.5 |
| 20260508013711 | 12 | 196 | 9.7 | 17.7 | 0.00 | 2.69 | 2.69 | 73 | 1006.5 |
| 20260508013611 | 12 | 196 | 8.0 | 17.7 | 0.00 | 2.69 | 2.69 | 73 | 1006.3 |
| 20260508013511 | 12 | 202 | 11.3 | 17.7 | 0.00 | 2.69 | 2.69 | 73 | 1006.5 |
| 20260508013411 | 12 | 205 | 4.8 | 17.7 | 0.00 | 2.69 | 2.69 | 72 | 1006.6 |
| 20260508013332 | 12 | 202 | 4.8 | 17.7 | 0.00 | 2.69 | 2.69 | 72 | 1006.6 |
| 20260508013211 | 12 | 195 | 6.4 | 20.9 | 0.00 | 2.69 | 2.69 | 72 | 1006.3 |
| 20260508013111 | 12 | 195 | 6.4 | 20.9 | 0.00 | 2.69 | 2.69 | 72 | 1006.6 |
| 20260508013011 | 12 | 201 | 8.0 | 20.9 | 0.00 | 2.69 | 2.69 | 72 | 1006.3 |
| 20260508012911 | 12 | 204 | 8.0 | 22.5 | 0.00 | 2.69 | 2.69 | 72 | 1006.4 |
| 20260508012811 | 12 | 208 | 6.4 | 22.5 | 0.00 | 2.69 | 2.69 | 72 | 1006.5 |
| 20260508012711 | 12 | 211 | 9.7 | 24.1 | 0.00 | 2.69 | 2.69 | 71 | 1006.5 |
| 20260508012611 | 12 | 218 | 8.0 | 24.1 | 0.00 | 2.69 | 2.69 | 71 | 1006.4 |
| 20260508012532 | 12 | 216 | 8.0 | 24.1 | 0.00 | 2.69 | 2.69 | 71 | 1006.4 |
| 20260508012411 | 12 | 217 | 11.3 | 24.1 | 0.00 | 2.69 | 2.69 | 71 | 1006.4 |
| 20260508012311 | 12 | 217 | 4.8 | 24.1 | 0.00 | 2.69 | 2.69 | 71 | 1006.5 |
| 20260508012232 | 12 | 218 | 9.7 | 24.1 | 0.00 | 2.69 | 2.69 | 70 | 1006.5 |
| 20260508012111 | 12 | 220 | 9.7 | 24.1 | 0.00 | 2.69 | 2.69 | 70 | 1006.6 |
| 20260508012011 | 12 | 221 | 11.3 | 24.1 | 0.00 | 2.69 | 2.69 | 70 | 1006.5 |
| 20260508011911 | 12 | 216 | 9.7 | 25.7 | 0.00 | 2.69 | 2.69 | 70 | 1006.4 |
| 20260508011811 | 12 | 213 | 12.9 | 25.7 | 0.00 | 2.69 | 2.69 | 70 | 1006.4 |
| 20260508011712 | 12 | 218 | 12.9 | 35.4 | 0.00 | 2.69 | 2.69 | 69 | 1006.5 |
| 20260508011611 | 12 | 215 | 12.9 | 35.4 | 0.00 | 2.69 | 2.69 | 69 | 1006.6 |
| 20260508011532 | 12 | 210 | 12.9 | 35.4 | 0.00 | 2.69 | 2.69 | 69 | 1006.5 |
| 20260508011411 | 12 | 212 | 14.5 | 35.4 | 0.00 | 2.69 | 2.69 | 69 | 1006.4 |
| 20260508011311 | 12 | 211 | 12.9 | 35.4 | 0.00 | 2.69 | 2.69 | 69 | 1006.5 |
| 20260508011211 | 12 | 211 | 16.1 | 35.4 | 0.00 | 2.69 | 2.69 | 69 | 1006.5 |
| 20260508011111 | 12 | 214 | 12.9 | 35.4 | 0.00 | 2.69 | 2.69 | 69 | 1006.5 |
| 20260508011011 | 12 | 221 | 11.3 | 35.4 | 0.00 | 2.69 | 2.69 | 69 | 1006.6 |
| 20260508010911 | 12 | 228 | 12.9 | 35.4 | 0.00 | 2.69 | 2.69 | 69 | 1006.7 |
| 20260508010811 | 13 | 228 | 14.5 | 35.4 | 0.00 | 2.69 | 2.69 | 69 | 1006.7 |
| 20260508010732 | 13 | 222 | 16.1 | 35.4 | 0.00 | 2.69 | 2.69 | 68 | 1006.6 |
| 20260508010611 | 13 | 211 | 16.1 | 25.7 | 0.00 | 2.69 | 2.69 | 68 | 1006.6 |
| 20260508010511 | 13 | 215 | 12.9 | 24.1 | 0.00 | 2.69 | 2.69 | 69 | 1006.8 |
| 20260508010411 | 13 | 215 | 12.9 | 24.1 | 0.00 | 2.69 | 2.69 | 69 | 1006.6 |
| 20260508010311 | 13 | 220 | 12.9 | 24.1 | 0.00 | 2.69 | 2.69 | 69 | 1006.6 |
| 20260508010211 | 13 | 223 | 9.7 | 24.1 | 0.00 | 2.69 | 2.69 | 69 | 1006.5 |
| 20260508010111 | 13 | 220 | 11.3 | 24.1 | 0.00 | 2.69 | 2.69 | 69 | 1006.6 |
| 20260508010011 | 13 | 209 | 12.9 | 24.1 | 0.00 | 2.69 | 2.69 | 69 | 1006.7 |
| 20260508005911 | 13 | 211 | 9.7 | 24.1 | 0.00 | 2.69 | 2.69 | 69 | 1006.4 |
| 20260508005832 | 13 | 214 | 12.9 | 24.1 | 0.00 | 2.69 | 2.69 | 69 | 1006.6 |
| 20260508005732 | 13 | 215 | 9.7 | 24.1 | 0.00 | 2.69 | 2.69 | 68 | 1006.5 |
| 20260508005611 | 13 | 218 | 14.5 | 24.1 | 0.00 | 2.69 | 2.69 | 68 | 1006.5 |
| 20260508005511 | 13 | 224 | 8.0 | 25.7 | 0.00 | 2.69 | 2.69 | 68 | 1006.3 |
| 20260508005411 | 13 | 221 | 9.7 | 25.7 | 0.00 | 2.69 | 2.69 | 68 | 1006.6 |
| 20260508005311 | 13 | 219 | 9.7 | 25.7 | 0.00 | 2.69 | 2.69 | 68 | 1006.5 |
| 20260508005211 | 13 | 217 | 11.3 | 25.7 | 0.00 | 2.69 | 2.69 | 68 | 1006.6 |
| 20260508005111 | 13 | 215 | 12.9 | 25.7 | 0.00 | 2.69 | 2.69 | 68 | 1006.5 |
| 20260508005011 | 13 | 221 | 9.7 | 25.7 | 0.00 | 2.69 | 2.69 | 67 | 1006.5 |
| 20260508004911 | 13 | 223 | 14.5 | 29.0 | 0.00 | 2.69 | 2.69 | 67 | 1006.6 |
| 20260508004811 | 13 | 218 | 9.7 | 29.0 | 0.00 | 2.69 | 2.69 | 67 | 1006.5 |
| 20260508004711 | 13 | 217 | 12.9 | 29.0 | 0.00 | 2.69 | 2.69 | 67 | 1006.6 |
| 20260508004611 | 13 | 225 | 16.1 | 29.0 | 0.00 | 2.69 | 2.69 | 67 | 1006.5 |
| 20260508004511 | 13 | 221 | 12.9 | 29.0 | 0.00 | 2.69 | 2.69 | 67 | 1006.5 |
| 20260508004411 | 13 | 210 | 8.0 | 35.4 | 0.00 | 2.69 | 2.69 | 67 | 1006.5 |
| 20260508004311 | 13 | 212 | 12.9 | 35.4 | 0.00 | 2.69 | 2.69 | 67 | 1006.5 |
| 20260508004211 | 13 | 218 | 6.4 | 35.4 | 0.00 | 2.69 | 2.69 | 66 | 1006.5 |
| 20260508004111 | 13 | 218 | 8.0 | 35.4 | 0.00 | 2.69 | 2.69 | 66 | 1006.6 |
| 20260508004011 | 13 | 213 | 16.1 | 35.4 | 0.00 | 2.69 | 2.69 | 66 | 1006.4 |
| 20260508003911 | 13 | 209 | 14.5 | 35.4 | 0.00 | 2.69 | 2.69 | 66 | 1006.6 |
| 20260508003811 | 13 | 208 | 14.5 | 35.4 | 0.00 | 2.69 | 2.69 | 65 | 1006.5 |
| 20260508003711 | 13 | 208 | 12.9 | 35.4 | 0.00 | 2.69 | 2.69 | 65 | 1006.5 |
| 20260508003611 | 13 | 206 | 17.7 | 35.4 | 0.00 | 2.69 | 2.69 | 65 | 1006.6 |
| 20260508003511 | 13 | 202 | 11.3 | 35.4 | 0.00 | 2.69 | 2.69 | 65 | 1006.4 |
| 20260508003411 | 13 | 208 | 16.1 | 35.4 | 0.00 | 2.69 | 2.69 | 65 | 1006.2 |
| 20260508003311 | 13 | 205 | 17.7 | 35.4 | 0.00 | 2.69 | 2.69 | 64 | 1006.5 |
| 20260508003211 | 13 | 202 | 11.3 | 35.4 | 0.00 | 2.69 | 2.69 | 64 | 1006.5 |
| 20260508003111 | 13 | 203 | 16.1 | 35.4 | 0.00 | 2.69 | 2.69 | 64 | 1006.4 |
| 20260508003032 | 13 | 201 | 16.1 | 35.4 | 0.00 | 2.69 | 2.69 | 64 | 1006.4 |
| 20260508002911 | 13 | 205 | 12.9 | 35.4 | 0.00 | 2.69 | 2.69 | 64 | 1006.4 |
| 20260508002811 | 13 | 209 | 22.5 | 35.4 | 0.00 | 2.69 | 2.69 | 64 | 1006.4 |
| 20260508002711 | 13 | 217 | 22.5 | 35.4 | 0.00 | 2.69 | 2.69 | 64 | 1006.5 |
| 20260508002611 | 13 | 216 | 14.5 | 35.4 | 0.00 | 2.69 | 2.69 | 64 | 1006.6 |
| 20260508002511 | 13 | 226 | 11.3 | 35.4 | 0.00 | 2.69 | 2.69 | 64 | 1006.5 |
| 20260508002411 | 13 | 224 | 14.5 | 35.4 | 0.00 | 2.69 | 2.69 | 64 | 1006.5 |
| 20260508002311 | 13 | 230 | 12.9 | 35.4 | 0.00 | 2.69 | 2.69 | 64 | 1006.4 |
| 20260508002211 | 13 | 228 | 12.9 | 35.4 | 0.00 | 2.69 | 2.69 | 64 | 1006.5 |
| 20260508002111 | 13 | 226 | 12.9 | 35.4 | 0.00 | 2.69 | 2.69 | 64 | 1006.5 |
| 20260508002032 | 13 | 233 | 12.9 | 35.4 | 0.00 | 2.69 | 2.69 | 64 | 1006.6 |
| 20260508001911 | 13 | 233 | 17.7 | 35.4 | 0.00 | 2.69 | 2.69 | 64 | 1006.5 |
| 20260508001811 | 13 | 229 | 16.1 | 27.4 | 0.00 | 2.69 | 2.69 | 64 | 1006.4 |
| 20260508001711 | 13 | 222 | 11.3 | 24.1 | 0.00 | 2.69 | 2.69 | 64 | 1006.6 |
| 20260508001611 | 13 | 232 | 9.7 | 27.4 | 0.00 | 2.69 | 2.69 | 64 | 1006.4 |
| 20260508001511 | 13 | 224 | 9.7 | 27.4 | 0.00 | 2.69 | 2.69 | 64 | 1006.5 |
| 20260508001411 | 13 | 221 | 6.4 | 27.4 | 0.00 | 2.69 | 2.69 | 64 | 1006.6 |
| 20260508001311 | 13 | 213 | 12.9 | 27.4 | 0.00 | 2.69 | 2.69 | 64 | 1006.7 |
| 20260508001232 | 13 | 208 | 6.4 | 27.4 | 0.00 | 2.69 | 2.69 | 65 | 1006.6 |
| 20260508001111 | 13 | 212 | 8.0 | 27.4 | 0.00 | 2.69 | 2.69 | 64 | 1006.7 |
| 20260508001011 | 13 | 211 | 12.9 | 27.4 | 0.00 | 2.69 | 2.69 | 64 | 1006.6 |
| 20260508000911 | 13 | 214 | 8.0 | 27.4 | 0.00 | 2.69 | 2.69 | 64 | 1006.7 |
| 20260508000832 | 13 | 216 | 12.9 | 27.4 | 0.00 | 2.69 | 2.69 | 64 | 1006.7 |
| 20260508000711 | 13 | 215 | 6.4 | 29.0 | 0.00 | 2.69 | 2.69 | 64 | 1006.6 |
| 20260508000632 | 13 | 210 | 11.3 | 29.0 | 0.00 | 2.69 | 2.69 | 64 | 1006.6 |
| 20260508000511 | 13 | 208 | 11.3 | 29.0 | 0.00 | 2.69 | 2.69 | 64 | 1006.5 |
| 20260508000412 | 13 | 211 | 9.7 | 29.0 | 0.00 | 2.69 | 2.69 | 65 | 1006.6 |
| 20260508000312 | 13 | 218 | 8.0 | 29.0 | 0.00 | 2.69 | 2.69 | 65 | 1006.4 |
| 20260508000212 | 13 | 220 | 6.4 | 29.0 | 0.00 | 2.69 | 2.69 | 65 | 1006.7 |
| 20260508000133 | 13 | 221 | 6.4 | 29.0 | 0.00 | 2.69 | 2.69 | 65 | 1006.7 |
| 20260508000011 | 13 | 220 | 6.4 | 29.0 | 0.00 | 2.69 | 2.69 | 65 | 1006.7 |
| 20260507235911 | 13 | 220 | 9.7 | 29.0 | 0.00 | 2.69 | 2.69 | 65 | 1006.5 |
| 20260507235811 | 13 | 219 | 9.7 | 29.0 | 0.00 | 2.69 | 2.69 | 65 | 1006.6 |
| 20260507235711 | 13 | 226 | 12.9 | 29.0 | 0.00 | 2.69 | 2.69 | 66 | 1006.6 |
| 20260507235611 | 13 | 235 | 6.4 | 17.7 | 0.00 | 2.69 | 2.69 | 67 | 1006.5 |
| 20260507235511 | 13 | 238 | 3.2 | 17.7 | 0.00 | 2.69 | 2.69 | 67 | 1006.7 |
| 20260507235411 | 13 | 245 | 8.0 | 17.7 | 0.00 | 2.69 | 2.69 | 66 | 1006.7 |
| 20260507235311 | 13 | 244 | 9.7 | 17.7 | 0.00 | 2.69 | 2.69 | 67 | 1006.7 |
| 20260507235211 | 13 | 249 | 8.0 | 17.7 | 0.00 | 2.69 | 2.69 | 67 | 1006.6 |
| 20260507235111 | 13 | 248 | 6.4 | 17.7 | 0.00 | 2.69 | 2.69 | 67 | 1006.5 |
| 20260507235011 | 13 | 255 | 6.4 | 17.7 | 0.00 | 2.69 | 2.69 | 67 | 1006.4 |
| 20260507234911 | 13 | 259 | 6.4 | 17.7 | 0.00 | 2.69 | 2.69 | 67 | 1006.6 |
| 20260507234811 | 13 | 260 | 6.4 | 17.7 | 0.00 | 2.69 | 2.69 | 67 | 1006.5 |
| 20260507234711 | 13 | 255 | 8.0 | 17.7 | 0.00 | 2.69 | 2.69 | 67 | 1006.6 |
| 20260507234611 | 13 | 250 | 8.0 | 14.5 | 0.00 | 2.69 | 2.69 | 67 | 1006.6 |
| 20260507234511 | 13 | 246 | 4.8 | 14.5 | 0.00 | 2.69 | 2.69 | 67 | 1006.6 |
| 20260507234411 | 13 | 243 | 6.4 | 14.5 | 0.00 | 2.69 | 2.69 | 67 | 1006.7 |
| 20260507234311 | 13 | 243 | 6.4 | 17.7 | 0.00 | 2.69 | 2.69 | 67 | 1006.6 |
| 20260507234211 | 13 | 239 | 4.8 | 17.7 | 0.00 | 2.69 | 2.69 | 67 | 1006.6 |
| 20260507234111 | 13 | 243 | 3.2 | 17.7 | 0.00 | 2.69 | 2.69 | 67 | 1006.6 |
| 20260507234011 | 13 | 233 | 6.4 | 20.9 | 0.00 | 2.69 | 2.69 | 66 | 1006.6 |
| 20260507233911 | 13 | 230 | 6.4 | 20.9 | 0.00 | 2.69 | 2.69 | 66 | 1006.8 |
| 20260507233811 | 13 | 225 | 6.4 | 20.9 | 0.00 | 2.69 | 2.69 | 66 | 1006.6 |
| 20260507233711 | 13 | 222 | 6.4 | 20.9 | 0.00 | 2.69 | 2.69 | 66 | 1006.7 |
| 20260507233611 | 14 | 226 | 6.4 | 20.9 | 0.00 | 2.69 | 2.69 | 66 | 1006.7 |
| 20260507233511 | 14 | 228 | 4.8 | 20.9 | 0.00 | 2.69 | 2.69 | 66 | 1006.6 |
| 20260507233411 | 14 | 221 | 4.8 | 20.9 | 0.00 | 2.69 | 2.69 | 66 | 1006.6 |
| 20260507233311 | 14 | 216 | 9.7 | 20.9 | 0.00 | 2.69 | 2.69 | 66 | 1006.5 |
| 20260507233232 | 14 | 219 | 6.4 | 20.9 | 0.00 | 2.69 | 2.69 | 66 | 1006.6 |
| 20260507233111 | 14 | 208 | 6.4 | 20.9 | 0.00 | 2.69 | 2.69 | 65 | 1006.5 |
| 20260507233011 | 14 | 219 | 6.4 | 24.1 | 0.00 | 2.69 | 2.69 | 65 | 1006.6 |
| 20260507232911 | 14 | 213 | 6.4 | 24.1 | 0.00 | 2.69 | 2.69 | 65 | 1006.8 |
| 20260507232811 | 14 | 206 | 6.4 | 24.1 | 0.00 | 2.69 | 2.69 | 65 | 1006.8 |
| 20260507232711 | 14 | 207 | 6.4 | 24.1 | 0.00 | 2.69 | 2.69 | 65 | 1006.6 |
| 20260507232612 | 14 | 207 | 11.3 | 24.1 | 0.00 | 2.69 | 2.69 | 65 | 1006.7 |
| 20260507232511 | 14 | 206 | 9.7 | 24.1 | 0.00 | 2.69 | 2.69 | 65 | 1006.7 |
| 20260507232411 | 14 | 208 | 8.0 | 24.1 | 0.00 | 2.69 | 2.69 | 65 | 1006.8 |
| 20260507232311 | 14 | 210 | 6.4 | 24.1 | 0.00 | 2.69 | 2.69 | 65 | 1006.9 |
| 20260507232211 | 14 | 204 | 6.4 | 24.1 | 0.00 | 2.69 | 2.69 | 65 | 1007.0 |
| 20260507232111 | 14 | 208 | 4.8 | 24.1 | 0.00 | 2.69 | 2.69 | 65 | 1007.0 |
| 20260507232011 | 14 | 208 | 12.9 | 24.1 | 0.00 | 2.69 | 2.69 | 64 | 1006.9 |
| 20260507231911 | 14 | 208 | 8.0 | 20.9 | 0.00 | 2.69 | 2.69 | 65 | 1006.9 |
| 20260507231811 | 14 | 210 | 6.4 | 20.9 | 0.00 | 2.69 | 2.69 | 65 | 1007.0 |
| 20260507231711 | 14 | 213 | 6.4 | 20.9 | 0.00 | 2.69 | 2.69 | 64 | 1006.9 |
| 20260507231611 | 14 | 215 | 8.0 | 20.9 | 0.00 | 2.69 | 2.69 | 64 | 1007.2 |
| 20260507231511 | 14 | 213 | 8.0 | 20.9 | 0.00 | 2.69 | 2.69 | 64 | 1007.0 |
| 20260507231411 | 14 | 210 | 11.3 | 20.9 | 0.00 | 2.69 | 2.69 | 64 | 1007.2 |
| 20260507231311 | 14 | 206 | 6.4 | 20.9 | 0.00 | 2.69 | 2.69 | 65 | 1007.0 |
| 20260507231211 | 14 | 214 | 6.4 | 20.9 | 0.00 | 2.69 | 2.69 | 64 | 1007.1 |
| 20260507231111 | 14 | 217 | 11.3 | 20.9 | 0.00 | 2.69 | 2.69 | 64 | 1006.9 |
| 20260507231011 | 14 | 215 | 4.8 | 20.9 | 0.00 | 2.69 | 2.69 | 65 | 1006.9 |
| 20260507230911 | 14 | 217 | 6.4 | 20.9 | 0.00 | 2.69 | 2.69 | 65 | 1007.0 |
| 20260507230811 | 14 | 216 | 9.7 | 20.9 | 0.00 | 2.69 | 2.69 | 65 | 1007.0 |
| 20260507230711 | 14 | 219 | 12.9 | 20.9 | 0.00 | 2.69 | 2.69 | 65 | 1007.0 |
| 20260507230611 | 14 | 216 | 6.4 | 17.7 | 0.00 | 2.69 | 2.69 | 66 | 1007.1 |
| 20260507230511 | 14 | 217 | 6.4 | 17.7 | 0.00 | 2.69 | 2.69 | 66 | 1006.9 |
| 20260507230411 | 14 | 233 | 11.3 | 17.7 | 0.00 | 2.69 | 2.69 | 66 | 1007.0 |
| 20260507230311 | 14 | 241 | 6.4 | 14.5 | 0.00 | 2.69 | 2.69 | 66 | 1006.9 |
| 20260507230211 | 14 | 238 | 6.4 | 14.5 | 0.00 | 2.69 | 2.69 | 67 | 1007.1 |
| 20260507230111 | 14 | 239 | 3.2 | 14.5 | 0.00 | 2.69 | 2.69 | 67 | 1007.0 |
| 20260507230033 | 14 | 237 | 3.2 | 14.5 | 0.00 | 2.69 | 2.69 | 67 | 1007.1 |
| 20260507225932 | 14 | 245 | 3.2 | 14.5 | 0.00 | 2.69 | 2.69 | 67 | 1006.9 |
| 20260507225811 | 14 | 247 | 3.2 | 14.5 | 0.00 | 2.69 | 2.69 | 67 | 1007.0 |
| 20260507225711 | 14 | 248 | 4.8 | 14.5 | 0.00 | 2.69 | 2.69 | 67 | 1007.0 |
| 20260507225632 | 14 | 241 | 3.2 | 11.3 | 0.00 | 2.69 | 2.69 | 67 | 1007.0 |
| 20260507225532 | 14 | 242 | 3.2 | 11.3 | 0.00 | 2.69 | 2.69 | 67 | 1007.0 |
| 20260507225411 | 14 | 245 | 6.4 | 11.3 | 0.00 | 2.69 | 2.69 | 67 | 1007.0 |
| 20260507225311 | 14 | 251 | 4.8 | 12.9 | 0.00 | 2.69 | 2.69 | 68 | 1007.0 |
| 20260507225211 | 14 | 255 | 3.2 | 17.7 | 0.00 | 2.69 | 2.69 | 68 | 1006.9 |
| 20260507225111 | 14 | 260 | 4.8 | 17.7 | 0.00 | 2.69 | 2.69 | 67 | 1006.8 |
| 20260507225032 | 14 | 265 | 6.4 | 17.7 | 0.00 | 2.69 | 2.69 | 67 | 1006.9 |
| 20260507224911 | 14 | 265 | 3.2 | 17.7 | 0.00 | 2.69 | 2.69 | 67 | 1007.1 |
| 20260507224810 | 14 | 260 | 4.8 | 17.7 | 0.00 | 2.69 | 2.69 | 67 | 1007.0 |
| 20260507224711 | 14 | 268 | 3.2 | 17.7 | 0.00 | 2.69 | 2.69 | 67 | 1006.9 |
| 20260507224611 | 14 | 264 | 4.8 | 17.7 | 0.00 | 2.69 | 2.69 | 66 | 1006.8 |
| 20260507224511 | 14 | 263 | 3.2 | 17.7 | 0.00 | 2.69 | 2.69 | 66 | 1006.9 |
| 20260507224411 | 14 | 259 | 4.8 | 17.7 | 0.00 | 2.69 | 2.69 | 66 | 1006.7 |
| 20260507224311 | 14 | 244 | 8.0 | 17.7 | 0.00 | 2.69 | 2.69 | 66 | 1006.9 |
| 20260507224211 | 14 | 239 | 6.4 | 17.7 | 0.00 | 2.69 | 2.69 | 66 | 1006.8 |
| 20260507224111 | 14 | 231 | 8.0 | 17.7 | 0.00 | 2.69 | 2.69 | 66 | 1006.7 |
| 20260507224011 | 14 | 222 | 6.4 | 17.7 | 0.00 | 2.69 | 2.69 | 66 | 1006.8 |
| 20260507223911 | 14 | 231 | 4.8 | 17.7 | 0.00 | 2.69 | 2.69 | 66 | 1006.8 |
| 20260507223832 | 14 | 240 | 6.4 | 17.7 | 0.00 | 2.69 | 2.69 | 66 | 1006.8 |
| 20260507223711 | 14 | 241 | 6.4 | 17.7 | 0.00 | 2.69 | 2.69 | 67 | 1006.7 |
| 20260507223611 | 14 | 227 | 8.0 | 14.5 | 0.00 | 2.69 | 2.69 | 67 | 1006.8 |
| 20260507223511 | 14 | 224 | 3.2 | 12.9 | 0.00 | 2.69 | 2.69 | 67 | 1006.6 |
| 20260507223411 | 14 | 221 | 6.4 | 12.9 | 0.00 | 2.69 | 2.69 | 68 | 1006.7 |
| 20260507223311 | 14 | 236 | 4.8 | 12.9 | 0.00 | 2.69 | 2.69 | 68 | 1006.6 |
| 20260507223215 | 14 | 239 | 4.8 | 12.9 | 0.00 | 2.69 | 2.69 | 68 | 1006.7 |
| 20260507223132 | 14 | 239 | 4.8 | 12.9 | 0.00 | 2.69 | 2.69 | 68 | 1006.6 |
| 20260507223011 | 14 | 236 | 4.8 | 12.9 | 0.00 | 2.69 | 2.69 | 68 | 1006.7 |
| 20260507222911 | 14 | 233 | 4.8 | 12.9 | 0.00 | 2.69 | 2.69 | 68 | 1006.6 |
| 20260507222811 | 14 | 226 | 3.2 | 12.9 | 0.00 | 2.69 | 2.69 | 68 | 1006.7 |
| 20260507222711 | 14 | 231 | 1.6 | 12.9 | 0.00 | 2.69 | 2.69 | 68 | 1006.6 |
| 20260507222611 | 14 | 241 | 6.4 | 12.9 | 0.00 | 2.69 | 2.69 | 68 | 1006.6 |
| 20260507222511 | 14 | 245 | 4.8 | 12.9 | 0.00 | 2.69 | 2.69 | 68 | 1006.5 |
| 20260507222411 | 14 | 247 | 6.4 | 12.9 | 0.00 | 2.69 | 2.69 | 68 | 1006.5 |
| 20260507222311 | 14 | 240 | 6.4 | 11.3 | 0.00 | 2.69 | 2.69 | 68 | 1006.2 |
| 20260507222233 | 14 | 236 | 4.8 | 11.3 | 0.00 | 2.69 | 2.69 | 68 | 1006.5 |
| 20260507222111 | 14 | 238 | 3.2 | 11.3 | 0.00 | 2.69 | 2.69 | 68 | 1006.4 |
| 20260507222011 | 14 | 242 | 6.4 | 11.3 | 0.00 | 2.69 | 2.69 | 68 | 1006.5 |
| 20260507221911 | 14 | 239 | 3.2 | 11.3 | 0.00 | 2.69 | 2.69 | 68 | 1006.5 |
| 20260507221811 | 14 | 237 | 6.4 | 11.3 | 0.00 | 2.69 | 2.69 | 68 | 1006.6 |
| 20260507221711 | 14 | 230 | 3.2 | 11.3 | 0.00 | 2.69 | 2.69 | 68 | 1006.3 |
| 20260507221611 | 14 | 228 | 6.4 | 11.3 | 0.00 | 2.69 | 2.69 | 68 | 1006.4 |
| 20260507221511 | 14 | 228 | 3.2 | 9.7 | 0.00 | 2.69 | 2.69 | 68 | 1006.2 |
| 20260507221411 | 14 | 235 | 4.8 | 9.7 | 0.00 | 2.69 | 2.69 | 68 | 1006.5 |
| 20260507221311 | 14 | 237 | 6.4 | 9.7 | 0.00 | 2.69 | 2.69 | 68 | 1006.4 |
| 20260507221232 | 14 | 242 | 3.2 | 9.7 | 0.00 | 2.69 | 2.69 | 68 | 1006.5 |
| 20260507221111 | 14 | 250 | 3.2 | 11.3 | 0.00 | 2.69 | 2.69 | 68 | 1006.5 |
| 20260507221011 | 14 | 242 | 1.6 | 11.3 | 0.00 | 2.69 | 2.69 | 68 | 1006.4 |
| 20260507220911 | 14 | 240 | 3.2 | 11.3 | 0.00 | 2.69 | 2.69 | 68 | 1006.5 |
| 20260507220811 | 14 | 240 | 4.8 | 11.3 | 0.00 | 2.69 | 2.69 | 67 | 1006.5 |
| 20260507220711 | 14 | 243 | 3.2 | 12.9 | 0.00 | 2.69 | 2.69 | 67 | 1006.4 |
| 20260507220611 | 14 | 246 | 3.2 | 12.9 | 0.00 | 2.69 | 2.69 | 67 | 1006.3 |
| 20260507220511 | 14 | 243 | 4.8 | 12.9 | 0.00 | 2.69 | 2.69 | 67 | 1006.3 |
| 20260507220432 | 14 | 241 | 3.2 | 12.9 | 0.00 | 2.69 | 2.69 | 67 | 1006.3 |
| 20260507220311 | 14 | 241 | 1.6 | 12.9 | 0.00 | 2.69 | 2.69 | 67 | 1006.4 |
| 20260507220211 | 14 | 243 | 6.4 | 12.9 | 0.00 | 2.69 | 2.69 | 67 | 1006.2 |
| 20260507220111 | 14 | 240 | 4.8 | 12.9 | 0.00 | 2.69 | 2.69 | 67 | 1006.1 |
| 20260507220011 | 14 | 241 | 6.4 | 12.9 | 0.00 | 2.69 | 2.69 | 67 | 1006.2 |
| 20260507215911 | 14 | 243 | 3.2 | 12.9 | 0.00 | 2.69 | 2.69 | 67 | 1006.3 |
| 20260507215811 | 14 | 245 | 6.4 | 12.9 | 0.00 | 2.69 | 2.69 | 66 | 1006.1 |
| 20260507215710 | 14 | 243 | 3.2 | 12.9 | 0.00 | 2.69 | 2.69 | 66 | 1006.1 |
| 20260507215632 | 14 | 244 | 4.8 | 12.9 | 0.00 | 2.69 | 2.69 | 66 | 1005.9 |
| 20260507215532 | 14 | 240 | 4.8 | 12.9 | 0.00 | 2.69 | 2.69 | 66 | 1006.0 |
| 20260507215411 | 14 | 240 | 6.4 | 12.9 | 0.00 | 2.69 | 2.69 | 66 | 1005.8 |
| 20260507215311 | 14 | 243 | 6.4 | 17.7 | 0.00 | 2.69 | 2.69 | 66 | 1005.8 |
| 20260507215211 | 14 | 243 | 8.0 | 17.7 | 0.00 | 2.69 | 2.69 | 65 | 1005.9 |
| 20260507215111 | 14 | 241 | 8.0 | 17.7 | 0.00 | 2.69 | 2.69 | 65 | 1005.7 |
| 20260507215011 | 14 | 239 | 6.4 | 17.7 | 0.00 | 2.69 | 2.69 | 65 | 1005.8 |
| 20260507214911 | 14 | 234 | 6.4 | 17.7 | 0.00 | 2.69 | 2.69 | 66 | 1005.5 |
| 20260507214811 | 14 | 230 | 6.4 | 17.7 | 0.00 | 2.69 | 2.69 | 65 | 1005.7 |
| 20260507214711 | 15 | 222 | 8.0 | 17.7 | 0.00 | 2.69 | 2.69 | 65 | 1005.5 |
| 20260507214633 | 15 | 219 | 6.4 | 17.7 | 0.00 | 2.69 | 2.69 | 65 | 1005.6 |
| 20260507214511 | 15 | 225 | 4.8 | 17.7 | 0.00 | 2.69 | 2.69 | 65 | 1005.5 |
| 20260507214411 | 15 | 231 | 4.8 | 17.7 | 0.00 | 2.69 | 2.69 | 65 | 1005.4 |
| 20260507214311 | 15 | 227 | 11.3 | 17.7 | 0.00 | 2.69 | 2.69 | 65 | 1005.3 |
| 20260507214211 | 15 | 228 | 6.4 | 17.7 | 0.00 | 2.69 | 2.69 | 65 | 1005.5 |
| 20260507214111 | 15 | 224 | 6.4 | 17.7 | 0.00 | 2.69 | 2.69 | 65 | 1005.5 |
| 20260507214011 | 15 | 219 | 6.4 | 17.7 | 0.00 | 2.69 | 2.69 | 65 | 1005.6 |
| 20260507213911 | 15 | 221 | 4.8 | 17.7 | 0.00 | 2.69 | 2.69 | 65 | 1005.6 |
| 20260507213811 | 15 | 220 | 11.3 | 17.7 | 0.00 | 2.69 | 2.69 | 65 | 1005.6 |
| 20260507213732 | 15 | 218 | 11.3 | 20.9 | 0.00 | 2.69 | 2.69 | 65 | 1005.6 |
| 20260507213610 | 15 | 215 | 4.8 | 22.5 | 0.00 | 2.69 | 2.69 | 65 | 1005.6 |
| 20260507213511 | 15 | 214 | 9.7 | 22.5 | 0.00 | 2.69 | 2.69 | 65 | 1005.3 |
| 20260507213411 | 15 | 211 | 6.4 | 22.5 | 0.00 | 2.69 | 2.69 | 65 | 1005.4 |
| 20260507213332 | 15 | 210 | 6.4 | 22.5 | 0.00 | 2.69 | 2.69 | 65 | 1005.4 |
| 20260507213211 | 15 | 212 | 8.0 | 22.5 | 0.00 | 2.69 | 2.69 | 65 | 1005.3 |
| 20260507213110 | 15 | 202 | 8.0 | 22.5 | 0.00 | 2.69 | 2.69 | 65 | 1005.2 |
| 20260507213011 | 15 | 204 | 6.4 | 22.5 | 0.00 | 2.69 | 2.69 | 65 | 1005.2 |
| 20260507212932 | 15 | 202 | 6.4 | 22.5 | 0.00 | 2.69 | 2.69 | 65 | 1005.2 |
| 20260507212832 | 15 | 205 | 6.4 | 22.5 | 0.00 | 2.69 | 2.69 | 65 | 1005.3 |
| 20260507212711 | 15 | 216 | 9.7 | 25.7 | 0.00 | 2.69 | 2.69 | 64 | 1005.4 |
| 20260507212611 | 15 | 224 | 6.4 | 25.7 | 0.00 | 2.69 | 2.69 | 64 | 1005.3 |
| 20260507212511 | 15 | 217 | 8.0 | 25.7 | 0.00 | 2.69 | 2.69 | 64 | 1005.3 |
| 20260507212432 | 15 | 216 | 12.9 | 25.7 | 0.00 | 2.69 | 2.69 | 64 | 1005.3 |
| 20260507212332 | 15 | 210 | 8.0 | 29.0 | 0.00 | 2.69 | 2.69 | 64 | 1005.1 |
| 20260507212211 | 15 | 210 | 12.9 | 29.0 | 0.00 | 2.69 | 2.69 | 64 | 1005.2 |
| 20260507212111 | 15 | 216 | 14.5 | 29.0 | 0.00 | 2.69 | 2.69 | 64 | 1005.1 |
| 20260507212011 | 15 | 218 | 12.9 | 29.0 | 0.00 | 2.69 | 2.69 | 64 | 1005.2 |
| 20260507211911 | 15 | 213 | 11.3 | 32.2 | 0.00 | 2.69 | 2.69 | 64 | 1005.2 |
| 20260507211832 | 15 | 206 | 12.9 | 32.2 | 0.00 | 2.69 | 2.69 | 64 | 1005.1 |
| 20260507211711 | 15 | 206 | 14.5 | 32.2 | 0.00 | 2.69 | 2.69 | 64 | 1005.1 |
| 20260507211611 | 15 | 205 | 12.9 | 32.2 | 0.00 | 2.69 | 2.69 | 64 | 1005.3 |
| 20260507211511 | 15 | 204 | 6.4 | 32.2 | 0.00 | 2.69 | 2.69 | 65 | 1005.2 |
| 20260507211411 | 15 | 207 | 12.9 | 32.2 | 0.00 | 2.69 | 2.69 | 64 | 1005.0 |
| 20260507211311 | 15 | 211 | 8.0 | 32.2 | 0.00 | 2.69 | 2.69 | 65 | 1005.2 |
| 20260507211211 | 15 | 207 | 9.7 | 32.2 | 0.00 | 2.69 | 2.69 | 65 | 1005.1 |
| 20260507211111 | 15 | 201 | 9.7 | 32.2 | 0.00 | 2.69 | 2.69 | 65 | 1005.3 |
| 20260507211011 | 15 | 200 | 9.7 | 32.2 | 0.00 | 2.69 | 2.69 | 65 | 1005.1 |
| 20260507210911 | 15 | 202 | 17.7 | 32.2 | 0.00 | 2.69 | 2.69 | 65 | 1005.1 |
| 20260507210811 | 15 | 212 | 9.7 | 24.1 | 0.00 | 2.69 | 2.69 | 65 | 1005.2 |
| 20260507210711 | 15 | 206 | 8.0 | 24.1 | 0.00 | 2.69 | 2.69 | 65 | 1005.0 |
| 20260507210632 | 15 | 202 | 9.7 | 24.1 | 0.00 | 2.69 | 2.69 | 65 | 1005.1 |
| 20260507210511 | 15 | 201 | 11.3 | 24.1 | 0.00 | 2.69 | 2.69 | 65 | 1005.2 |
| 20260507210411 | 15 | 203 | 11.3 | 24.1 | 0.00 | 2.69 | 2.69 | 65 | 1005.1 |
| 20260507210333 | 15 | 202 | 4.8 | 24.1 | 0.00 | 2.69 | 2.69 | 65 | 1005.3 |
| 20260507210211 | 15 | 200 | 16.1 | 24.1 | 0.00 | 2.69 | 2.69 | 64 | 1005.1 |
| 20260507210111 | 15 | 206 | 8.0 | 24.1 | 0.00 | 2.69 | 2.69 | 65 | 1005.2 |
| 20260507210033 | 15 | 206 | 8.0 | 24.1 | 0.00 | 2.69 | 2.69 | 65 | 1005.2 |
| 20260507205911 | 15 | 214 | 8.0 | 24.1 | 0.00 | 2.69 | 2.69 | 65 | 1005.1 |
| 20260507205811 | 15 | 214 | 11.3 | 24.1 | 0.00 | 2.69 | 2.69 | 65 | 1005.1 |
| 20260507205711 | 15 | 217 | 12.9 | 24.1 | 0.00 | 2.69 | 2.69 | 65 | 1005.1 |
| 20260507205632 | 15 | 219 | 11.3 | 24.1 | 0.00 | 2.69 | 2.69 | 64 | 1005.0 |
| 20260507205532 | 15 | 220 | 14.5 | 24.1 | 0.00 | 2.69 | 2.69 | 64 | 1005.2 |
| 20260507205432 | 15 | 213 | 8.0 | 24.1 | 0.00 | 2.69 | 2.69 | 65 | 1005.0 |
| 20260507205311 | 15 | 219 | 12.9 | 24.1 | 0.00 | 2.69 | 2.69 | 64 | 1005.1 |
| 20260507205211 | 15 | 223 | 8.0 | 24.1 | 0.00 | 2.69 | 2.69 | 64 | 1005.2 |
| 20260507205111 | 15 | 216 | 14.5 | 24.1 | 0.00 | 2.69 | 2.69 | 64 | 1005.2 |
| 20260507205011 | 15 | 217 | 12.9 | 22.5 | 0.00 | 2.69 | 2.69 | 64 | 1005.4 |
| 20260507204911 | 15 | 210 | 12.9 | 22.5 | 0.00 | 2.69 | 2.69 | 64 | 1005.3 |
| 20260507204811 | 15 | 205 | 11.3 | 22.5 | 0.00 | 2.69 | 2.69 | 64 | 1005.4 |
| 20260507204711 | 15 | 210 | 9.7 | 22.5 | 0.00 | 2.69 | 2.69 | 64 | 1005.2 |
| 20260507204632 | 15 | 210 | 8.0 | 22.5 | 0.00 | 2.69 | 2.69 | 64 | 1005.4 |
| 20260507204511 | 15 | 212 | 9.7 | 22.5 | 0.00 | 2.69 | 2.69 | 64 | 1005.4 |
| 20260507204411 | 15 | 213 | 9.7 | 22.5 | 0.00 | 2.69 | 2.69 | 64 | 1005.4 |
| 20260507204311 | 15 | 207 | 12.9 | 22.5 | 0.00 | 2.69 | 2.69 | 64 | 1005.3 |
| 20260507204211 | 15 | 211 | 9.7 | 25.7 | 0.00 | 2.69 | 2.69 | 64 | 1005.3 |
| 20260507204111 | 15 | 212 | 12.9 | 25.7 | 0.00 | 2.69 | 2.69 | 64 | 1005.4 |
| 20260507204011 | 15 | 217 | 9.7 | 25.7 | 0.00 | 2.69 | 2.69 | 64 | 1005.4 |
| 20260507203911 | 15 | 222 | 8.0 | 25.7 | 0.00 | 2.69 | 2.69 | 64 | 1005.4 |
| 20260507203811 | 15 | 225 | 6.4 | 25.7 | 0.00 | 2.69 | 2.69 | 64 | 1005.4 |
| 20260507203711 | 15 | 220 | 6.4 | 25.7 | 0.00 | 2.69 | 2.69 | 64 | 1005.5 |
| 20260507203611 | 15 | 224 | 9.7 | 25.7 | 0.00 | 2.69 | 2.69 | 64 | 1005.3 |
| 20260507203511 | 15 | 220 | 9.7 | 25.7 | 0.00 | 2.69 | 2.69 | 64 | 1005.3 |
| 20260507203411 | 15 | 219 | 8.0 | 25.7 | 0.00 | 2.69 | 2.69 | 63 | 1005.5 |
| 20260507203311 | 15 | 225 | 8.0 | 25.7 | 0.00 | 2.69 | 2.69 | 63 | 1005.5 |
| 20260507203211 | 15 | 232 | 16.1 | 25.7 | 0.00 | 2.69 | 2.69 | 63 | 1005.4 |
| 20260507203111 | 15 | 228 | 6.4 | 32.2 | 0.00 | 2.69 | 2.69 | 63 | 1005.4 |
| 20260507203011 | 15 | 232 | 6.4 | 32.2 | 0.00 | 2.69 | 2.69 | 63 | 1005.4 |
| 20260507202911 | 15 | 231 | 6.4 | 32.2 | 0.00 | 2.69 | 2.69 | 63 | 1005.4 |
| 20260507202832 | 15 | 232 | 11.3 | 32.2 | 0.00 | 2.69 | 2.69 | 62 | 1005.5 |
| 20260507202711 | 15 | 232 | 14.5 | 32.2 | 0.00 | 2.69 | 2.69 | 62 | 1005.3 |
| 20260507202611 | 15 | 232 | 12.9 | 32.2 | 0.00 | 2.69 | 2.69 | 62 | 1005.5 |
| 20260507202511 | 15 | 237 | 8.0 | 32.2 | 0.00 | 2.69 | 2.69 | 62 | 1005.5 |
| 20260507202411 | 15 | 237 | 14.5 | 32.2 | 0.00 | 2.69 | 2.69 | 61 | 1005.3 |
| 20260507202311 | 15 | 230 | 12.9 | 32.2 | 0.00 | 2.69 | 2.69 | 61 | 1005.4 |
| 20260507202211 | 15 | 223 | 19.3 | 32.2 | 0.00 | 2.69 | 2.69 | 62 | 1005.2 |
| 20260507202111 | 15 | 228 | 12.9 | 29.0 | 0.00 | 2.69 | 2.69 | 63 | 1005.2 |
| 20260507202011 | 15 | 223 | 6.4 | 27.4 | 0.00 | 2.69 | 2.69 | 63 | 1005.5 |
| 20260507201911 | 15 | 221 | 6.4 | 27.4 | 0.00 | 2.69 | 2.69 | 63 | 1005.3 |
| 20260507201811 | 15 | 223 | 8.0 | 27.4 | 0.00 | 2.69 | 2.69 | 62 | 1005.0 |
| 20260507201711 | 15 | 229 | 9.7 | 27.4 | 0.00 | 2.69 | 2.69 | 62 | 1005.1 |
| 20260507201611 | 15 | 222 | 11.3 | 27.4 | 0.00 | 2.69 | 2.69 | 62 | 1005.2 |
| 20260507201510 | 15 | 217 | 11.3 | 27.4 | 0.00 | 2.69 | 2.69 | 62 | 1005.1 |
| 20260507201432 | 15 | 218 | 11.3 | 27.4 | 0.00 | 2.69 | 2.69 | 62 | 1005.3 |
| 20260507201310 | 15 | 219 | 12.9 | 27.4 | 0.00 | 2.69 | 2.69 | 62 | 1005.2 |
| 20260507201232 | 15 | 214 | 12.9 | 27.4 | 0.00 | 2.69 | 2.69 | 62 | 1005.1 |
| 20260507201111 | 15 | 210 | 12.9 | 25.7 | 0.00 | 2.69 | 2.69 | 62 | 1005.0 |
| 20260507201032 | 15 | 207 | 9.7 | 25.7 | 0.00 | 2.69 | 2.69 | 62 | 1005.0 |
| 20260507200911 | 15 | 212 | 12.9 | 25.7 | 0.00 | 2.69 | 2.69 | 61 | 1005.1 |
| 20260507200811 | 15 | 205 | 14.5 | 25.7 | 0.00 | 2.69 | 2.69 | 61 | 1005.1 |
| 20260507200711 | 15 | 202 | 12.9 | 25.7 | 0.00 | 2.69 | 2.69 | 61 | 1005.0 |
| 20260507200632 | 15 | 202 | 17.7 | 25.7 | 0.00 | 2.69 | 2.69 | 61 | 1005.2 |
| 20260507200511 | 15 | 202 | 9.7 | 22.5 | 0.00 | 2.69 | 2.69 | 62 | 1005.3 |
| 20260507200411 | 15 | 201 | 12.9 | 22.5 | 0.00 | 2.69 | 2.69 | 62 | 1005.4 |
| 20260507200311 | 15 | 201 | 9.7 | 22.5 | 0.00 | 2.69 | 2.69 | 62 | 1005.3 |
| 20260507200210 | 15 | 202 | 11.3 | 22.5 | 0.00 | 2.69 | 2.69 | 62 | 1005.4 |
| 20260507200111 | 15 | 200 | 8.0 | 22.5 | 0.00 | 2.69 | 2.69 | 62 | 1005.3 |
| 20260507200032 | 15 | 197 | 14.5 | 33.8 | 0.00 | 2.69 | 2.69 | 61 | 1005.3 |
| 20260507195911 | 15 | 190 | 8.0 | 33.8 | 0.00 | 2.69 | 2.69 | 62 | 1005.3 |
| 20260507195811 | 15 | 191 | 6.4 | 33.8 | 0.00 | 2.69 | 2.69 | 62 | 1005.3 |
| 20260507195710 | 15 | 191 | 8.0 | 33.8 | 0.00 | 2.69 | 2.69 | 61 | 1005.2 |
| 20260507195632 | 15 | 190 | 11.3 | 33.8 | 0.00 | 2.69 | 2.69 | 61 | 1005.3 |
| 20260507195511 | 15 | 201 | 12.9 | 33.8 | 0.00 | 2.69 | 2.69 | 61 | 1005.1 |
| 20260507195411 | 15 | 197 | 11.3 | 33.8 | 0.00 | 2.69 | 2.69 | 61 | 1005.3 |
| 20260507195311 | 15 | 190 | 9.7 | 33.8 | 0.00 | 2.69 | 2.69 | 60 | 1005.3 |
| 20260507195211 | 15 | 191 | 12.9 | 33.8 | 0.00 | 2.69 | 2.69 | 60 | 1005.1 |
| 20260507195132 | 15 | 195 | 11.3 | 33.8 | 0.00 | 2.69 | 2.69 | 60 | 1005.1 |